Wetterdaten: Dienstag, 15.10.2019
Datum Zeit Temp. A. Feuchte A. Luftdruck Regen Wind Richtung Richtung Sonnenschein ET UV Solar Taupunkt Windchill Windböen
15.10.2019 00:00 8,7 °C 91 % 1010,7 hPa 0,0 mm 0,0 km/h (0 Bft) S-SW 194 ° 0 min 0,000 mm 0,0 UV-I 0 W/m² 7,3 °C 8,7 °C 0,0 km/h (0 Bft)
15.10.2019 00:01 8,7 °C 91 % 1010,7 hPa 0,0 mm 0,0 km/h (0 Bft) S-SW 194 ° 0 min 0,000 mm 0,0 UV-I 0 W/m² 7,3 °C 8,7 °C 0,0 km/h (0 Bft)
15.10.2019 00:02 8,7 °C 91 % 1010,7 hPa 0,0 mm 0,0 km/h (0 Bft) S-SW 194 ° 0 min 0,000 mm 0,0 UV-I 0 W/m² 7,3 °C 8,7 °C 0,0 km/h (0 Bft)
15.10.2019 00:03 8,7 °C 92 % 1010,7 hPa 0,0 mm 0,0 km/h (0 Bft) S-SW 194 ° 0 min 0,000 mm 0,0 UV-I 0 W/m² 7,5 °C 8,7 °C 0,0 km/h (0 Bft)
15.10.2019 00:04 8,6 °C 91 % 1010,7 hPa 0,0 mm 0,0 km/h (0 Bft) S-SW 194 ° 0 min 0,000 mm 0,0 UV-I 0 W/m² 7,2 °C 8,6 °C 0,0 km/h (0 Bft)
15.10.2019 00:05 8,6 °C 91 % 1010,7 hPa 0,0 mm 0,0 km/h (0 Bft) S-SW 194 ° 0 min 0,000 mm 0,0 UV-I 0 W/m² 7,2 °C 8,6 °C 0,0 km/h (0 Bft)
15.10.2019 00:06 8,6 °C 91 % 1010,7 hPa 0,0 mm 0,0 km/h (0 Bft) S-SW 194 ° 0 min 0,000 mm 0,0 UV-I 0 W/m² 7,2 °C 8,6 °C 0,0 km/h (0 Bft)
15.10.2019 00:07 8,5 °C 91 % 1010,6 hPa 0,0 mm 0,0 km/h (0 Bft) S-SW 194 ° 0 min 0,000 mm 0,0 UV-I 0 W/m² 7,1 °C 8,5 °C 0,0 km/h (0 Bft)
15.10.2019 00:08 8,5 °C 92 % 1010,7 hPa 0,0 mm 0,0 km/h (0 Bft) S-SW 194 ° 0 min 0,000 mm 0,0 UV-I 0 W/m² 7,3 °C 8,5 °C 0,0 km/h (0 Bft)
15.10.2019 00:09 8,6 °C 92 % 1010,7 hPa 0,0 mm 2,0 km/h (1 Bft) S-SW 194 ° 0 min 0,000 mm 0,0 UV-I 0 W/m² 7,4 °C 8,6 °C 6,4 km/h (2 Bft)
15.10.2019 00:10 8,7 °C 92 % 1010,6 hPa 0,0 mm 0,9 km/h (0 Bft) S-SW 194 ° 0 min 0,000 mm 0,0 UV-I 0 W/m² 7,5 °C 8,7 °C 6,4 km/h (2 Bft)
15.10.2019 00:11 8,7 °C 92 % 1010,6 hPa 0,0 mm 0,0 km/h (0 Bft) S-SW 194 ° 0 min 0,000 mm 0,0 UV-I 0 W/m² 7,5 °C 8,7 °C 0,0 km/h (0 Bft)
15.10.2019 00:12 8,9 °C 92 % 1010,7 hPa 0,0 mm 1,0 km/h (0 Bft) S-SW 194 ° 0 min 0,000 mm 0,0 UV-I 0 W/m² 7,7 °C 8,9 °C 3,2 km/h (1 Bft)
15.10.2019 00:13 8,9 °C 92 % 1010,7 hPa 0,0 mm 0,3 km/h (0 Bft) S-SW 194 ° 0 min 0,000 mm 0,0 UV-I 0 W/m² 7,7 °C 8,9 °C 1,6 km/h (1 Bft)
15.10.2019 00:14 8,8 °C 91 % 1010,7 hPa 0,0 mm 0,0 km/h (0 Bft) S-SW 194 ° 0 min 0,000 mm 0,0 UV-I 0 W/m² 7,4 °C 8,8 °C 0,0 km/h (0 Bft)
15.10.2019 00:15 8,7 °C 91 % 1010,6 hPa 0,0 mm 0,0 km/h (0 Bft) S-SW 194 ° 0 min 0,000 mm 0,0 UV-I 0 W/m² 7,3 °C 8,7 °C 0,0 km/h (0 Bft)
15.10.2019 00:16 8,6 °C 91 % 1010,6 hPa 0,0 mm 0,0 km/h (0 Bft) S-SW 194 ° 0 min 0,000 mm 0,0 UV-I 0 W/m² 7,2 °C 8,6 °C 0,0 km/h (0 Bft)
15.10.2019 00:17 8,5 °C 91 % 1010,6 hPa 0,0 mm 0,0 km/h (0 Bft) S-SW 194 ° 0 min 0,000 mm 0,0 UV-I 0 W/m² 7,1 °C 8,5 °C 0,0 km/h (0 Bft)
15.10.2019 00:18 8,4 °C 91 % 1010,6 hPa 0,0 mm 0,0 km/h (0 Bft) S-SW 194 ° 0 min 0,000 mm 0,0 UV-I 0 W/m² 7,0 °C 8,4 °C 0,0 km/h (0 Bft)
15.10.2019 00:19 8,4 °C 91 % 1010,6 hPa 0,0 mm 0,0 km/h (0 Bft) S-SW 194 ° 0 min 0,000 mm 0,0 UV-I 0 W/m² 7,0 °C 8,4 °C 0,0 km/h (0 Bft)
15.10.2019 00:20 8,4 °C 92 % 1010,6 hPa 0,0 mm 0,0 km/h (0 Bft) S-SW 194 ° 0 min 0,000 mm 0,0 UV-I 0 W/m² 7,2 °C 8,4 °C 0,0 km/h (0 Bft)
15.10.2019 00:21 8,4 °C 92 % 1010,6 hPa 0,0 mm 0,0 km/h (0 Bft) S-SW 194 ° 0 min 0,000 mm 0,0 UV-I 0 W/m² 7,2 °C 8,4 °C 0,0 km/h (0 Bft)
15.10.2019 00:22 8,4 °C 92 % 1010,6 hPa 0,0 mm 0,0 km/h (0 Bft) S-SW 194 ° 0 min 0,000 mm 0,0 UV-I 0 W/m² 7,2 °C 8,4 °C 0,0 km/h (0 Bft)
15.10.2019 00:23 8,4 °C 92 % 1010,6 hPa 0,0 mm 0,0 km/h (0 Bft) S-SW 194 ° 0 min 0,000 mm 0,0 UV-I 0 W/m² 7,2 °C 8,4 °C 0,0 km/h (0 Bft)
15.10.2019 00:24 8,3 °C 92 % 1010,6 hPa 0,0 mm 0,0 km/h (0 Bft) S-SW 194 ° 0 min 0,000 mm 0,0 UV-I 0 W/m² 7,1 °C 8,3 °C 0,0 km/h (0 Bft)
15.10.2019 00:25 8,3 °C 92 % 1010,6 hPa 0,0 mm 0,0 km/h (0 Bft) S-SW 194 ° 0 min 0,000 mm 0,0 UV-I 0 W/m² 7,1 °C 8,3 °C 0,0 km/h (0 Bft)
15.10.2019 00:26 8,3 °C 92 % 1010,6 hPa 0,0 mm 0,0 km/h (0 Bft) S-SW 194 ° 0 min 0,000 mm 0,0 UV-I 0 W/m² 7,1 °C 8,3 °C 0,0 km/h (0 Bft)
15.10.2019 00:27 8,2 °C 92 % 1010,7 hPa 0,0 mm 0,0 km/h (0 Bft) S-SW 194 ° 0 min 0,000 mm 0,0 UV-I 0 W/m² 7,0 °C 8,2 °C 0,0 km/h (0 Bft)
15.10.2019 00:28 8,2 °C 92 % 1010,7 hPa 0,0 mm 0,0 km/h (0 Bft) S-SW 194 ° 0 min 0,000 mm 0,0 UV-I 0 W/m² 7,0 °C 8,2 °C 0,0 km/h (0 Bft)
15.10.2019 00:29 8,3 °C 92 % 1010,7 hPa 0,0 mm 0,0 km/h (0 Bft) S-SW 194 ° 0 min 0,000 mm 0,0 UV-I 0 W/m² 7,1 °C 8,3 °C 0,0 km/h (0 Bft)
15.10.2019 00:30 8,3 °C 92 % 1010,7 hPa 0,0 mm 0,0 km/h (0 Bft) S-SW 194 ° 0 min 0,000 mm 0,0 UV-I 0 W/m² 7,1 °C 8,3 °C 0,0 km/h (0 Bft)
15.10.2019 00:31 8,4 °C 92 % 1010,6 hPa 0,0 mm 0,0 km/h (0 Bft) S-SW 194 ° 0 min 0,000 mm 0,0 UV-I 0 W/m² 7,2 °C 8,4 °C 0,0 km/h (0 Bft)
15.10.2019 00:32 8,5 °C 92 % 1010,6 hPa 0,0 mm 0,0 km/h (0 Bft) S-SW 194 ° 0 min 0,000 mm 0,0 UV-I 0 W/m² 7,3 °C 8,5 °C 0,0 km/h (0 Bft)
15.10.2019 00:33 8,5 °C 92 % 1010,6 hPa 0,0 mm 0,0 km/h (0 Bft) S-SW 194 ° 0 min 0,000 mm 0,0 UV-I 0 W/m² 7,3 °C 8,5 °C 0,0 km/h (0 Bft)
15.10.2019 00:34 8,4 °C 91 % 1010,6 hPa 0,0 mm 0,0 km/h (0 Bft) S-SW 194 ° 0 min 0,000 mm 0,0 UV-I 0 W/m² 7,0 °C 8,4 °C 0,0 km/h (0 Bft)
15.10.2019 00:35 8,3 °C 91 % 1010,7 hPa 0,0 mm 0,0 km/h (0 Bft) S-SW 194 ° 0 min 0,000 mm 0,0 UV-I 0 W/m² 6,9 °C 8,3 °C 0,0 km/h (0 Bft)
15.10.2019 00:36 8,2 °C 91 % 1010,7 hPa 0,0 mm 0,0 km/h (0 Bft) S-SW 194 ° 0 min 0,000 mm 0,0 UV-I 0 W/m² 6,8 °C 8,2 °C 0,0 km/h (0 Bft)
15.10.2019 00:37 8,1 °C 91 % 1010,7 hPa 0,0 mm 0,0 km/h (0 Bft) S-SW 194 ° 0 min 0,000 mm 0,0 UV-I 0 W/m² 6,7 °C 8,1 °C 0,0 km/h (0 Bft)
15.10.2019 00:38 8,1 °C 91 % 1010,7 hPa 0,0 mm 0,0 km/h (0 Bft) S-SW 194 ° 0 min 0,000 mm 0,0 UV-I 0 W/m² 6,7 °C 8,1 °C 0,0 km/h (0 Bft)
15.10.2019 00:39 8,0 °C 92 % 1010,7 hPa 0,0 mm 0,0 km/h (0 Bft) S-SW 194 ° 0 min 0,000 mm 0,0 UV-I 0 W/m² 6,8 °C 8,0 °C 0,0 km/h (0 Bft)
15.10.2019 00:40 8,1 °C 92 % 1010,7 hPa 0,0 mm 0,0 km/h (0 Bft) S-SW 194 ° 0 min 0,000 mm 0,0 UV-I 0 W/m² 6,9 °C 8,1 °C 0,0 km/h (0 Bft)
15.10.2019 00:41 8,1 °C 92 % 1010,6 hPa 0,2 mm 0,0 km/h (0 Bft) S-SW 194 ° 0 min 0,000 mm 0,0 UV-I 0 W/m² 6,9 °C 8,1 °C 0,0 km/h (0 Bft)
15.10.2019 00:42 8,1 °C 92 % 1010,6 hPa 0,0 mm 0,0 km/h (0 Bft) S-SW 194 ° 0 min 0,000 mm 0,0 UV-I 0 W/m² 6,9 °C 8,1 °C 0,0 km/h (0 Bft)
15.10.2019 00:43 8,0 °C 91 % 1010,6 hPa 0,0 mm 0,0 km/h (0 Bft) S-SW 194 ° 0 min 0,000 mm 0,0 UV-I 0 W/m² 6,6 °C 8,0 °C 0,0 km/h (0 Bft)
15.10.2019 00:44 7,9 °C 91 % 1010,7 hPa 0,0 mm 0,0 km/h (0 Bft) S-SW 194 ° 0 min 0,000 mm 0,0 UV-I 0 W/m² 6,5 °C 7,9 °C 0,0 km/h (0 Bft)
15.10.2019 00:45 7,8 °C 91 % 1010,7 hPa 0,0 mm 0,0 km/h (0 Bft) S-SW 194 ° 0 min 0,000 mm 0,0 UV-I 0 W/m² 6,4 °C 7,8 °C 0,0 km/h (0 Bft)
15.10.2019 00:46 7,8 °C 91 % 1010,6 hPa 0,0 mm 0,0 km/h (0 Bft) S-SW 194 ° 0 min 0,000 mm 0,0 UV-I 0 W/m² 6,4 °C 7,8 °C 0,0 km/h (0 Bft)
15.10.2019 00:47 7,8 °C 91 % 1010,7 hPa 0,0 mm 0,5 km/h (0 Bft) S-SW 194 ° 0 min 0,000 mm 0,0 UV-I 0 W/m² 6,4 °C 7,8 °C 1,6 km/h (1 Bft)
15.10.2019 00:48 7,7 °C 91 % 1010,7 hPa 0,0 mm 0,9 km/h (0 Bft) S-SW 194 ° 0 min 0,000 mm 0,0 UV-I 0 W/m² 6,3 °C 7,7 °C 3,2 km/h (1 Bft)
15.10.2019 00:49 7,7 °C 91 % 1010,7 hPa 0,0 mm 0,1 km/h (0 Bft) S-SW 194 ° 0 min 0,000 mm 0,0 UV-I 0 W/m² 6,3 °C 7,7 °C 1,6 km/h (1 Bft)
15.10.2019 00:50 7,7 °C 92 % 1010,7 hPa 0,0 mm 1,3 km/h (1 Bft) S-SW 194 ° 0 min 0,000 mm 0,0 UV-I 0 W/m² 6,5 °C 7,7 °C 3,2 km/h (1 Bft)
15.10.2019 00:51 7,8 °C 92 % 1010,7 hPa 0,0 mm 0,2 km/h (0 Bft) S-SW 194 ° 0 min 0,000 mm 0,0 UV-I 0 W/m² 6,6 °C 7,8 °C 1,6 km/h (1 Bft)
15.10.2019 00:52 7,8 °C 93 % 1010,7 hPa 0,0 mm 1,2 km/h (1 Bft) S-SW 198 ° 0 min 0,000 mm 0,0 UV-I 0 W/m² 6,7 °C 7,8 °C 6,4 km/h (2 Bft)
15.10.2019 00:53 7,9 °C 92 % 1010,7 hPa 0,0 mm 0,6 km/h (0 Bft) S-SW 198 ° 0 min 0,000 mm 0,0 UV-I 0 W/m² 6,7 °C 7,9 °C 4,8 km/h (1 Bft)
15.10.2019 00:54 8,1 °C 93 % 1010,8 hPa 0,0 mm 0,7 km/h (0 Bft) S-SW 198 ° 0 min 0,000 mm 0,0 UV-I 0 W/m² 7,0 °C 8,1 °C 3,2 km/h (1 Bft)
15.10.2019 00:55 8,3 °C 93 % 1010,7 hPa 0,0 mm 4,2 km/h (1 Bft) S-SW 198 ° 0 min 0,000 mm 0,0 UV-I 0 W/m² 7,2 °C 8,3 °C 8,0 km/h (2 Bft)
15.10.2019 00:56 8,4 °C 93 % 1010,7 hPa 0,0 mm 2,0 km/h (1 Bft) S-SW 198 ° 0 min 0,000 mm 0,0 UV-I 0 W/m² 7,3 °C 8,4 °C 4,8 km/h (1 Bft)
15.10.2019 00:57 8,6 °C 92 % 1010,6 hPa 0,0 mm 3,2 km/h (1 Bft) S-SW 198 ° 0 min 0,000 mm 0,0 UV-I 0 W/m² 7,4 °C 8,6 °C 4,8 km/h (1 Bft)
15.10.2019 00:58 8,6 °C 92 % 1010,7 hPa 0,0 mm 4,4 km/h (1 Bft) S-SW 198 ° 0 min 0,000 mm 0,0 UV-I 0 W/m² 7,4 °C 8,6 °C 4,8 km/h (1 Bft)
15.10.2019 00:59 8,7 °C 92 % 1010,6 hPa 0,0 mm 5,0 km/h (1 Bft) S-SO 150 ° 0 min 0,000 mm 0,0 UV-I 0 W/m² 7,5 °C 8,3 °C 6,4 km/h (2 Bft)
15.10.2019 01:00 8,7 °C 92 % 1010,6 hPa 0,0 mm 4,5 km/h (1 Bft) S-SO 150 ° 0 min 0,000 mm 0,0 UV-I 0 W/m² 7,5 °C 8,7 °C 4,8 km/h (1 Bft)
15.10.2019 01:01 8,8 °C 92 % 1010,6 hPa 0,0 mm 3,4 km/h (1 Bft) S-SO 150 ° 0 min 0,000 mm 0,0 UV-I 0 W/m² 7,6 °C 8,8 °C 4,8 km/h (1 Bft)
15.10.2019 01:02 8,9 °C 91 % 1010,7 hPa 0,0 mm 1,2 km/h (1 Bft) S-SO 150 ° 0 min 0,000 mm 0,0 UV-I 0 W/m² 7,5 °C 8,9 °C 3,2 km/h (1 Bft)
15.10.2019 01:03 8,9 °C 91 % 1010,7 hPa 0,0 mm 0,3 km/h (0 Bft) S-SO 150 ° 0 min 0,000 mm 0,0 UV-I 0 W/m² 7,5 °C 8,9 °C 1,6 km/h (1 Bft)
15.10.2019 01:04 8,9 °C 90 % 1010,7 hPa 0,0 mm 0,6 km/h (0 Bft) S-SO 150 ° 0 min 0,000 mm 0,0 UV-I 0 W/m² 7,4 °C 8,9 °C 1,6 km/h (1 Bft)
15.10.2019 01:05 8,9 °C 90 % 1010,7 hPa 0,0 mm 0,0 km/h (0 Bft) S-SO 150 ° 0 min 0,000 mm 0,0 UV-I 0 W/m² 7,4 °C 8,9 °C 0,0 km/h (0 Bft)
15.10.2019 01:06 9,0 °C 90 % 1010,7 hPa 0,0 mm 2,1 km/h (1 Bft) S-SO 150 ° 0 min 0,000 mm 0,0 UV-I 0 W/m² 7,4 °C 9,0 °C 4,8 km/h (1 Bft)
15.10.2019 01:07 9,2 °C 90 % 1010,7 hPa 0,0 mm 4,8 km/h (1 Bft) S-SO 150 ° 0 min 0,000 mm 0,0 UV-I 0 W/m² 7,6 °C 8,9 °C 4,8 km/h (1 Bft)
15.10.2019 01:08 9,4 °C 90 % 1010,6 hPa 0,0 mm 4,8 km/h (1 Bft) S-SO 150 ° 0 min 0,000 mm 0,0 UV-I 0 W/m² 7,8 °C 9,1 °C 6,4 km/h (2 Bft)
15.10.2019 01:09 9,7 °C 88 % 1010,6 hPa 0,0 mm 3,7 km/h (1 Bft) S-SO 150 ° 0 min 0,000 mm 0,0 UV-I 0 W/m² 7,8 °C 9,7 °C 4,8 km/h (1 Bft)
15.10.2019 01:10 9,9 °C 87 % 1010,5 hPa 0,0 mm 0,5 km/h (0 Bft) S-SO 150 ° 0 min 0,000 mm 0,0 UV-I 0 W/m² 7,8 °C 9,9 °C 3,2 km/h (1 Bft)
15.10.2019 01:11 10,0 °C 86 % 1010,5 hPa 0,0 mm 3,6 km/h (1 Bft) W 261 ° 0 min 0,000 mm 0,0 UV-I 0 W/m² 7,8 °C 10,0 °C 6,4 km/h (2 Bft)
15.10.2019 01:12 9,9 °C 85 % 1010,6 hPa 0,0 mm 2,7 km/h (1 Bft) W 261 ° 0 min 0,000 mm 0,0 UV-I 0 W/m² 7,5 °C 9,9 °C 4,8 km/h (1 Bft)
15.10.2019 01:13 9,8 °C 84 % 1010,6 hPa 0,0 mm 0,0 km/h (0 Bft) W 261 ° 0 min 0,000 mm 0,0 UV-I 0 W/m² 7,2 °C 9,8 °C 0,0 km/h (0 Bft)
15.10.2019 01:14 9,7 °C 84 % 1010,6 hPa 0,0 mm 0,0 km/h (0 Bft) W 261 ° 0 min 0,000 mm 0,0 UV-I 0 W/m² 7,1 °C 9,7 °C 0,0 km/h (0 Bft)
15.10.2019 01:15 9,4 °C 85 % 1010,7 hPa 0,0 mm 0,0 km/h (0 Bft) W 261 ° 0 min 0,000 mm 0,0 UV-I 0 W/m² 7,0 °C 9,4 °C 0,0 km/h (0 Bft)
15.10.2019 01:16 9,3 °C 85 % 1010,6 hPa 0,0 mm 0,8 km/h (0 Bft) W 261 ° 0 min 0,000 mm 0,0 UV-I 0 W/m² 6,9 °C 9,3 °C 3,2 km/h (1 Bft)
15.10.2019 01:17 9,2 °C 86 % 1010,6 hPa 0,0 mm 5,5 km/h (1 Bft) S-SO 163 ° 0 min 0,000 mm 0,0 UV-I 0 W/m² 7,0 °C 8,7 °C 6,4 km/h (2 Bft)
15.10.2019 01:18 9,2 °C 86 % 1010,6 hPa 0,0 mm 2,3 km/h (1 Bft) S-SO 163 ° 0 min 0,000 mm 0,0 UV-I 0 W/m² 7,0 °C 9,2 °C 6,4 km/h (2 Bft)
15.10.2019 01:19 9,2 °C 87 % 1010,5 hPa 0,0 mm 0,0 km/h (0 Bft) S-SO 163 ° 0 min 0,000 mm 0,0 UV-I 0 W/m² 7,2 °C 9,2 °C 0,0 km/h (0 Bft)
15.10.2019 01:20 9,1 °C 86 % 1010,5 hPa 0,0 mm 0,0 km/h (0 Bft) S-SO 163 ° 0 min 0,000 mm 0,0 UV-I 0 W/m² 6,9 °C 9,1 °C 0,0 km/h (0 Bft)
15.10.2019 01:21 9,0 °C 86 % 1010,5 hPa 0,0 mm 0,0 km/h (0 Bft) S-SO 163 ° 0 min 0,000 mm 0,0 UV-I 0 W/m² 6,8 °C 9,0 °C 0,0 km/h (0 Bft)
15.10.2019 01:22 8,9 °C 86 % 1010,6 hPa 0,0 mm 0,0 km/h (0 Bft) S-SO 163 ° 0 min 0,000 mm 0,0 UV-I 0 W/m² 6,7 °C 8,9 °C 0,0 km/h (0 Bft)
15.10.2019 01:23 8,8 °C 86 % 1010,7 hPa 0,0 mm 0,0 km/h (0 Bft) S-SO 163 ° 0 min 0,000 mm 0,0 UV-I 0 W/m² 6,6 °C 8,8 °C 0,0 km/h (0 Bft)
15.10.2019 01:24 8,8 °C 87 % 1010,6 hPa 0,0 mm 0,0 km/h (0 Bft) S-SO 163 ° 0 min 0,000 mm 0,0 UV-I 0 W/m² 6,8 °C 8,8 °C 0,0 km/h (0 Bft)
15.10.2019 01:25 8,9 °C 88 % 1010,6 hPa 0,0 mm 3,2 km/h (1 Bft) S-SO 163 ° 0 min 0,000 mm 0,0 UV-I 0 W/m² 7,0 °C 8,9 °C 6,4 km/h (2 Bft)
15.10.2019 01:26 8,9 °C 88 % 1010,5 hPa 0,0 mm 0,9 km/h (0 Bft) S-SO 163 ° 0 min 0,000 mm 0,0 UV-I 0 W/m² 7,0 °C 8,9 °C 3,2 km/h (1 Bft)
15.10.2019 01:27 9,0 °C 88 % 1010,5 hPa 0,0 mm 0,1 km/h (0 Bft) S-SO 163 ° 0 min 0,000 mm 0,0 UV-I 0 W/m² 7,1 °C 9,0 °C 1,6 km/h (1 Bft)
15.10.2019 01:28 8,9 °C 87 % 1010,6 hPa 0,0 mm 0,0 km/h (0 Bft) S-SO 163 ° 0 min 0,000 mm 0,0 UV-I 0 W/m² 6,9 °C 8,9 °C 0,0 km/h (0 Bft)
15.10.2019 01:29 8,8 °C 86 % 1010,5 hPa 0,0 mm 0,0 km/h (0 Bft) S-SO 163 ° 0 min 0,000 mm 0,0 UV-I 0 W/m² 6,6 °C 8,8 °C 0,0 km/h (0 Bft)
15.10.2019 01:30 8,7 °C 86 % 1010,5 hPa 0,0 mm 0,0 km/h (0 Bft) S-SO 163 ° 0 min 0,000 mm 0,0 UV-I 0 W/m² 6,5 °C 8,7 °C 0,0 km/h (0 Bft)
15.10.2019 01:31 8,6 °C 87 % 1010,6 hPa 0,0 mm 0,0 km/h (0 Bft) S-SO 163 ° 0 min 0,000 mm 0,0 UV-I 0 W/m² 6,6 °C 8,6 °C 0,0 km/h (0 Bft)
15.10.2019 01:32 8,4 °C 88 % 1010,6 hPa 0,0 mm 0,0 km/h (0 Bft) S-SO 163 ° 0 min 0,000 mm 0,0 UV-I 0 W/m² 6,5 °C 8,4 °C 0,0 km/h (0 Bft)
15.10.2019 01:33 8,4 °C 88 % 1010,6 hPa 0,0 mm 0,0 km/h (0 Bft) S-SO 163 ° 0 min 0,000 mm 0,0 UV-I 0 W/m² 6,5 °C 8,4 °C 0,0 km/h (0 Bft)
15.10.2019 01:34 8,5 °C 89 % 1010,5 hPa 0,0 mm 0,0 km/h (0 Bft) S-SO 163 ° 0 min 0,000 mm 0,0 UV-I 0 W/m² 6,8 °C 8,5 °C 0,0 km/h (0 Bft)
15.10.2019 01:35 8,6 °C 89 % 1010,5 hPa 0,0 mm 0,0 km/h (0 Bft) S-SO 163 ° 0 min 0,000 mm 0,0 UV-I 0 W/m² 6,9 °C 8,6 °C 0,0 km/h (0 Bft)
15.10.2019 01:36 8,7 °C 88 % 1010,5 hPa 0,0 mm 0,0 km/h (0 Bft) S-SO 163 ° 0 min 0,000 mm 0,0 UV-I 0 W/m² 6,8 °C 8,7 °C 0,0 km/h (0 Bft)
15.10.2019 01:37 8,7 °C 88 % 1010,6 hPa 0,0 mm 0,0 km/h (0 Bft) S-SO 163 ° 0 min 0,000 mm 0,0 UV-I 0 W/m² 6,8 °C 8,7 °C 0,0 km/h (0 Bft)
15.10.2019 01:38 8,7 °C 88 % 1010,6 hPa 0,0 mm 0,0 km/h (0 Bft) S 169 ° 0 min 0,000 mm 0,0 UV-I 0 W/m² 6,8 °C 8,7 °C 0,0 km/h (0 Bft)
15.10.2019 01:39 8,8 °C 88 % 1010,6 hPa 0,0 mm 0,0 km/h (0 Bft) S 169 ° 0 min 0,000 mm 0,0 UV-I 0 W/m² 6,9 °C 8,8 °C 0,0 km/h (0 Bft)
15.10.2019 01:40 8,7 °C 87 % 1010,6 hPa 0,0 mm 0,0 km/h (0 Bft) S 169 ° 0 min 0,000 mm 0,0 UV-I 0 W/m² 6,7 °C 8,7 °C 0,0 km/h (0 Bft)
15.10.2019 01:41 8,7 °C 87 % 1010,5 hPa 0,0 mm 0,0 km/h (0 Bft) S 169 ° 0 min 0,000 mm 0,0 UV-I 0 W/m² 6,7 °C 8,7 °C 0,0 km/h (0 Bft)
15.10.2019 01:42 8,6 °C 88 % 1010,5 hPa 0,0 mm 0,0 km/h (0 Bft) S 169 ° 0 min 0,000 mm 0,0 UV-I 0 W/m² 6,7 °C 8,6 °C 0,0 km/h (0 Bft)
15.10.2019 01:43 8,6 °C 88 % 1010,5 hPa 0,0 mm 0,0 km/h (0 Bft) S 169 ° 0 min 0,000 mm 0,0 UV-I 0 W/m² 6,7 °C 8,6 °C 0,0 km/h (0 Bft)
15.10.2019 01:44 8,4 °C 88 % 1010,5 hPa 0,0 mm 0,0 km/h (0 Bft) S 169 ° 0 min 0,000 mm 0,0 UV-I 0 W/m² 6,5 °C 8,4 °C 0,0 km/h (0 Bft)
15.10.2019 01:45 8,3 °C 87 % 1010,5 hPa 0,0 mm 0,0 km/h (0 Bft) S 169 ° 0 min 0,000 mm 0,0 UV-I 0 W/m² 6,3 °C 8,3 °C 0,0 km/h (0 Bft)
15.10.2019 01:46 8,3 °C 87 % 1010,5 hPa 0,0 mm 0,0 km/h (0 Bft) S 169 ° 0 min 0,000 mm 0,0 UV-I 0 W/m² 6,3 °C 8,3 °C 0,0 km/h (0 Bft)
15.10.2019 01:47 8,2 °C 88 % 1010,6 hPa 0,0 mm 0,0 km/h (0 Bft) S 169 ° 0 min 0,000 mm 0,0 UV-I 0 W/m² 6,3 °C 8,2 °C 0,0 km/h (0 Bft)
15.10.2019 01:48 8,1 °C 88 % 1010,5 hPa 0,0 mm 0,0 km/h (0 Bft) S 169 ° 0 min 0,000 mm 0,0 UV-I 0 W/m² 6,2 °C 8,1 °C 0,0 km/h (0 Bft)
15.10.2019 01:49 8,2 °C 89 % 1010,5 hPa 0,0 mm 0,0 km/h (0 Bft) S 169 ° 0 min 0,000 mm 0,0 UV-I 0 W/m² 6,5 °C 8,2 °C 0,0 km/h (0 Bft)
15.10.2019 01:50 8,1 °C 89 % 1010,5 hPa 0,0 mm 0,0 km/h (0 Bft) S 169 ° 0 min 0,000 mm 0,0 UV-I 0 W/m² 6,4 °C 8,1 °C 0,0 km/h (0 Bft)
15.10.2019 01:51 8,0 °C 89 % 1010,5 hPa 0,0 mm 0,0 km/h (0 Bft) S 169 ° 0 min 0,000 mm 0,0 UV-I 0 W/m² 6,3 °C 8,0 °C 0,0 km/h (0 Bft)
15.10.2019 01:52 7,9 °C 89 % 1010,5 hPa 0,0 mm 0,0 km/h (0 Bft) S 169 ° 0 min 0,000 mm 0,0 UV-I 0 W/m² 6,2 °C 7,9 °C 0,0 km/h (0 Bft)
15.10.2019 01:53 7,8 °C 89 % 1010,5 hPa 0,0 mm 0,0 km/h (0 Bft) S 169 ° 0 min 0,000 mm 0,0 UV-I 0 W/m² 6,1 °C 7,8 °C 0,0 km/h (0 Bft)
15.10.2019 01:54 7,8 °C 89 % 1010,5 hPa 0,0 mm 0,0 km/h (0 Bft) S 169 ° 0 min 0,000 mm 0,0 UV-I 0 W/m² 6,1 °C 7,8 °C 0,0 km/h (0 Bft)
15.10.2019 01:55 7,8 °C 90 % 1010,5 hPa 0,0 mm 0,0 km/h (0 Bft) S 169 ° 0 min 0,000 mm 0,0 UV-I 0 W/m² 6,3 °C 7,8 °C 0,0 km/h (0 Bft)
15.10.2019 01:56 7,8 °C 89 % 1010,6 hPa 0,0 mm 0,0 km/h (0 Bft) S 169 ° 0 min 0,000 mm 0,0 UV-I 0 W/m² 6,1 °C 7,8 °C 0,0 km/h (0 Bft)
15.10.2019 01:57 7,8 °C 90 % 1010,5 hPa 0,0 mm 0,0 km/h (0 Bft) S 169 ° 0 min 0,000 mm 0,0 UV-I 0 W/m² 6,3 °C 7,8 °C 0,0 km/h (0 Bft)
15.10.2019 01:58 7,8 °C 90 % 1010,5 hPa 0,0 mm 0,0 km/h (0 Bft) S 169 ° 0 min 0,000 mm 0,0 UV-I 0 W/m² 6,3 °C 7,8 °C 0,0 km/h (0 Bft)
15.10.2019 01:59 7,7 °C 90 % 1010,5 hPa 0,0 mm 0,0 km/h (0 Bft) S 169 ° 0 min 0,000 mm 0,0 UV-I 0 W/m² 6,2 °C 7,7 °C 0,0 km/h (0 Bft)
15.10.2019 02:00 7,7 °C 90 % 1010,5 hPa 0,0 mm 0,0 km/h (0 Bft) S 169 ° 0 min 0,000 mm 0,0 UV-I 0 W/m² 6,2 °C 7,7 °C 0,0 km/h (0 Bft)
15.10.2019 02:01 7,7 °C 90 % 1010,5 hPa 0,0 mm 0,0 km/h (0 Bft) S 169 ° 0 min 0,000 mm 0,0 UV-I 0 W/m² 6,2 °C 7,7 °C 0,0 km/h (0 Bft)
15.10.2019 02:02 7,7 °C 90 % 1010,5 hPa 0,0 mm 0,0 km/h (0 Bft) S 169 ° 0 min 0,000 mm 0,0 UV-I 0 W/m² 6,2 °C 7,7 °C 0,0 km/h (0 Bft)
15.10.2019 02:03 7,7 °C 90 % 1010,5 hPa 0,0 mm 0,0 km/h (0 Bft) S 169 ° 0 min 0,000 mm 0,0 UV-I 0 W/m² 6,2 °C 7,7 °C 0,0 km/h (0 Bft)
15.10.2019 02:04 7,7 °C 91 % 1010,5 hPa 0,0 mm 0,0 km/h (0 Bft) S 169 ° 0 min 0,000 mm 0,0 UV-I 0 W/m² 6,3 °C 7,7 °C 0,0 km/h (0 Bft)
15.10.2019 02:05 7,7 °C 91 % 1010,4 hPa 0,0 mm 0,0 km/h (0 Bft) S 169 ° 0 min 0,000 mm 0,0 UV-I 0 W/m² 6,3 °C 7,7 °C 0,0 km/h (0 Bft)
15.10.2019 02:06 7,7 °C 91 % 1010,5 hPa 0,0 mm 0,0 km/h (0 Bft) S 169 ° 0 min 0,000 mm 0,0 UV-I 0 W/m² 6,3 °C 7,7 °C 0,0 km/h (0 Bft)
15.10.2019 02:07 7,6 °C 91 % 1010,5 hPa 0,0 mm 0,0 km/h (0 Bft) S 169 ° 0 min 0,000 mm 0,0 UV-I 0 W/m² 6,2 °C 7,6 °C 0,0 km/h (0 Bft)
15.10.2019 02:08 7,6 °C 90 % 1010,5 hPa 0,0 mm 0,0 km/h (0 Bft) S 169 ° 0 min 0,000 mm 0,0 UV-I 0 W/m² 6,1 °C 7,6 °C 0,0 km/h (0 Bft)
15.10.2019 02:09 7,6 °C 90 % 1010,5 hPa 0,0 mm 0,0 km/h (0 Bft) S 169 ° 0 min 0,000 mm 0,0 UV-I 0 W/m² 6,1 °C 7,6 °C 0,0 km/h (0 Bft)
15.10.2019 02:10 7,5 °C 91 % 1010,5 hPa 0,0 mm 0,0 km/h (0 Bft) S 169 ° 0 min 0,000 mm 0,0 UV-I 0 W/m² 6,1 °C 7,5 °C 0,0 km/h (0 Bft)
15.10.2019 02:11 7,5 °C 91 % 1010,5 hPa 0,0 mm 0,0 km/h (0 Bft) S 169 ° 0 min 0,000 mm 0,0 UV-I 0 W/m² 6,1 °C 7,5 °C 0,0 km/h (0 Bft)
15.10.2019 02:12 7,4 °C 91 % 1010,4 hPa 0,0 mm 0,0 km/h (0 Bft) S 169 ° 0 min 0,000 mm 0,0 UV-I 0 W/m² 6,0 °C 7,4 °C 0,0 km/h (0 Bft)
15.10.2019 02:13 7,4 °C 91 % 1010,5 hPa 0,0 mm 0,0 km/h (0 Bft) S 169 ° 0 min 0,000 mm 0,0 UV-I 0 W/m² 6,0 °C 7,4 °C 0,0 km/h (0 Bft)
15.10.2019 02:14 7,4 °C 91 % 1010,4 hPa 0,0 mm 0,0 km/h (0 Bft) S 169 ° 0 min 0,000 mm 0,0 UV-I 0 W/m² 6,0 °C 7,4 °C 0,0 km/h (0 Bft)
15.10.2019 02:15 7,4 °C 91 % 1010,5 hPa 0,0 mm 0,0 km/h (0 Bft) S 169 ° 0 min 0,000 mm 0,0 UV-I 0 W/m² 6,0 °C 7,4 °C 0,0 km/h (0 Bft)
15.10.2019 02:16 7,4 °C 91 % 1010,4 hPa 0,0 mm 0,0 km/h (0 Bft) S 169 ° 0 min 0,000 mm 0,0 UV-I 0 W/m² 6,0 °C 7,4 °C 0,0 km/h (0 Bft)
15.10.2019 02:17 7,3 °C 91 % 1010,4 hPa 0,0 mm 0,0 km/h (0 Bft) S 169 ° 0 min 0,000 mm 0,0 UV-I 0 W/m² 5,9 °C 7,3 °C 0,0 km/h (0 Bft)
15.10.2019 02:18 7,3 °C 91 % 1010,5 hPa 0,0 mm 0,0 km/h (0 Bft) S 169 ° 0 min 0,000 mm 0,0 UV-I 0 W/m² 5,9 °C 7,3 °C 0,0 km/h (0 Bft)
15.10.2019 02:19 7,3 °C 91 % 1010,4 hPa 0,0 mm 0,0 km/h (0 Bft) S 169 ° 0 min 0,000 mm 0,0 UV-I 0 W/m² 5,9 °C 7,3 °C 0,0 km/h (0 Bft)
15.10.2019 02:20 7,3 °C 91 % 1010,5 hPa 0,0 mm 0,0 km/h (0 Bft) S 169 ° 0 min 0,000 mm 0,0 UV-I 0 W/m² 5,9 °C 7,3 °C 0,0 km/h (0 Bft)
15.10.2019 02:21 7,2 °C 91 % 1010,4 hPa 0,0 mm 0,0 km/h (0 Bft) S 169 ° 0 min 0,000 mm 0,0 UV-I 0 W/m² 5,8 °C 7,2 °C 0,0 km/h (0 Bft)
15.10.2019 02:22 7,2 °C 91 % 1010,4 hPa 0,0 mm 0,0 km/h (0 Bft) S 169 ° 0 min 0,000 mm 0,0 UV-I 0 W/m² 5,8 °C 7,2 °C 0,0 km/h (0 Bft)
15.10.2019 02:23 7,3 °C 92 % 1010,4 hPa 0,0 mm 0,0 km/h (0 Bft) S 169 ° 0 min 0,000 mm 0,0 UV-I 0 W/m² 6,1 °C 7,3 °C 0,0 km/h (0 Bft)
15.10.2019 02:24 7,3 °C 92 % 1010,4 hPa 0,0 mm 0,0 km/h (0 Bft) S 169 ° 0 min 0,000 mm 0,0 UV-I 0 W/m² 6,1 °C 7,3 °C 0,0 km/h (0 Bft)
15.10.2019 02:25 7,3 °C 91 % 1010,4 hPa 0,0 mm 0,0 km/h (0 Bft) S 169 ° 0 min 0,000 mm 0,0 UV-I 0 W/m² 5,9 °C 7,3 °C 0,0 km/h (0 Bft)
15.10.2019 02:26 7,4 °C 91 % 1010,3 hPa 0,0 mm 0,0 km/h (0 Bft) S 169 ° 0 min 0,000 mm 0,0 UV-I 0 W/m² 6,0 °C 7,4 °C 0,0 km/h (0 Bft)
15.10.2019 02:27 7,4 °C 91 % 1010,3 hPa 0,0 mm 0,0 km/h (0 Bft) S 169 ° 0 min 0,000 mm 0,0 UV-I 0 W/m² 6,0 °C 7,4 °C 0,0 km/h (0 Bft)
15.10.2019 02:28 7,5 °C 91 % 1010,3 hPa 0,0 mm 0,0 km/h (0 Bft) S 169 ° 0 min 0,000 mm 0,0 UV-I 0 W/m² 6,1 °C 7,5 °C 0,0 km/h (0 Bft)
15.10.2019 02:29 7,6 °C 91 % 1010,3 hPa 0,0 mm 0,0 km/h (0 Bft) S 169 ° 0 min 0,000 mm 0,0 UV-I 0 W/m² 6,2 °C 7,6 °C 0,0 km/h (0 Bft)
15.10.2019 02:30 7,6 °C 90 % 1010,3 hPa 0,0 mm 0,0 km/h (0 Bft) S 169 ° 0 min 0,000 mm 0,0 UV-I 0 W/m² 6,1 °C 7,6 °C 0,0 km/h (0 Bft)
15.10.2019 02:31 7,5 °C 90 % 1010,3 hPa 0,0 mm 0,0 km/h (0 Bft) S 169 ° 0 min 0,000 mm 0,0 UV-I 0 W/m² 6,0 °C 7,5 °C 0,0 km/h (0 Bft)
15.10.2019 02:32 7,4 °C 90 % 1010,2 hPa 0,0 mm 0,0 km/h (0 Bft) S 169 ° 0 min 0,000 mm 0,0 UV-I 0 W/m² 5,9 °C 7,4 °C 0,0 km/h (0 Bft)
15.10.2019 02:33 7,4 °C 90 % 1010,3 hPa 0,0 mm 0,0 km/h (0 Bft) S 169 ° 0 min 0,000 mm 0,0 UV-I 0 W/m² 5,9 °C 7,4 °C 0,0 km/h (0 Bft)
15.10.2019 02:34 7,4 °C 91 % 1010,2 hPa 0,0 mm 0,0 km/h (0 Bft) S 169 ° 0 min 0,000 mm 0,0 UV-I 0 W/m² 6,0 °C 7,4 °C 0,0 km/h (0 Bft)
15.10.2019 02:35 7,6 °C 91 % 1010,2 hPa 0,0 mm 0,0 km/h (0 Bft) S 169 ° 0 min 0,000 mm 0,0 UV-I 0 W/m² 6,2 °C 7,6 °C 0,0 km/h (0 Bft)
15.10.2019 02:36 7,6 °C 91 % 1010,3 hPa 0,0 mm 0,0 km/h (0 Bft) S 169 ° 0 min 0,000 mm 0,0 UV-I 0 W/m² 6,2 °C 7,6 °C 0,0 km/h (0 Bft)
15.10.2019 02:37 7,7 °C 90 % 1010,2 hPa 0,0 mm 0,0 km/h (0 Bft) S 169 ° 0 min 0,000 mm 0,0 UV-I 0 W/m² 6,2 °C 7,7 °C 0,0 km/h (0 Bft)
15.10.2019 02:38 7,7 °C 90 % 1010,3 hPa 0,0 mm 0,0 km/h (0 Bft) S 169 ° 0 min 0,000 mm 0,0 UV-I 0 W/m² 6,2 °C 7,7 °C 0,0 km/h (0 Bft)
15.10.2019 02:39 7,7 °C 90 % 1010,3 hPa 0,0 mm 0,0 km/h (0 Bft) S 169 ° 0 min 0,000 mm 0,0 UV-I 0 W/m² 6,2 °C 7,7 °C 0,0 km/h (0 Bft)
15.10.2019 02:40 7,8 °C 90 % 1010,3 hPa 0,0 mm 0,0 km/h (0 Bft) S 169 ° 0 min 0,000 mm 0,0 UV-I 0 W/m² 6,3 °C 7,8 °C 0,0 km/h (0 Bft)
15.10.2019 02:41 7,8 °C 90 % 1010,3 hPa 0,0 mm 0,0 km/h (0 Bft) S 169 ° 0 min 0,000 mm 0,0 UV-I 0 W/m² 6,3 °C 7,8 °C 0,0 km/h (0 Bft)
15.10.2019 02:42 7,9 °C 89 % 1010,3 hPa 0,0 mm 0,0 km/h (0 Bft) S 169 ° 0 min 0,000 mm 0,0 UV-I 0 W/m² 6,2 °C 7,9 °C 0,0 km/h (0 Bft)
15.10.2019 02:43 7,9 °C 89 % 1010,3 hPa 0,0 mm 0,0 km/h (0 Bft) S 169 ° 0 min 0,000 mm 0,0 UV-I 0 W/m² 6,2 °C 7,9 °C 0,0 km/h (0 Bft)
15.10.2019 02:44 7,9 °C 89 % 1010,3 hPa 0,0 mm 0,0 km/h (0 Bft) S 169 ° 0 min 0,000 mm 0,0 UV-I 0 W/m² 6,2 °C 7,9 °C 0,0 km/h (0 Bft)
15.10.2019 02:45 7,9 °C 89 % 1010,3 hPa 0,0 mm 0,0 km/h (0 Bft) S 169 ° 0 min 0,000 mm 0,0 UV-I 0 W/m² 6,2 °C 7,9 °C 0,0 km/h (0 Bft)
15.10.2019 02:46 7,9 °C 89 % 1010,3 hPa 0,0 mm 0,0 km/h (0 Bft) S 169 ° 0 min 0,000 mm 0,0 UV-I 0 W/m² 6,2 °C 7,9 °C 0,0 km/h (0 Bft)
15.10.2019 02:47 7,8 °C 89 % 1010,3 hPa 0,0 mm 0,0 km/h (0 Bft) S 169 ° 0 min 0,000 mm 0,0 UV-I 0 W/m² 6,1 °C 7,8 °C 0,0 km/h (0 Bft)
15.10.2019 02:48 7,8 °C 90 % 1010,3 hPa 0,0 mm 0,0 km/h (0 Bft) S 169 ° 0 min 0,000 mm 0,0 UV-I 0 W/m² 6,3 °C 7,8 °C 0,0 km/h (0 Bft)
15.10.2019 02:49 7,8 °C 90 % 1010,3 hPa 0,0 mm 0,0 km/h (0 Bft) S 169 ° 0 min 0,000 mm 0,0 UV-I 0 W/m² 6,3 °C 7,8 °C 0,0 km/h (0 Bft)
15.10.2019 02:50 7,8 °C 90 % 1010,3 hPa 0,0 mm 0,0 km/h (0 Bft) S 169 ° 0 min 0,000 mm 0,0 UV-I 0 W/m² 6,3 °C 7,8 °C 0,0 km/h (0 Bft)
15.10.2019 02:51 7,8 °C 89 % 1010,2 hPa 0,0 mm 0,0 km/h (0 Bft) S 169 ° 0 min 0,000 mm 0,0 UV-I 0 W/m² 6,1 °C 7,8 °C 0,0 km/h (0 Bft)
15.10.2019 02:52 7,8 °C 89 % 1010,3 hPa 0,0 mm 0,0 km/h (0 Bft) S 169 ° 0 min 0,000 mm 0,0 UV-I 0 W/m² 6,1 °C 7,8 °C 0,0 km/h (0 Bft)
15.10.2019 02:53 7,7 °C 89 % 1010,3 hPa 0,0 mm 0,0 km/h (0 Bft) S 169 ° 0 min 0,000 mm 0,0 UV-I 0 W/m² 6,0 °C 7,7 °C 0,0 km/h (0 Bft)
15.10.2019 02:54 7,6 °C 89 % 1010,3 hPa 0,0 mm 0,0 km/h (0 Bft) S 169 ° 0 min 0,000 mm 0,0 UV-I 0 W/m² 5,9 °C 7,6 °C 0,0 km/h (0 Bft)
15.10.2019 02:55 7,5 °C 89 % 1010,3 hPa 0,0 mm 0,0 km/h (0 Bft) S 169 ° 0 min 0,000 mm 0,0 UV-I 0 W/m² 5,8 °C 7,5 °C 0,0 km/h (0 Bft)
15.10.2019 02:56 7,4 °C 89 % 1010,3 hPa 0,0 mm 0,0 km/h (0 Bft) S 169 ° 0 min 0,000 mm 0,0 UV-I 0 W/m² 5,7 °C 7,4 °C 0,0 km/h (0 Bft)
15.10.2019 02:57 7,4 °C 89 % 1010,3 hPa 0,0 mm 0,0 km/h (0 Bft) S 169 ° 0 min 0,000 mm 0,0 UV-I 0 W/m² 5,7 °C 7,4 °C 0,0 km/h (0 Bft)
15.10.2019 02:58 7,4 °C 90 % 1010,3 hPa 0,0 mm 0,0 km/h (0 Bft) S 169 ° 0 min 0,000 mm 0,0 UV-I 0 W/m² 5,9 °C 7,4 °C 0,0 km/h (0 Bft)
15.10.2019 02:59 7,4 °C 90 % 1010,3 hPa 0,0 mm 0,0 km/h (0 Bft) S 169 ° 0 min 0,000 mm 0,0 UV-I 0 W/m² 5,9 °C 7,4 °C 0,0 km/h (0 Bft)
15.10.2019 03:00 7,5 °C 90 % 1010,2 hPa 0,0 mm 0,0 km/h (0 Bft) S 169 ° 0 min 0,000 mm 0,0 UV-I 0 W/m² 6,0 °C 7,5 °C 0,0 km/h (0 Bft)
15.10.2019 03:01 7,6 °C 90 % 1010,2 hPa 0,0 mm 0,0 km/h (0 Bft) S 169 ° 0 min 0,000 mm 0,0 UV-I 0 W/m² 6,1 °C 7,6 °C 0,0 km/h (0 Bft)
15.10.2019 03:02 7,6 °C 90 % 1010,2 hPa 0,0 mm 0,0 km/h (0 Bft) S 169 ° 0 min 0,000 mm 0,0 UV-I 0 W/m² 6,1 °C 7,6 °C 0,0 km/h (0 Bft)
15.10.2019 03:03 7,6 °C 89 % 1010,1 hPa 0,0 mm 0,0 km/h (0 Bft) S 169 ° 0 min 0,000 mm 0,0 UV-I 0 W/m² 5,9 °C 7,6 °C 0,0 km/h (0 Bft)
15.10.2019 03:04 7,6 °C 89 % 1010,2 hPa 0,0 mm 0,0 km/h (0 Bft) S 169 ° 0 min 0,000 mm 0,0 UV-I 0 W/m² 5,9 °C 7,6 °C 0,0 km/h (0 Bft)
15.10.2019 03:05 7,4 °C 89 % 1010,2 hPa 0,0 mm 0,0 km/h (0 Bft) S 169 ° 0 min 0,000 mm 0,0 UV-I 0 W/m² 5,7 °C 7,4 °C 0,0 km/h (0 Bft)
15.10.2019 03:06 7,4 °C 89 % 1010,2 hPa 0,0 mm 0,0 km/h (0 Bft) S 169 ° 0 min 0,000 mm 0,0 UV-I 0 W/m² 5,7 °C 7,4 °C 0,0 km/h (0 Bft)
15.10.2019 03:07 7,4 °C 90 % 1010,2 hPa 0,0 mm 0,0 km/h (0 Bft) S 169 ° 0 min 0,000 mm 0,0 UV-I 0 W/m² 5,9 °C 7,4 °C 0,0 km/h (0 Bft)
15.10.2019 03:08 7,4 °C 90 % 1010,2 hPa 0,0 mm 0,0 km/h (0 Bft) S 169 ° 0 min 0,000 mm 0,0 UV-I 0 W/m² 5,9 °C 7,4 °C 0,0 km/h (0 Bft)
15.10.2019 03:09 7,4 °C 90 % 1010,2 hPa 0,0 mm 0,0 km/h (0 Bft) S 169 ° 0 min 0,000 mm 0,0 UV-I 0 W/m² 5,9 °C 7,4 °C 0,0 km/h (0 Bft)
15.10.2019 03:10 7,3 °C 90 % 1010,1 hPa 0,0 mm 0,0 km/h (0 Bft) S 169 ° 0 min 0,000 mm 0,0 UV-I 0 W/m² 5,8 °C 7,3 °C 0,0 km/h (0 Bft)
15.10.2019 03:11 7,3 °C 90 % 1010,2 hPa 0,0 mm 0,0 km/h (0 Bft) S 169 ° 0 min 0,000 mm 0,0 UV-I 0 W/m² 5,8 °C 7,3 °C 0,0 km/h (0 Bft)
15.10.2019 03:12 7,3 °C 89 % 1010,1 hPa 0,0 mm 0,0 km/h (0 Bft) S 169 ° 0 min 0,000 mm 0,0 UV-I 0 W/m² 5,6 °C 7,3 °C 0,0 km/h (0 Bft)
15.10.2019 03:13 7,2 °C 90 % 1010,1 hPa 0,0 mm 0,0 km/h (0 Bft) S 169 ° 0 min 0,000 mm 0,0 UV-I 0 W/m² 5,7 °C 7,2 °C 0,0 km/h (0 Bft)
15.10.2019 03:14 7,2 °C 90 % 1010,1 hPa 0,0 mm 0,0 km/h (0 Bft) S 169 ° 0 min 0,000 mm 0,0 UV-I 0 W/m² 5,7 °C 7,2 °C 0,0 km/h (0 Bft)
15.10.2019 03:15 7,2 °C 90 % 1010,1 hPa 0,0 mm 0,0 km/h (0 Bft) S 169 ° 0 min 0,000 mm 0,0 UV-I 0 W/m² 5,7 °C 7,2 °C 0,0 km/h (0 Bft)
15.10.2019 03:16 7,1 °C 90 % 1010,0 hPa 0,0 mm 0,0 km/h (0 Bft) S 169 ° 0 min 0,000 mm 0,0 UV-I 0 W/m² 5,6 °C 7,1 °C 0,0 km/h (0 Bft)
15.10.2019 03:17 7,1 °C 90 % 1010,0 hPa 0,0 mm 0,0 km/h (0 Bft) S 169 ° 0 min 0,000 mm 0,0 UV-I 0 W/m² 5,6 °C 7,1 °C 0,0 km/h (0 Bft)
15.10.2019 03:18 7,1 °C 90 % 1010,0 hPa 0,0 mm 0,0 km/h (0 Bft) S 169 ° 0 min 0,000 mm 0,0 UV-I 0 W/m² 5,6 °C 7,1 °C 0,0 km/h (0 Bft)
15.10.2019 03:19 7,2 °C 90 % 1010,0 hPa 0,0 mm 0,0 km/h (0 Bft) S 169 ° 0 min 0,000 mm 0,0 UV-I 0 W/m² 5,7 °C 7,2 °C 0,0 km/h (0 Bft)
15.10.2019 03:20 7,2 °C 90 % 1010,1 hPa 0,0 mm 0,0 km/h (0 Bft) S 169 ° 0 min 0,000 mm 0,0 UV-I 0 W/m² 5,7 °C 7,2 °C 0,0 km/h (0 Bft)
15.10.2019 03:21 7,2 °C 90 % 1010,1 hPa 0,0 mm 0,0 km/h (0 Bft) S 169 ° 0 min 0,000 mm 0,0 UV-I 0 W/m² 5,7 °C 7,2 °C 0,0 km/h (0 Bft)
15.10.2019 03:22 7,1 °C 90 % 1010,1 hPa 0,0 mm 0,0 km/h (0 Bft) S 169 ° 0 min 0,000 mm 0,0 UV-I 0 W/m² 5,6 °C 7,1 °C 0,0 km/h (0 Bft)
15.10.2019 03:23 7,0 °C 89 % 1010,1 hPa 0,0 mm 0,0 km/h (0 Bft) S 169 ° 0 min 0,000 mm 0,0 UV-I 0 W/m² 5,3 °C 7,0 °C 0,0 km/h (0 Bft)
15.10.2019 03:24 6,9 °C 89 % 1010,1 hPa 0,0 mm 0,0 km/h (0 Bft) S 169 ° 0 min 0,000 mm 0,0 UV-I 0 W/m² 5,2 °C 6,9 °C 0,0 km/h (0 Bft)
15.10.2019 03:25 6,8 °C 90 % 1010,1 hPa 0,0 mm 0,0 km/h (0 Bft) S 169 ° 0 min 0,000 mm 0,0 UV-I 0 W/m² 5,3 °C 6,8 °C 0,0 km/h (0 Bft)
15.10.2019 03:26 6,8 °C 90 % 1010,1 hPa 0,0 mm 0,0 km/h (0 Bft) S 169 ° 0 min 0,000 mm 0,0 UV-I 0 W/m² 5,3 °C 6,8 °C 0,0 km/h (0 Bft)
15.10.2019 03:27 6,9 °C 90 % 1010,1 hPa 0,0 mm 0,0 km/h (0 Bft) S 169 ° 0 min 0,000 mm 0,0 UV-I 0 W/m² 5,4 °C 6,9 °C 0,0 km/h (0 Bft)
15.10.2019 03:28 6,9 °C 90 % 1010,0 hPa 0,0 mm 0,0 km/h (0 Bft) S 169 ° 0 min 0,000 mm 0,0 UV-I 0 W/m² 5,4 °C 6,9 °C 0,0 km/h (0 Bft)
15.10.2019 03:29 6,9 °C 90 % 1010,0 hPa 0,0 mm 0,0 km/h (0 Bft) S 169 ° 0 min 0,000 mm 0,0 UV-I 0 W/m² 5,4 °C 6,9 °C 0,0 km/h (0 Bft)
15.10.2019 03:30 6,9 °C 90 % 1010,0 hPa 0,0 mm 0,0 km/h (0 Bft) S 169 ° 0 min 0,000 mm 0,0 UV-I 0 W/m² 5,4 °C 6,9 °C 0,0 km/h (0 Bft)
15.10.2019 03:31 6,9 °C 90 % 1010,1 hPa 0,0 mm 0,0 km/h (0 Bft) S 169 ° 0 min 0,000 mm 0,0 UV-I 0 W/m² 5,4 °C 6,9 °C 0,0 km/h (0 Bft)
15.10.2019 03:32 6,8 °C 90 % 1010,0 hPa 0,0 mm 0,0 km/h (0 Bft) S 169 ° 0 min 0,000 mm 0,0 UV-I 0 W/m² 5,3 °C 6,8 °C 0,0 km/h (0 Bft)
15.10.2019 03:33 6,8 °C 90 % 1010,0 hPa 0,0 mm 0,0 km/h (0 Bft) S 169 ° 0 min 0,000 mm 0,0 UV-I 0 W/m² 5,3 °C 6,8 °C 0,0 km/h (0 Bft)
15.10.2019 03:34 6,8 °C 90 % 1010,0 hPa 0,0 mm 0,0 km/h (0 Bft) S 169 ° 0 min 0,000 mm 0,0 UV-I 0 W/m² 5,3 °C 6,8 °C 0,0 km/h (0 Bft)
15.10.2019 03:35 6,8 °C 90 % 1010,0 hPa 0,0 mm 0,0 km/h (0 Bft) S 169 ° 0 min 0,000 mm 0,0 UV-I 0 W/m² 5,3 °C 6,8 °C 0,0 km/h (0 Bft)
15.10.2019 03:36 6,7 °C 90 % 1010,0 hPa 0,0 mm 0,0 km/h (0 Bft) S 169 ° 0 min 0,000 mm 0,0 UV-I 0 W/m² 5,2 °C 6,7 °C 0,0 km/h (0 Bft)
15.10.2019 03:37 6,6 °C 90 % 1010,0 hPa 0,0 mm 0,0 km/h (0 Bft) S 169 ° 0 min 0,000 mm 0,0 UV-I 0 W/m² 5,1 °C 6,6 °C 0,0 km/h (0 Bft)
15.10.2019 03:38 6,6 °C 90 % 1010,0 hPa 0,0 mm 0,0 km/h (0 Bft) S 169 ° 0 min 0,000 mm 0,0 UV-I 0 W/m² 5,1 °C 6,6 °C 0,0 km/h (0 Bft)
15.10.2019 03:39 6,5 °C 90 % 1010,0 hPa 0,0 mm 0,0 km/h (0 Bft) S 169 ° 0 min 0,000 mm 0,0 UV-I 0 W/m² 5,0 °C 6,5 °C 0,0 km/h (0 Bft)
15.10.2019 03:40 6,5 °C 90 % 1010,0 hPa 0,0 mm 0,0 km/h (0 Bft) S 169 ° 0 min 0,000 mm 0,0 UV-I 0 W/m² 5,0 °C 6,5 °C 0,0 km/h (0 Bft)
15.10.2019 03:41 6,4 °C 91 % 1010,0 hPa 0,0 mm 0,0 km/h (0 Bft) S 169 ° 0 min 0,000 mm 0,0 UV-I 0 W/m² 5,0 °C 6,4 °C 0,0 km/h (0 Bft)
15.10.2019 03:42 6,4 °C 91 % 1009,9 hPa 0,0 mm 0,0 km/h (0 Bft) S 169 ° 0 min 0,000 mm 0,0 UV-I 0 W/m² 5,0 °C 6,4 °C 0,0 km/h (0 Bft)
15.10.2019 03:43 6,5 °C 91 % 1009,9 hPa 0,0 mm 0,0 km/h (0 Bft) S 169 ° 0 min 0,000 mm 0,0 UV-I 0 W/m² 5,1 °C 6,5 °C 0,0 km/h (0 Bft)
15.10.2019 03:44 6,6 °C 91 % 1010,0 hPa 0,0 mm 0,0 km/h (0 Bft) S 169 ° 0 min 0,000 mm 0,0 UV-I 0 W/m² 5,2 °C 6,6 °C 0,0 km/h (0 Bft)
15.10.2019 03:45 6,6 °C 91 % 1009,9 hPa 0,0 mm 0,0 km/h (0 Bft) S 169 ° 0 min 0,000 mm 0,0 UV-I 0 W/m² 5,2 °C 6,6 °C 0,0 km/h (0 Bft)
15.10.2019 03:46 6,5 °C 91 % 1010,0 hPa 0,0 mm 0,0 km/h (0 Bft) S 169 ° 0 min 0,000 mm 0,0 UV-I 0 W/m² 5,1 °C 6,5 °C 0,0 km/h (0 Bft)
15.10.2019 03:47 6,4 °C 91 % 1009,9 hPa 0,0 mm 0,0 km/h (0 Bft) S 169 ° 0 min 0,000 mm 0,0 UV-I 0 W/m² 5,0 °C 6,4 °C 0,0 km/h (0 Bft)
15.10.2019 03:48 6,4 °C 91 % 1009,9 hPa 0,0 mm 0,0 km/h (0 Bft) S 169 ° 0 min 0,000 mm 0,0 UV-I 0 W/m² 5,0 °C 6,4 °C 0,0 km/h (0 Bft)
15.10.2019 03:49 6,4 °C 91 % 1009,9 hPa 0,0 mm 0,0 km/h (0 Bft) S 169 ° 0 min 0,000 mm 0,0 UV-I 0 W/m² 5,0 °C 6,4 °C 0,0 km/h (0 Bft)
15.10.2019 03:50 6,4 °C 91 % 1009,8 hPa 0,0 mm 0,0 km/h (0 Bft) S 169 ° 0 min 0,000 mm 0,0 UV-I 0 W/m² 5,0 °C 6,4 °C 0,0 km/h (0 Bft)
15.10.2019 03:51 6,3 °C 91 % 1009,9 hPa 0,0 mm 0,0 km/h (0 Bft) S 169 ° 0 min 0,000 mm 0,0 UV-I 0 W/m² 4,9 °C 6,3 °C 0,0 km/h (0 Bft)
15.10.2019 03:52 6,3 °C 91 % 1009,9 hPa 0,0 mm 0,0 km/h (0 Bft) S 169 ° 0 min 0,000 mm 0,0 UV-I 0 W/m² 4,9 °C 6,3 °C 0,0 km/h (0 Bft)
15.10.2019 03:53 6,3 °C 91 % 1009,9 hPa 0,0 mm 0,0 km/h (0 Bft) S 169 ° 0 min 0,000 mm 0,0 UV-I 0 W/m² 4,9 °C 6,3 °C 0,0 km/h (0 Bft)
15.10.2019 03:54 6,3 °C 91 % 1009,9 hPa 0,0 mm 0,0 km/h (0 Bft) S 169 ° 0 min 0,000 mm 0,0 UV-I 0 W/m² 4,9 °C 6,3 °C 0,0 km/h (0 Bft)
15.10.2019 03:55 6,4 °C 92 % 1009,9 hPa 0,0 mm 0,0 km/h (0 Bft) S 169 ° 0 min 0,000 mm 0,0 UV-I 0 W/m² 5,2 °C 6,4 °C 0,0 km/h (0 Bft)
15.10.2019 03:56 6,4 °C 92 % 1009,9 hPa 0,0 mm 0,0 km/h (0 Bft) S 169 ° 0 min 0,000 mm 0,0 UV-I 0 W/m² 5,2 °C 6,4 °C 0,0 km/h (0 Bft)
15.10.2019 03:57 6,4 °C 91 % 1009,9 hPa 0,0 mm 0,0 km/h (0 Bft) S 169 ° 0 min 0,000 mm 0,0 UV-I 0 W/m² 5,0 °C 6,4 °C 0,0 km/h (0 Bft)
15.10.2019 03:58 6,4 °C 91 % 1009,9 hPa 0,0 mm 0,0 km/h (0 Bft) S 169 ° 0 min 0,000 mm 0,0 UV-I 0 W/m² 5,0 °C 6,4 °C 0,0 km/h (0 Bft)
15.10.2019 03:59 6,4 °C 91 % 1009,9 hPa 0,0 mm 0,0 km/h (0 Bft) S 169 ° 0 min 0,000 mm 0,0 UV-I 0 W/m² 5,0 °C 6,4 °C 0,0 km/h (0 Bft)
15.10.2019 04:00 6,3 °C 91 % 1009,9 hPa 0,0 mm 0,0 km/h (0 Bft) S 169 ° 0 min 0,000 mm 0,0 UV-I 0 W/m² 4,9 °C 6,3 °C 0,0 km/h (0 Bft)
15.10.2019 04:01 6,4 °C 91 % 1009,8 hPa 0,0 mm 0,0 km/h (0 Bft) S 169 ° 0 min 0,000 mm 0,0 UV-I 0 W/m² 5,0 °C 6,4 °C 0,0 km/h (0 Bft)
15.10.2019 04:02 6,6 °C 92 % 1009,8 hPa 0,0 mm 0,0 km/h (0 Bft) S 169 ° 0 min 0,000 mm 0,0 UV-I 0 W/m² 5,4 °C 6,6 °C 0,0 km/h (0 Bft)
15.10.2019 04:03 6,7 °C 92 % 1009,8 hPa 0,0 mm 0,0 km/h (0 Bft) S 169 ° 0 min 0,000 mm 0,0 UV-I 0 W/m² 5,5 °C 6,7 °C 0,0 km/h (0 Bft)
15.10.2019 04:04 6,7 °C 91 % 1009,7 hPa 0,0 mm 0,0 km/h (0 Bft) S 169 ° 0 min 0,000 mm 0,0 UV-I 0 W/m² 5,3 °C 6,7 °C 0,0 km/h (0 Bft)
15.10.2019 04:05 6,9 °C 91 % 1009,7 hPa 0,0 mm 0,0 km/h (0 Bft) S 169 ° 0 min 0,000 mm 0,0 UV-I 0 W/m² 5,5 °C 6,9 °C 0,0 km/h (0 Bft)
15.10.2019 04:06 7,1 °C 91 % 1009,6 hPa 0,0 mm 0,0 km/h (0 Bft) S 169 ° 0 min 0,000 mm 0,0 UV-I 0 W/m² 5,7 °C 7,1 °C 0,0 km/h (0 Bft)
15.10.2019 04:07 7,2 °C 91 % 1009,6 hPa 0,0 mm 0,0 km/h (0 Bft) S 169 ° 0 min 0,000 mm 0,0 UV-I 0 W/m² 5,8 °C 7,2 °C 0,0 km/h (0 Bft)
15.10.2019 04:08 7,1 °C 90 % 1009,6 hPa 0,0 mm 0,0 km/h (0 Bft) S 169 ° 0 min 0,000 mm 0,0 UV-I 0 W/m² 5,6 °C 7,1 °C 0,0 km/h (0 Bft)
15.10.2019 04:09 6,9 °C 89 % 1009,6 hPa 0,0 mm 0,0 km/h (0 Bft) S 169 ° 0 min 0,000 mm 0,0 UV-I 0 W/m² 5,2 °C 6,9 °C 0,0 km/h (0 Bft)
15.10.2019 04:10 6,8 °C 89 % 1009,6 hPa 0,0 mm 0,0 km/h (0 Bft) S 169 ° 0 min 0,000 mm 0,0 UV-I 0 W/m² 5,1 °C 6,8 °C 0,0 km/h (0 Bft)
15.10.2019 04:11 6,8 °C 90 % 1009,6 hPa 0,0 mm 0,0 km/h (0 Bft) S 169 ° 0 min 0,000 mm 0,0 UV-I 0 W/m² 5,3 °C 6,8 °C 0,0 km/h (0 Bft)
15.10.2019 04:12 6,8 °C 90 % 1009,6 hPa 0,0 mm 0,0 km/h (0 Bft) S 169 ° 0 min 0,000 mm 0,0 UV-I 0 W/m² 5,3 °C 6,8 °C 0,0 km/h (0 Bft)
15.10.2019 04:13 6,8 °C 90 % 1009,5 hPa 0,0 mm 1,7 km/h (1 Bft) S 169 ° 0 min 0,000 mm 0,0 UV-I 0 W/m² 5,3 °C 6,8 °C 3,2 km/h (1 Bft)
15.10.2019 04:14 6,8 °C 90 % 1009,6 hPa 0,0 mm 0,5 km/h (0 Bft) S 169 ° 0 min 0,000 mm 0,0 UV-I 0 W/m² 5,3 °C 6,8 °C 1,6 km/h (1 Bft)
15.10.2019 04:15 6,7 °C 89 % 1009,6 hPa 0,0 mm 0,0 km/h (0 Bft) S 169 ° 0 min 0,000 mm 0,0 UV-I 0 W/m² 5,0 °C 6,7 °C 0,0 km/h (0 Bft)
15.10.2019 04:16 6,6 °C 89 % 1009,6 hPa 0,0 mm 0,0 km/h (0 Bft) S 169 ° 0 min 0,000 mm 0,0 UV-I 0 W/m² 4,9 °C 6,6 °C 0,0 km/h (0 Bft)
15.10.2019 04:17 6,4 °C 90 % 1009,6 hPa 0,0 mm 0,0 km/h (0 Bft) S 169 ° 0 min 0,000 mm 0,0 UV-I 0 W/m² 4,9 °C 6,4 °C 0,0 km/h (0 Bft)
15.10.2019 04:18 6,3 °C 90 % 1009,6 hPa 0,0 mm 0,0 km/h (0 Bft) S 169 ° 0 min 0,000 mm 0,0 UV-I 0 W/m² 4,8 °C 6,3 °C 0,0 km/h (0 Bft)
15.10.2019 04:19 6,3 °C 90 % 1009,5 hPa 0,0 mm 0,0 km/h (0 Bft) S 169 ° 0 min 0,000 mm 0,0 UV-I 0 W/m² 4,8 °C 6,3 °C 0,0 km/h (0 Bft)
15.10.2019 04:20 6,4 °C 91 % 1009,6 hPa 0,0 mm 0,0 km/h (0 Bft) S 169 ° 0 min 0,000 mm 0,0 UV-I 0 W/m² 5,0 °C 6,4 °C 0,0 km/h (0 Bft)
15.10.2019 04:21 6,4 °C 91 % 1009,5 hPa 0,0 mm 0,0 km/h (0 Bft) S 169 ° 0 min 0,000 mm 0,0 UV-I 0 W/m² 5,0 °C 6,4 °C 0,0 km/h (0 Bft)
15.10.2019 04:22 6,3 °C 91 % 1009,5 hPa 0,0 mm 0,0 km/h (0 Bft) S 169 ° 0 min 0,000 mm 0,0 UV-I 0 W/m² 4,9 °C 6,3 °C 0,0 km/h (0 Bft)
15.10.2019 04:23 6,3 °C 91 % 1009,5 hPa 0,0 mm 0,0 km/h (0 Bft) S 169 ° 0 min 0,000 mm 0,0 UV-I 0 W/m² 4,9 °C 6,3 °C 0,0 km/h (0 Bft)
15.10.2019 04:24 6,3 °C 91 % 1009,5 hPa 0,0 mm 0,0 km/h (0 Bft) S 169 ° 0 min 0,000 mm 0,0 UV-I 0 W/m² 4,9 °C 6,3 °C 0,0 km/h (0 Bft)
15.10.2019 04:25 6,3 °C 91 % 1009,6 hPa 0,0 mm 0,0 km/h (0 Bft) S 169 ° 0 min 0,000 mm 0,0 UV-I 0 W/m² 4,9 °C 6,3 °C 0,0 km/h (0 Bft)
15.10.2019 04:26 6,3 °C 91 % 1009,6 hPa 0,0 mm 3,2 km/h (1 Bft) S 169 ° 0 min 0,000 mm 0,0 UV-I 0 W/m² 4,9 °C 6,3 °C 6,4 km/h (2 Bft)
15.10.2019 04:27 6,3 °C 91 % 1009,6 hPa 0,0 mm 3,8 km/h (1 Bft) S-SW 211 ° 0 min 0,000 mm 0,0 UV-I 0 W/m² 4,9 °C 6,3 °C 6,4 km/h (2 Bft)
15.10.2019 04:28 6,3 °C 91 % 1009,6 hPa 0,0 mm 0,3 km/h (0 Bft) S-SW 211 ° 0 min 0,000 mm 0,0 UV-I 0 W/m² 4,9 °C 6,3 °C 1,6 km/h (1 Bft)
15.10.2019 04:29 6,3 °C 91 % 1009,6 hPa 0,0 mm 0,0 km/h (0 Bft) S-SW 211 ° 0 min 0,000 mm 0,0 UV-I 0 W/m² 4,9 °C 6,3 °C 0,0 km/h (0 Bft)
15.10.2019 04:30 6,2 °C 91 % 1009,6 hPa 0,0 mm 0,0 km/h (0 Bft) S-SW 211 ° 0 min 0,000 mm 0,0 UV-I 0 W/m² 4,8 °C 6,2 °C 0,0 km/h (0 Bft)
15.10.2019 04:31 6,2 °C 91 % 1009,6 hPa 0,0 mm 0,0 km/h (0 Bft) S-SW 211 ° 0 min 0,000 mm 0,0 UV-I 0 W/m² 4,8 °C 6,2 °C 0,0 km/h (0 Bft)
15.10.2019 04:32 6,1 °C 90 % 1009,6 hPa 0,0 mm 0,0 km/h (0 Bft) S-SW 211 ° 0 min 0,000 mm 0,0 UV-I 0 W/m² 4,6 °C 6,1 °C 0,0 km/h (0 Bft)
15.10.2019 04:33 6,0 °C 91 % 1009,6 hPa 0,0 mm 0,0 km/h (0 Bft) S-SW 211 ° 0 min 0,000 mm 0,0 UV-I 0 W/m² 4,6 °C 6,0 °C 0,0 km/h (0 Bft)
15.10.2019 04:34 6,0 °C 91 % 1009,6 hPa 0,0 mm 0,0 km/h (0 Bft) S-SW 211 ° 0 min 0,000 mm 0,0 UV-I 0 W/m² 4,6 °C 6,0 °C 0,0 km/h (0 Bft)
15.10.2019 04:35 6,0 °C 91 % 1009,6 hPa 0,0 mm 0,0 km/h (0 Bft) S-SW 211 ° 0 min 0,000 mm 0,0 UV-I 0 W/m² 4,6 °C 6,0 °C 0,0 km/h (0 Bft)
15.10.2019 04:36 6,1 °C 91 % 1009,6 hPa 0,0 mm 0,0 km/h (0 Bft) S-SW 211 ° 0 min 0,000 mm 0,0 UV-I 0 W/m² 4,7 °C 6,1 °C 0,0 km/h (0 Bft)
15.10.2019 04:37 6,1 °C 92 % 1009,5 hPa 0,0 mm 0,0 km/h (0 Bft) S-SW 211 ° 0 min 0,000 mm 0,0 UV-I 0 W/m² 4,9 °C 6,1 °C 0,0 km/h (0 Bft)
15.10.2019 04:38 6,1 °C 92 % 1009,5 hPa 0,0 mm 0,0 km/h (0 Bft) S-SW 211 ° 0 min 0,000 mm 0,0 UV-I 0 W/m² 4,9 °C 6,1 °C 0,0 km/h (0 Bft)
15.10.2019 04:39 6,2 °C 92 % 1009,5 hPa 0,0 mm 0,0 km/h (0 Bft) S-SW 211 ° 0 min 0,000 mm 0,0 UV-I 0 W/m² 5,0 °C 6,2 °C 0,0 km/h (0 Bft)
15.10.2019 04:40 6,2 °C 92 % 1009,5 hPa 0,0 mm 0,0 km/h (0 Bft) S-SW 211 ° 0 min 0,000 mm 0,0 UV-I 0 W/m² 5,0 °C 6,2 °C 0,0 km/h (0 Bft)
15.10.2019 04:41 6,3 °C 91 % 1009,5 hPa 0,0 mm 0,7 km/h (0 Bft) S-SW 211 ° 0 min 0,000 mm 0,0 UV-I 0 W/m² 4,9 °C 6,3 °C 1,6 km/h (1 Bft)
15.10.2019 04:42 6,3 °C 91 % 1009,4 hPa 0,0 mm 1,5 km/h (1 Bft) S-SW 211 ° 0 min 0,000 mm 0,0 UV-I 0 W/m² 4,9 °C 6,3 °C 3,2 km/h (1 Bft)
15.10.2019 04:43 6,3 °C 92 % 1009,4 hPa 0,0 mm 1,4 km/h (1 Bft) S-SW 211 ° 0 min 0,000 mm 0,0 UV-I 0 W/m² 5,1 °C 6,3 °C 3,2 km/h (1 Bft)
15.10.2019 04:44 6,3 °C 91 % 1009,4 hPa 0,0 mm 0,0 km/h (0 Bft) S-SW 211 ° 0 min 0,000 mm 0,0 UV-I 0 W/m² 4,9 °C 6,3 °C 0,0 km/h (0 Bft)
15.10.2019 04:45 6,3 °C 91 % 1009,4 hPa 0,0 mm 0,0 km/h (0 Bft) S-SW 211 ° 0 min 0,000 mm 0,0 UV-I 0 W/m² 4,9 °C 6,3 °C 0,0 km/h (0 Bft)
15.10.2019 04:46 6,3 °C 91 % 1009,3 hPa 0,0 mm 0,0 km/h (0 Bft) S-SW 211 ° 0 min 0,000 mm 0,0 UV-I 0 W/m² 4,9 °C 6,3 °C 0,0 km/h (0 Bft)
15.10.2019 04:47 6,3 °C 91 % 1009,3 hPa 0,0 mm 0,0 km/h (0 Bft) S-SW 211 ° 0 min 0,000 mm 0,0 UV-I 0 W/m² 4,9 °C 6,3 °C 0,0 km/h (0 Bft)
15.10.2019 04:48 6,3 °C 91 % 1009,3 hPa 0,0 mm 0,0 km/h (0 Bft) S-SW 211 ° 0 min 0,000 mm 0,0 UV-I 0 W/m² 4,9 °C 6,3 °C 0,0 km/h (0 Bft)
15.10.2019 04:49 6,3 °C 91 % 1009,3 hPa 0,0 mm 0,0 km/h (0 Bft) S-SW 211 ° 0 min 0,000 mm 0,0 UV-I 0 W/m² 4,9 °C 6,3 °C 0,0 km/h (0 Bft)
15.10.2019 04:50 6,2 °C 91 % 1009,3 hPa 0,0 mm 0,0 km/h (0 Bft) S-SW 211 ° 0 min 0,000 mm 0,0 UV-I 0 W/m² 4,8 °C 6,2 °C 0,0 km/h (0 Bft)
15.10.2019 04:51 6,2 °C 91 % 1009,4 hPa 0,0 mm 0,0 km/h (0 Bft) S-SW 211 ° 0 min 0,000 mm 0,0 UV-I 0 W/m² 4,8 °C 6,2 °C 0,0 km/h (0 Bft)
15.10.2019 04:52 6,2 °C 92 % 1009,4 hPa 0,0 mm 0,0 km/h (0 Bft) S-SW 211 ° 0 min 0,000 mm 0,0 UV-I 0 W/m² 5,0 °C 6,2 °C 0,0 km/h (0 Bft)
15.10.2019 04:53 6,3 °C 92 % 1009,4 hPa 0,0 mm 0,0 km/h (0 Bft) S-SW 211 ° 0 min 0,000 mm 0,0 UV-I 0 W/m² 5,1 °C 6,3 °C 0,0 km/h (0 Bft)
15.10.2019 04:54 6,3 °C 91 % 1009,4 hPa 0,0 mm 0,0 km/h (0 Bft) S-SW 211 ° 0 min 0,000 mm 0,0 UV-I 0 W/m² 4,9 °C 6,3 °C 0,0 km/h (0 Bft)
15.10.2019 04:55 6,3 °C 91 % 1009,4 hPa 0,0 mm 0,0 km/h (0 Bft) S-SW 211 ° 0 min 0,000 mm 0,0 UV-I 0 W/m² 4,9 °C 6,3 °C 0,0 km/h (0 Bft)
15.10.2019 04:56 6,3 °C 91 % 1009,3 hPa 0,0 mm 0,0 km/h (0 Bft) S-SW 211 ° 0 min 0,000 mm 0,0 UV-I 0 W/m² 4,9 °C 6,3 °C 0,0 km/h (0 Bft)
15.10.2019 04:57 6,4 °C 91 % 1009,3 hPa 0,0 mm 0,0 km/h (0 Bft) S-SW 211 ° 0 min 0,000 mm 0,0 UV-I 0 W/m² 5,0 °C 6,4 °C 0,0 km/h (0 Bft)
15.10.2019 04:58 6,4 °C 92 % 1009,3 hPa 0,0 mm 0,0 km/h (0 Bft) S-SW 211 ° 0 min 0,000 mm 0,0 UV-I 0 W/m² 5,2 °C 6,4 °C 0,0 km/h (0 Bft)
15.10.2019 04:59 6,6 °C 92 % 1009,3 hPa 0,0 mm 0,0 km/h (0 Bft) S-SW 211 ° 0 min 0,000 mm 0,0 UV-I 0 W/m² 5,4 °C 6,6 °C 0,0 km/h (0 Bft)
15.10.2019 05:00 6,7 °C 91 % 1009,2 hPa 0,0 mm 0,0 km/h (0 Bft) S-SW 211 ° 0 min 0,000 mm 0,0 UV-I 0 W/m² 5,3 °C 6,7 °C 0,0 km/h (0 Bft)
15.10.2019 05:01 6,6 °C 91 % 1009,2 hPa 0,0 mm 0,0 km/h (0 Bft) S-SW 211 ° 0 min 0,000 mm 0,0 UV-I 0 W/m² 5,2 °C 6,6 °C 0,0 km/h (0 Bft)
15.10.2019 05:02 6,6 °C 91 % 1009,2 hPa 0,0 mm 0,0 km/h (0 Bft) S-SW 211 ° 0 min 0,000 mm 0,0 UV-I 0 W/m² 5,2 °C 6,6 °C 0,0 km/h (0 Bft)
15.10.2019 05:03 6,5 °C 90 % 1009,2 hPa 0,0 mm 0,0 km/h (0 Bft) S-SW 211 ° 0 min 0,000 mm 0,0 UV-I 0 W/m² 5,0 °C 6,5 °C 0,0 km/h (0 Bft)
15.10.2019 05:04 6,4 °C 90 % 1009,2 hPa 0,0 mm 0,0 km/h (0 Bft) S-SW 211 ° 0 min 0,000 mm 0,0 UV-I 0 W/m² 4,9 °C 6,4 °C 0,0 km/h (0 Bft)
15.10.2019 05:05 6,3 °C 90 % 1009,2 hPa 0,0 mm 0,0 km/h (0 Bft) S-SW 211 ° 0 min 0,000 mm 0,0 UV-I 0 W/m² 4,8 °C 6,3 °C 0,0 km/h (0 Bft)
15.10.2019 05:06 6,3 °C 90 % 1009,2 hPa 0,0 mm 0,0 km/h (0 Bft) S-SW 211 ° 0 min 0,000 mm 0,0 UV-I 0 W/m² 4,8 °C 6,3 °C 0,0 km/h (0 Bft)
15.10.2019 05:07 6,3 °C 91 % 1009,2 hPa 0,0 mm 0,0 km/h (0 Bft) S-SW 211 ° 0 min 0,000 mm 0,0 UV-I 0 W/m² 4,9 °C 6,3 °C 0,0 km/h (0 Bft)
15.10.2019 05:08 6,3 °C 91 % 1009,2 hPa 0,0 mm 0,0 km/h (0 Bft) S-SW 211 ° 0 min 0,000 mm 0,0 UV-I 0 W/m² 4,9 °C 6,3 °C 0,0 km/h (0 Bft)
15.10.2019 05:09 6,3 °C 90 % 1009,2 hPa 0,0 mm 0,0 km/h (0 Bft) S-SW 211 ° 0 min 0,000 mm 0,0 UV-I 0 W/m² 4,8 °C 6,3 °C 0,0 km/h (0 Bft)
15.10.2019 05:10 6,2 °C 90 % 1009,2 hPa 0,0 mm 0,0 km/h (0 Bft) S-SW 211 ° 0 min 0,000 mm 0,0 UV-I 0 W/m² 4,7 °C 6,2 °C 0,0 km/h (0 Bft)
15.10.2019 05:11 6,2 °C 90 % 1009,2 hPa 0,0 mm 0,0 km/h (0 Bft) S-SW 211 ° 0 min 0,000 mm 0,0 UV-I 0 W/m² 4,7 °C 6,2 °C 0,0 km/h (0 Bft)
15.10.2019 05:12 6,2 °C 90 % 1009,2 hPa 0,0 mm 0,0 km/h (0 Bft) S-SW 211 ° 0 min 0,000 mm 0,0 UV-I 0 W/m² 4,7 °C 6,2 °C 0,0 km/h (0 Bft)
15.10.2019 05:13 6,1 °C 90 % 1009,2 hPa 0,0 mm 0,0 km/h (0 Bft) S-SW 211 ° 0 min 0,000 mm 0,0 UV-I 0 W/m² 4,6 °C 6,1 °C 0,0 km/h (0 Bft)
15.10.2019 05:14 6,1 °C 90 % 1009,1 hPa 0,0 mm 0,0 km/h (0 Bft) S-SW 211 ° 0 min 0,000 mm 0,0 UV-I 0 W/m² 4,6 °C 6,1 °C 0,0 km/h (0 Bft)
15.10.2019 05:15 6,1 °C 90 % 1009,1 hPa 0,0 mm 0,0 km/h (0 Bft) S-SW 211 ° 0 min 0,000 mm 0,0 UV-I 0 W/m² 4,6 °C 6,1 °C 0,0 km/h (0 Bft)
15.10.2019 05:16 6,0 °C 90 % 1009,1 hPa 0,0 mm 0,0 km/h (0 Bft) S-SW 211 ° 0 min 0,000 mm 0,0 UV-I 0 W/m² 4,5 °C 6,0 °C 0,0 km/h (0 Bft)
15.10.2019 05:17 6,0 °C 91 % 1009,0 hPa 0,0 mm 0,0 km/h (0 Bft) S-SW 211 ° 0 min 0,000 mm 0,0 UV-I 0 W/m² 4,6 °C 6,0 °C 0,0 km/h (0 Bft)
15.10.2019 05:18 6,0 °C 91 % 1009,0 hPa 0,0 mm 0,0 km/h (0 Bft) S-SW 211 ° 0 min 0,000 mm 0,0 UV-I 0 W/m² 4,6 °C 6,0 °C 0,0 km/h (0 Bft)
15.10.2019 05:19 5,9 °C 91 % 1009,0 hPa 0,0 mm 0,0 km/h (0 Bft) S-SW 211 ° 0 min 0,000 mm 0,0 UV-I 0 W/m² 4,5 °C 5,9 °C 0,0 km/h (0 Bft)
15.10.2019 05:20 5,9 °C 90 % 1009,1 hPa 0,0 mm 0,0 km/h (0 Bft) S-SW 211 ° 0 min 0,000 mm 0,0 UV-I 0 W/m² 4,4 °C 5,9 °C 0,0 km/h (0 Bft)
15.10.2019 05:21 5,8 °C 90 % 1009,1 hPa 0,0 mm 0,0 km/h (0 Bft) S-SW 211 ° 0 min 0,000 mm 0,0 UV-I 0 W/m² 4,3 °C 5,8 °C 0,0 km/h (0 Bft)
15.10.2019 05:22 5,7 °C 90 % 1009,1 hPa 0,0 mm 0,0 km/h (0 Bft) S-SW 211 ° 0 min 0,000 mm 0,0 UV-I 0 W/m² 4,2 °C 5,7 °C 0,0 km/h (0 Bft)
15.10.2019 05:23 5,6 °C 90 % 1009,1 hPa 0,0 mm 0,0 km/h (0 Bft) S-SW 211 ° 0 min 0,000 mm 0,0 UV-I 0 W/m² 4,1 °C 5,6 °C 0,0 km/h (0 Bft)
15.10.2019 05:24 5,6 °C 91 % 1009,0 hPa 0,0 mm 0,0 km/h (0 Bft) S-SW 211 ° 0 min 0,000 mm 0,0 UV-I 0 W/m² 4,2 °C 5,6 °C 0,0 km/h (0 Bft)
15.10.2019 05:25 5,6 °C 91 % 1009,1 hPa 0,0 mm 0,0 km/h (0 Bft) S-SW 211 ° 0 min 0,000 mm 0,0 UV-I 0 W/m² 4,2 °C 5,6 °C 0,0 km/h (0 Bft)
15.10.2019 05:26 5,6 °C 91 % 1009,0 hPa 0,0 mm 0,0 km/h (0 Bft) S-SW 211 ° 0 min 0,000 mm 0,0 UV-I 0 W/m² 4,2 °C 5,6 °C 0,0 km/h (0 Bft)
15.10.2019 05:27 5,7 °C 92 % 1009,0 hPa 0,0 mm 0,0 km/h (0 Bft) S-SW 211 ° 0 min 0,000 mm 0,0 UV-I 0 W/m² 4,5 °C 5,7 °C 0,0 km/h (0 Bft)
15.10.2019 05:28 5,8 °C 92 % 1008,9 hPa 0,0 mm 0,0 km/h (0 Bft) S-SW 211 ° 0 min 0,000 mm 0,0 UV-I 0 W/m² 4,6 °C 5,8 °C 0,0 km/h (0 Bft)
15.10.2019 05:29 5,9 °C 92 % 1008,9 hPa 0,0 mm 0,0 km/h (0 Bft) S-SW 211 ° 0 min 0,000 mm 0,0 UV-I 0 W/m² 4,7 °C 5,9 °C 0,0 km/h (0 Bft)
15.10.2019 05:30 5,9 °C 92 % 1008,9 hPa 0,0 mm 0,0 km/h (0 Bft) S-SW 211 ° 0 min 0,000 mm 0,0 UV-I 0 W/m² 4,7 °C 5,9 °C 0,0 km/h (0 Bft)
15.10.2019 05:31 5,9 °C 92 % 1008,8 hPa 0,0 mm 0,0 km/h (0 Bft) S-SW 211 ° 0 min 0,000 mm 0,0 UV-I 0 W/m² 4,7 °C 5,9 °C 0,0 km/h (0 Bft)
15.10.2019 05:32 5,9 °C 91 % 1008,8 hPa 0,0 mm 0,0 km/h (0 Bft) S-SW 211 ° 0 min 0,000 mm 0,0 UV-I 0 W/m² 4,5 °C 5,9 °C 0,0 km/h (0 Bft)
15.10.2019 05:33 5,9 °C 92 % 1008,8 hPa 0,0 mm 0,0 km/h (0 Bft) S-SW 211 ° 0 min 0,000 mm 0,0 UV-I 0 W/m² 4,7 °C 5,9 °C 0,0 km/h (0 Bft)
15.10.2019 05:34 5,9 °C 91 % 1008,8 hPa 0,0 mm 0,0 km/h (0 Bft) S-SW 211 ° 0 min 0,000 mm 0,0 UV-I 0 W/m² 4,5 °C 5,9 °C 0,0 km/h (0 Bft)
15.10.2019 05:35 5,8 °C 91 % 1008,7 hPa 0,0 mm 0,0 km/h (0 Bft) S-SW 211 ° 0 min 0,000 mm 0,0 UV-I 0 W/m² 4,4 °C 5,8 °C 0,0 km/h (0 Bft)
15.10.2019 05:36 5,8 °C 91 % 1008,7 hPa 0,0 mm 0,0 km/h (0 Bft) S-SW 211 ° 0 min 0,000 mm 0,0 UV-I 0 W/m² 4,4 °C 5,8 °C 0,0 km/h (0 Bft)
15.10.2019 05:37 5,8 °C 92 % 1008,7 hPa 0,0 mm 0,0 km/h (0 Bft) S-SW 211 ° 0 min 0,000 mm 0,0 UV-I 0 W/m² 4,6 °C 5,8 °C 0,0 km/h (0 Bft)
15.10.2019 05:38 5,7 °C 91 % 1008,6 hPa 0,0 mm 0,0 km/h (0 Bft) S-SW 211 ° 0 min 0,000 mm 0,0 UV-I 0 W/m² 4,3 °C 5,7 °C 0,0 km/h (0 Bft)
15.10.2019 05:39 5,7 °C 91 % 1008,6 hPa 0,0 mm 0,0 km/h (0 Bft) S-SW 211 ° 0 min 0,000 mm 0,0 UV-I 0 W/m² 4,3 °C 5,7 °C 0,0 km/h (0 Bft)
15.10.2019 05:40 5,6 °C 91 % 1008,6 hPa 0,0 mm 0,0 km/h (0 Bft) S-SW 211 ° 0 min 0,000 mm 0,0 UV-I 0 W/m² 4,2 °C 5,6 °C 0,0 km/h (0 Bft)
15.10.2019 05:41 5,6 °C 92 % 1008,6 hPa 0,0 mm 0,0 km/h (0 Bft) S-SW 211 ° 0 min 0,000 mm 0,0 UV-I 0 W/m² 4,4 °C 5,6 °C 0,0 km/h (0 Bft)
15.10.2019 05:42 5,6 °C 91 % 1008,6 hPa 0,0 mm 0,0 km/h (0 Bft) S-SW 211 ° 0 min 0,000 mm 0,0 UV-I 0 W/m² 4,2 °C 5,6 °C 0,0 km/h (0 Bft)
15.10.2019 05:43 5,5 °C 92 % 1008,6 hPa 0,0 mm 0,0 km/h (0 Bft) S-SW 211 ° 0 min 0,000 mm 0,0 UV-I 0 W/m² 4,3 °C 5,5 °C 0,0 km/h (0 Bft)
15.10.2019 05:44 5,6 °C 92 % 1008,6 hPa 0,0 mm 0,0 km/h (0 Bft) S-SW 211 ° 0 min 0,000 mm 0,0 UV-I 0 W/m² 4,4 °C 5,6 °C 0,0 km/h (0 Bft)
15.10.2019 05:45 5,6 °C 92 % 1008,5 hPa 0,0 mm 0,0 km/h (0 Bft) S-SW 211 ° 0 min 0,000 mm 0,0 UV-I 0 W/m² 4,4 °C 5,6 °C 0,0 km/h (0 Bft)
15.10.2019 05:46 5,6 °C 92 % 1008,5 hPa 0,0 mm 0,0 km/h (0 Bft) S-SW 211 ° 0 min 0,000 mm 0,0 UV-I 0 W/m² 4,4 °C 5,6 °C 0,0 km/h (0 Bft)
15.10.2019 05:47 5,6 °C 92 % 1008,5 hPa 0,0 mm 0,0 km/h (0 Bft) S-SW 211 ° 0 min 0,000 mm 0,0 UV-I 0 W/m² 4,4 °C 5,6 °C 0,0 km/h (0 Bft)
15.10.2019 05:48 5,5 °C 92 % 1008,6 hPa 0,0 mm 0,0 km/h (0 Bft) S-SW 211 ° 0 min 0,000 mm 0,0 UV-I 0 W/m² 4,3 °C 5,5 °C 0,0 km/h (0 Bft)
15.10.2019 05:49 5,5 °C 92 % 1008,6 hPa 0,0 mm 0,0 km/h (0 Bft) S-SW 211 ° 0 min 0,000 mm 0,0 UV-I 0 W/m² 4,3 °C 5,5 °C 0,0 km/h (0 Bft)
15.10.2019 05:50 5,6 °C 92 % 1008,6 hPa 0,0 mm 0,0 km/h (0 Bft) S-SW 211 ° 0 min 0,000 mm 0,0 UV-I 0 W/m² 4,4 °C 5,6 °C 0,0 km/h (0 Bft)
15.10.2019 05:51 5,5 °C 92 % 1008,6 hPa 0,0 mm 0,0 km/h (0 Bft) S-SW 211 ° 0 min 0,000 mm 0,0 UV-I 0 W/m² 4,3 °C 5,5 °C 0,0 km/h (0 Bft)
15.10.2019 05:52 5,4 °C 92 % 1008,6 hPa 0,0 mm 0,0 km/h (0 Bft) S-SW 211 ° 0 min 0,000 mm 0,0 UV-I 0 W/m² 4,2 °C 5,4 °C 0,0 km/h (0 Bft)
15.10.2019 05:53 5,4 °C 92 % 1008,6 hPa 0,0 mm 0,5 km/h (0 Bft) S-SW 211 ° 0 min 0,000 mm 0,0 UV-I 0 W/m² 4,2 °C 5,4 °C 3,2 km/h (1 Bft)
15.10.2019 05:54 5,3 °C 92 % 1008,6 hPa 0,0 mm 2,5 km/h (1 Bft) S-SW 211 ° 0 min 0,000 mm 0,0 UV-I 0 W/m² 4,1 °C 5,3 °C 3,2 km/h (1 Bft)
15.10.2019 05:55 5,3 °C 92 % 1008,6 hPa 0,0 mm 0,2 km/h (0 Bft) S-SW 211 ° 0 min 0,000 mm 0,0 UV-I 0 W/m² 4,1 °C 5,3 °C 1,6 km/h (1 Bft)
15.10.2019 05:56 5,4 °C 93 % 1008,6 hPa 0,0 mm 0,0 km/h (0 Bft) S-SW 211 ° 0 min 0,000 mm 0,0 UV-I 0 W/m² 4,4 °C 5,4 °C 0,0 km/h (0 Bft)
15.10.2019 05:57 5,5 °C 93 % 1008,6 hPa 0,0 mm 0,0 km/h (0 Bft) S-SW 211 ° 0 min 0,000 mm 0,0 UV-I 0 W/m² 4,5 °C 5,5 °C 0,0 km/h (0 Bft)
15.10.2019 05:58 5,7 °C 93 % 1008,5 hPa 0,0 mm 0,0 km/h (0 Bft) S-SW 211 ° 0 min 0,000 mm 0,0 UV-I 0 W/m² 4,7 °C 5,7 °C 0,0 km/h (0 Bft)
15.10.2019 05:59 5,7 °C 93 % 1008,5 hPa 0,0 mm 0,0 km/h (0 Bft) S-SW 211 ° 0 min 0,000 mm 0,0 UV-I 0 W/m² 4,7 °C 5,7 °C 0,0 km/h (0 Bft)
15.10.2019 06:00 5,7 °C 93 % 1008,5 hPa 0,0 mm 0,0 km/h (0 Bft) S-SW 211 ° 0 min 0,000 mm 0,0 UV-I 0 W/m² 4,7 °C 5,7 °C 0,0 km/h (0 Bft)
15.10.2019 06:01 5,7 °C 92 % 1008,5 hPa 0,0 mm 0,3 km/h (0 Bft) S-SW 211 ° 0 min 0,000 mm 0,0 UV-I 0 W/m² 4,5 °C 5,7 °C 1,6 km/h (1 Bft)
15.10.2019 06:02 5,6 °C 92 % 1008,5 hPa 0,0 mm 0,0 km/h (0 Bft) S-SW 211 ° 0 min 0,000 mm 0,0 UV-I 0 W/m² 4,4 °C 5,6 °C 0,0 km/h (0 Bft)
15.10.2019 06:03 5,5 °C 92 % 1008,5 hPa 0,0 mm 0,0 km/h (0 Bft) S-SW 211 ° 0 min 0,000 mm 0,0 UV-I 0 W/m² 4,3 °C 5,5 °C 0,0 km/h (0 Bft)
15.10.2019 06:04 5,4 °C 92 % 1008,5 hPa 0,0 mm 0,0 km/h (0 Bft) S-SW 211 ° 0 min 0,000 mm 0,0 UV-I 0 W/m² 4,2 °C 5,4 °C 0,0 km/h (0 Bft)
15.10.2019 06:05 5,4 °C 92 % 1008,6 hPa 0,0 mm 0,1 km/h (0 Bft) S-SW 211 ° 0 min 0,000 mm 0,0 UV-I 0 W/m² 4,2 °C 5,4 °C 1,6 km/h (1 Bft)
15.10.2019 06:06 5,3 °C 92 % 1008,6 hPa 0,0 mm 0,0 km/h (0 Bft) S-SW 211 ° 0 min 0,000 mm 0,0 UV-I 0 W/m² 4,1 °C 5,3 °C 0,0 km/h (0 Bft)
15.10.2019 06:07 5,3 °C 92 % 1008,6 hPa 0,0 mm 0,0 km/h (0 Bft) S-SW 211 ° 0 min 0,000 mm 0,0 UV-I 0 W/m² 4,1 °C 5,3 °C 0,0 km/h (0 Bft)
15.10.2019 06:08 5,3 °C 92 % 1008,6 hPa 0,0 mm 0,0 km/h (0 Bft) S-SW 211 ° 0 min 0,000 mm 0,0 UV-I 0 W/m² 4,1 °C 5,3 °C 0,0 km/h (0 Bft)
15.10.2019 06:09 5,3 °C 92 % 1008,6 hPa 0,0 mm 0,0 km/h (0 Bft) S-SW 211 ° 0 min 0,000 mm 0,0 UV-I 0 W/m² 4,1 °C 5,3 °C 0,0 km/h (0 Bft)
15.10.2019 06:10 5,3 °C 92 % 1008,6 hPa 0,0 mm 0,0 km/h (0 Bft) S-SW 211 ° 0 min 0,000 mm 0,0 UV-I 0 W/m² 4,1 °C 5,3 °C 0,0 km/h (0 Bft)
15.10.2019 06:11 5,4 °C 93 % 1008,5 hPa 0,0 mm 0,0 km/h (0 Bft) S-SW 211 ° 0 min 0,000 mm 0,0 UV-I 0 W/m² 4,4 °C 5,4 °C 0,0 km/h (0 Bft)
15.10.2019 06:12 5,5 °C 93 % 1008,6 hPa 0,0 mm 0,0 km/h (0 Bft) S-SW 211 ° 0 min 0,000 mm 0,0 UV-I 0 W/m² 4,5 °C 5,5 °C 0,0 km/h (0 Bft)
15.10.2019 06:13 5,5 °C 93 % 1008,6 hPa 0,0 mm 0,0 km/h (0 Bft) S-SW 211 ° 0 min 0,000 mm 0,0 UV-I 0 W/m² 4,5 °C 5,5 °C 0,0 km/h (0 Bft)
15.10.2019 06:14 5,7 °C 93 % 1008,6 hPa 0,0 mm 0,0 km/h (0 Bft) S-SW 211 ° 0 min 0,000 mm 0,0 UV-I 0 W/m² 4,7 °C 5,7 °C 0,0 km/h (0 Bft)
15.10.2019 06:15 5,8 °C 93 % 1008,6 hPa 0,0 mm 0,0 km/h (0 Bft) S-SW 211 ° 0 min 0,000 mm 0,0 UV-I 0 W/m² 4,8 °C 5,8 °C 0,0 km/h (0 Bft)
15.10.2019 06:16 5,8 °C 93 % 1008,6 hPa 0,0 mm 0,0 km/h (0 Bft) S-SW 211 ° 0 min 0,000 mm 0,0 UV-I 0 W/m² 4,8 °C 5,8 °C 0,0 km/h (0 Bft)
15.10.2019 06:17 5,9 °C 93 % 1008,5 hPa 0,0 mm 0,0 km/h (0 Bft) S-SW 211 ° 0 min 0,000 mm 0,0 UV-I 0 W/m² 4,9 °C 5,9 °C 0,0 km/h (0 Bft)
15.10.2019 06:18 5,9 °C 93 % 1008,5 hPa 0,0 mm 0,0 km/h (0 Bft) S-SW 211 ° 0 min 0,000 mm 0,0 UV-I 0 W/m² 4,9 °C 5,9 °C 0,0 km/h (0 Bft)
15.10.2019 06:19 5,9 °C 92 % 1008,5 hPa 0,0 mm 0,0 km/h (0 Bft) S-SW 211 ° 0 min 0,000 mm 0,0 UV-I 0 W/m² 4,7 °C 5,9 °C 0,0 km/h (0 Bft)
15.10.2019 06:20 5,9 °C 92 % 1008,4 hPa 0,0 mm 0,0 km/h (0 Bft) S-SW 211 ° 0 min 0,000 mm 0,0 UV-I 0 W/m² 4,7 °C 5,9 °C 0,0 km/h (0 Bft)
15.10.2019 06:21 5,8 °C 92 % 1008,4 hPa 0,0 mm 0,0 km/h (0 Bft) S-SW 211 ° 0 min 0,000 mm 0,0 UV-I 0 W/m² 4,6 °C 5,8 °C 0,0 km/h (0 Bft)
15.10.2019 06:22 5,8 °C 92 % 1008,4 hPa 0,0 mm 0,0 km/h (0 Bft) S-SW 211 ° 0 min 0,000 mm 0,0 UV-I 0 W/m² 4,6 °C 5,8 °C 0,0 km/h (0 Bft)
15.10.2019 06:23 5,8 °C 92 % 1008,4 hPa 0,0 mm 0,0 km/h (0 Bft) S-SW 211 ° 0 min 0,000 mm 0,0 UV-I 0 W/m² 4,6 °C 5,8 °C 0,0 km/h (0 Bft)
15.10.2019 06:24 5,8 °C 92 % 1008,3 hPa 0,0 mm 0,0 km/h (0 Bft) S-SW 211 ° 0 min 0,000 mm 0,0 UV-I 0 W/m² 4,6 °C 5,8 °C 0,0 km/h (0 Bft)
15.10.2019 06:25 5,8 °C 92 % 1008,3 hPa 0,0 mm 0,0 km/h (0 Bft) S-SW 211 ° 0 min 0,000 mm 0,0 UV-I 0 W/m² 4,6 °C 5,8 °C 0,0 km/h (0 Bft)
15.10.2019 06:26 5,7 °C 91 % 1008,3 hPa 0,0 mm 0,0 km/h (0 Bft) S-SW 211 ° 0 min 0,000 mm 0,0 UV-I 0 W/m² 4,3 °C 5,7 °C 0,0 km/h (0 Bft)
15.10.2019 06:27 5,6 °C 91 % 1008,3 hPa 0,0 mm 0,0 km/h (0 Bft) S-SW 211 ° 0 min 0,000 mm 0,0 UV-I 0 W/m² 4,2 °C 5,6 °C 0,0 km/h (0 Bft)
15.10.2019 06:28 5,4 °C 91 % 1008,3 hPa 0,0 mm 0,0 km/h (0 Bft) S-SW 211 ° 0 min 0,000 mm 0,0 UV-I 0 W/m² 4,1 °C 5,4 °C 0,0 km/h (0 Bft)
15.10.2019 06:29 5,3 °C 91 % 1008,3 hPa 0,0 mm 0,0 km/h (0 Bft) S-SW 211 ° 0 min 0,000 mm 0,0 UV-I 0 W/m² 4,0 °C 5,3 °C 0,0 km/h (0 Bft)
15.10.2019 06:30 5,3 °C 92 % 1008,3 hPa 0,0 mm 0,0 km/h (0 Bft) S-SW 211 ° 0 min 0,000 mm 0,0 UV-I 0 W/m² 4,1 °C 5,3 °C 0,0 km/h (0 Bft)
15.10.2019 06:31 5,3 °C 92 % 1008,3 hPa 0,0 mm 0,0 km/h (0 Bft) S-SW 211 ° 0 min 0,000 mm 0,0 UV-I 0 W/m² 4,1 °C 5,3 °C 0,0 km/h (0 Bft)
15.10.2019 06:32 5,3 °C 92 % 1008,3 hPa 0,0 mm 0,0 km/h (0 Bft) S-SW 211 ° 0 min 0,000 mm 0,0 UV-I 0 W/m² 4,1 °C 5,3 °C 0,0 km/h (0 Bft)
15.10.2019 06:33 5,3 °C 92 % 1008,2 hPa 0,0 mm 0,0 km/h (0 Bft) S-SW 211 ° 0 min 0,000 mm 0,0 UV-I 0 W/m² 4,1 °C 5,3 °C 0,0 km/h (0 Bft)
15.10.2019 06:34 5,4 °C 93 % 1008,2 hPa 0,0 mm 0,0 km/h (0 Bft) S-SW 211 ° 0 min 0,000 mm 0,0 UV-I 0 W/m² 4,4 °C 5,4 °C 0,0 km/h (0 Bft)
15.10.2019 06:35 5,6 °C 93 % 1008,2 hPa 0,0 mm 0,0 km/h (0 Bft) S-SW 211 ° 0 min 0,000 mm 0,0 UV-I 0 W/m² 4,6 °C 5,6 °C 0,0 km/h (0 Bft)
15.10.2019 06:36 5,7 °C 93 % 1008,2 hPa 0,0 mm 0,0 km/h (0 Bft) S-SW 211 ° 0 min 0,000 mm 0,0 UV-I 0 W/m² 4,7 °C 5,7 °C 0,0 km/h (0 Bft)
15.10.2019 06:37 5,7 °C 93 % 1008,2 hPa 0,0 mm 0,0 km/h (0 Bft) S-SW 211 ° 0 min 0,000 mm 0,0 UV-I 0 W/m² 4,7 °C 5,7 °C 0,0 km/h (0 Bft)
15.10.2019 06:38 5,7 °C 92 % 1008,2 hPa 0,0 mm 0,0 km/h (0 Bft) S-SW 211 ° 0 min 0,000 mm 0,0 UV-I 0 W/m² 4,5 °C 5,7 °C 0,0 km/h (0 Bft)
15.10.2019 06:39 5,6 °C 92 % 1008,2 hPa 0,0 mm 0,0 km/h (0 Bft) S-SW 211 ° 0 min 0,000 mm 0,0 UV-I 0 W/m² 4,4 °C 5,6 °C 0,0 km/h (0 Bft)
15.10.2019 06:40 5,5 °C 92 % 1008,1 hPa 0,0 mm 0,0 km/h (0 Bft) S-SW 211 ° 0 min 0,000 mm 0,0 UV-I 0 W/m² 4,3 °C 5,5 °C 0,0 km/h (0 Bft)
15.10.2019 06:41 5,4 °C 92 % 1008,1 hPa 0,0 mm 0,0 km/h (0 Bft) S-SW 211 ° 0 min 0,000 mm 0,0 UV-I 0 W/m² 4,2 °C 5,4 °C 0,0 km/h (0 Bft)
15.10.2019 06:42 5,4 °C 92 % 1008,0 hPa 0,0 mm 0,0 km/h (0 Bft) S-SW 211 ° 0 min 0,000 mm 0,0 UV-I 0 W/m² 4,2 °C 5,4 °C 0,0 km/h (0 Bft)
15.10.2019 06:43 5,4 °C 92 % 1008,0 hPa 0,0 mm 0,0 km/h (0 Bft) S-SW 211 ° 0 min 0,000 mm 0,0 UV-I 0 W/m² 4,2 °C 5,4 °C 0,0 km/h (0 Bft)
15.10.2019 06:44 5,5 °C 92 % 1008,1 hPa 0,0 mm 0,0 km/h (0 Bft) S-SW 211 ° 0 min 0,000 mm 0,0 UV-I 0 W/m² 4,3 °C 5,5 °C 0,0 km/h (0 Bft)
15.10.2019 06:45 5,6 °C 93 % 1008,0 hPa 0,0 mm 0,0 km/h (0 Bft) S-SW 211 ° 0 min 0,000 mm 0,0 UV-I 0 W/m² 4,6 °C 5,6 °C 0,0 km/h (0 Bft)
15.10.2019 06:46 5,6 °C 93 % 1008,0 hPa 0,0 mm 0,0 km/h (0 Bft) S-SW 211 ° 0 min 0,000 mm 0,0 UV-I 0 W/m² 4,6 °C 5,6 °C 0,0 km/h (0 Bft)
15.10.2019 06:47 5,6 °C 92 % 1008,0 hPa 0,0 mm 0,0 km/h (0 Bft) S-SW 211 ° 0 min 0,000 mm 0,0 UV-I 0 W/m² 4,4 °C 5,6 °C 0,0 km/h (0 Bft)
15.10.2019 06:48 5,6 °C 92 % 1008,0 hPa 0,0 mm 0,0 km/h (0 Bft) S-SW 211 ° 0 min 0,000 mm 0,0 UV-I 0 W/m² 4,4 °C 5,6 °C 0,0 km/h (0 Bft)
15.10.2019 06:49 5,6 °C 92 % 1008,0 hPa 0,0 mm 0,0 km/h (0 Bft) S-SW 211 ° 0 min 0,000 mm 0,0 UV-I 0 W/m² 4,4 °C 5,6 °C 0,0 km/h (0 Bft)
15.10.2019 06:50 5,4 °C 92 % 1008,0 hPa 0,0 mm 0,0 km/h (0 Bft) S-SW 211 ° 0 min 0,000 mm 0,0 UV-I 0 W/m² 4,2 °C 5,4 °C 0,0 km/h (0 Bft)
15.10.2019 06:51 5,4 °C 92 % 1008,0 hPa 0,0 mm 0,0 km/h (0 Bft) S-SW 211 ° 0 min 0,000 mm 0,0 UV-I 0 W/m² 4,2 °C 5,4 °C 0,0 km/h (0 Bft)
15.10.2019 06:52 5,4 °C 92 % 1008,0 hPa 0,0 mm 0,0 km/h (0 Bft) S-SW 211 ° 0 min 0,000 mm 0,0 UV-I 0 W/m² 4,2 °C 5,4 °C 0,0 km/h (0 Bft)
15.10.2019 06:53 5,4 °C 92 % 1008,0 hPa 0,0 mm 0,0 km/h (0 Bft) S-SW 211 ° 0 min 0,000 mm 0,0 UV-I 0 W/m² 4,2 °C 5,4 °C 0,0 km/h (0 Bft)
15.10.2019 06:54 5,3 °C 92 % 1008,0 hPa 0,0 mm 0,0 km/h (0 Bft) S-SW 211 ° 0 min 0,000 mm 0,0 UV-I 0 W/m² 4,1 °C 5,3 °C 0,0 km/h (0 Bft)
15.10.2019 06:55 5,3 °C 92 % 1007,9 hPa 0,0 mm 0,0 km/h (0 Bft) S-SW 211 ° 0 min 0,000 mm 0,0 UV-I 0 W/m² 4,1 °C 5,3 °C 0,0 km/h (0 Bft)
15.10.2019 06:56 5,3 °C 92 % 1008,0 hPa 0,0 mm 0,0 km/h (0 Bft) S-SW 211 ° 0 min 0,000 mm 0,0 UV-I 0 W/m² 4,1 °C 5,3 °C 0,0 km/h (0 Bft)
15.10.2019 06:57 5,4 °C 93 % 1008,0 hPa 0,0 mm 0,0 km/h (0 Bft) S-SW 211 ° 0 min 0,000 mm 0,0 UV-I 0 W/m² 4,4 °C 5,4 °C 0,0 km/h (0 Bft)
15.10.2019 06:58 5,4 °C 93 % 1008,0 hPa 0,0 mm 0,0 km/h (0 Bft) S-SW 211 ° 0 min 0,000 mm 0,0 UV-I 0 W/m² 4,4 °C 5,4 °C 0,0 km/h (0 Bft)
15.10.2019 06:59 5,4 °C 93 % 1008,1 hPa 0,0 mm 0,0 km/h (0 Bft) S-SW 211 ° 0 min 0,000 mm 0,0 UV-I 0 W/m² 4,4 °C 5,4 °C 0,0 km/h (0 Bft)
15.10.2019 07:00 5,4 °C 92 % 1008,1 hPa 0,0 mm 0,0 km/h (0 Bft) S-SW 211 ° 0 min 0,000 mm 0,0 UV-I 0 W/m² 4,2 °C 5,4 °C 0,0 km/h (0 Bft)
15.10.2019 07:01 5,4 °C 92 % 1008,2 hPa 0,0 mm 0,0 km/h (0 Bft) S-SW 211 ° 0 min 0,000 mm 0,0 UV-I 0 W/m² 4,2 °C 5,4 °C 0,0 km/h (0 Bft)
15.10.2019 07:02 5,4 °C 93 % 1008,2 hPa 0,0 mm 0,0 km/h (0 Bft) S-SW 211 ° 0 min 0,000 mm 0,0 UV-I 0 W/m² 4,4 °C 5,4 °C 0,0 km/h (0 Bft)
15.10.2019 07:03 5,3 °C 92 % 1008,2 hPa 0,0 mm 0,0 km/h (0 Bft) S-SW 211 ° 0 min 0,000 mm 0,0 UV-I 0 W/m² 4,1 °C 5,3 °C 0,0 km/h (0 Bft)
15.10.2019 07:04 5,2 °C 92 % 1008,2 hPa 0,0 mm 0,0 km/h (0 Bft) S-SW 211 ° 0 min 0,000 mm 0,0 UV-I 0 W/m² 4,0 °C 5,2 °C 0,0 km/h (0 Bft)
15.10.2019 07:05 5,2 °C 92 % 1008,2 hPa 0,0 mm 0,0 km/h (0 Bft) S-SW 211 ° 0 min 0,000 mm 0,0 UV-I 0 W/m² 4,0 °C 5,2 °C 0,0 km/h (0 Bft)
15.10.2019 07:06 5,2 °C 93 % 1008,1 hPa 0,0 mm 0,0 km/h (0 Bft) S-SW 211 ° 0 min 0,000 mm 0,0 UV-I 0 W/m² 4,2 °C 5,2 °C 0,0 km/h (0 Bft)
15.10.2019 07:07 5,3 °C 93 % 1008,2 hPa 0,0 mm 0,0 km/h (0 Bft) S-SW 211 ° 0 min 0,000 mm 0,0 UV-I 0 W/m² 4,3 °C 5,3 °C 0,0 km/h (0 Bft)
15.10.2019 07:08 5,3 °C 93 % 1008,1 hPa 0,0 mm 0,0 km/h (0 Bft) S-SW 211 ° 0 min 0,000 mm 0,0 UV-I 0 W/m² 4,3 °C 5,3 °C 0,0 km/h (0 Bft)
15.10.2019 07:09 5,3 °C 93 % 1008,1 hPa 0,0 mm 0,0 km/h (0 Bft) S-SW 211 ° 0 min 0,000 mm 0,0 UV-I 0 W/m² 4,3 °C 5,3 °C 0,0 km/h (0 Bft)
15.10.2019 07:10 5,4 °C 93 % 1008,1 hPa 0,0 mm 0,0 km/h (0 Bft) S-SW 211 ° 0 min 0,000 mm 0,0 UV-I 0 W/m² 4,4 °C 5,4 °C 0,0 km/h (0 Bft)
15.10.2019 07:11 5,3 °C 93 % 1008,2 hPa 0,0 mm 0,0 km/h (0 Bft) S-SW 211 ° 0 min 0,000 mm 0,0 UV-I 0 W/m² 4,3 °C 5,3 °C 0,0 km/h (0 Bft)
15.10.2019 07:12 5,3 °C 93 % 1008,2 hPa 0,0 mm 0,0 km/h (0 Bft) S-SW 211 ° 0 min 0,000 mm 0,0 UV-I 0 W/m² 4,3 °C 5,3 °C 0,0 km/h (0 Bft)
15.10.2019 07:13 5,3 °C 92 % 1008,2 hPa 0,0 mm 0,0 km/h (0 Bft) S-SW 211 ° 0 min 0,000 mm 0,0 UV-I 0 W/m² 4,1 °C 5,3 °C 0,0 km/h (0 Bft)
15.10.2019 07:14 5,2 °C 93 % 1008,2 hPa 0,0 mm 0,0 km/h (0 Bft) S-SW 211 ° 0 min 0,000 mm 0,0 UV-I 0 W/m² 4,2 °C 5,2 °C 0,0 km/h (0 Bft)
15.10.2019 07:15 5,3 °C 93 % 1008,2 hPa 0,0 mm 0,0 km/h (0 Bft) S-SW 211 ° 0 min 0,000 mm 0,0 UV-I 0 W/m² 4,3 °C 5,3 °C 0,0 km/h (0 Bft)
15.10.2019 07:16 5,4 °C 93 % 1008,2 hPa 0,0 mm 0,0 km/h (0 Bft) S-SW 211 ° 0 min 0,000 mm 0,0 UV-I 0 W/m² 4,4 °C 5,4 °C 0,0 km/h (0 Bft)
15.10.2019 07:17 5,6 °C 93 % 1008,2 hPa 0,0 mm 0,0 km/h (0 Bft) S-SW 211 ° 0 min 0,000 mm 0,0 UV-I 0 W/m² 4,6 °C 5,6 °C 0,0 km/h (0 Bft)
15.10.2019 07:18 5,8 °C 93 % 1008,2 hPa 0,0 mm 0,0 km/h (0 Bft) S-SW 211 ° 0 min 0,000 mm 0,0 UV-I 0 W/m² 4,8 °C 5,8 °C 0,0 km/h (0 Bft)
15.10.2019 07:19 5,9 °C 93 % 1008,2 hPa 0,0 mm 0,0 km/h (0 Bft) S-SW 211 ° 0 min 0,000 mm 0,0 UV-I 0 W/m² 4,9 °C 5,9 °C 0,0 km/h (0 Bft)
15.10.2019 07:20 6,1 °C 93 % 1008,3 hPa 0,0 mm 0,0 km/h (0 Bft) S-SW 211 ° 0 min 0,000 mm 0,0 UV-I 0 W/m² 5,1 °C 6,1 °C 0,0 km/h (0 Bft)
15.10.2019 07:21 6,0 °C 92 % 1008,2 hPa 0,0 mm 0,0 km/h (0 Bft) S-SW 211 ° 0 min 0,000 mm 0,0 UV-I 0 W/m² 4,8 °C 6,0 °C 0,0 km/h (0 Bft)
15.10.2019 07:22 5,9 °C 92 % 1008,2 hPa 0,0 mm 0,0 km/h (0 Bft) S-SW 211 ° 0 min 0,000 mm 0,0 UV-I 0 W/m² 4,7 °C 5,9 °C 0,0 km/h (0 Bft)
15.10.2019 07:23 6,1 °C 92 % 1008,2 hPa 0,0 mm 0,0 km/h (0 Bft) S-SW 211 ° 0 min 0,000 mm 0,0 UV-I 0 W/m² 4,9 °C 6,1 °C 0,0 km/h (0 Bft)
15.10.2019 07:24 6,1 °C 92 % 1008,2 hPa 0,0 mm 0,0 km/h (0 Bft) S-SW 211 ° 0 min 0,000 mm 0,0 UV-I 0 W/m² 4,9 °C 6,1 °C 0,0 km/h (0 Bft)
15.10.2019 07:25 6,1 °C 92 % 1008,2 hPa 0,0 mm 0,0 km/h (0 Bft) S-SW 211 ° 0 min 0,000 mm 0,0 UV-I 0 W/m² 4,9 °C 6,1 °C 0,0 km/h (0 Bft)
15.10.2019 07:26 6,1 °C 92 % 1008,1 hPa 0,0 mm 0,0 km/h (0 Bft) S-SW 211 ° 0 min 0,000 mm 0,0 UV-I 0 W/m² 4,9 °C 6,1 °C 0,0 km/h (0 Bft)
15.10.2019 07:27 6,1 °C 91 % 1008,2 hPa 0,0 mm 0,0 km/h (0 Bft) S-SW 211 ° 0 min 0,000 mm 0,0 UV-I 0 W/m² 4,7 °C 6,1 °C 0,0 km/h (0 Bft)
15.10.2019 07:28 5,9 °C 91 % 1008,2 hPa 0,0 mm 0,0 km/h (0 Bft) S-SW 211 ° 0 min 0,000 mm 0,0 UV-I 0 W/m² 4,5 °C 5,9 °C 0,0 km/h (0 Bft)
15.10.2019 07:29 5,8 °C 91 % 1008,1 hPa 0,0 mm 0,0 km/h (0 Bft) S-SW 211 ° 0 min 0,000 mm 0,0 UV-I 0 W/m² 4,4 °C 5,8 °C 0,0 km/h (0 Bft)
15.10.2019 07:30 5,9 °C 92 % 1008,1 hPa 0,0 mm 0,0 km/h (0 Bft) S-SW 211 ° 0 min 0,000 mm 0,0 UV-I 0 W/m² 4,7 °C 5,9 °C 0,0 km/h (0 Bft)
15.10.2019 07:31 6,0 °C 92 % 1008,0 hPa 0,0 mm 0,0 km/h (0 Bft) S-SW 211 ° 0 min 0,000 mm 0,0 UV-I 0 W/m² 4,8 °C 6,0 °C 0,0 km/h (0 Bft)
15.10.2019 07:32 6,1 °C 92 % 1008,1 hPa 0,0 mm 0,0 km/h (0 Bft) S-SW 211 ° 0 min 0,000 mm 0,0 UV-I 0 W/m² 4,9 °C 6,1 °C 0,0 km/h (0 Bft)
15.10.2019 07:33 6,1 °C 92 % 1007,9 hPa 0,0 mm 0,0 km/h (0 Bft) S-SW 211 ° 0 min 0,000 mm 0,0 UV-I 0 W/m² 4,9 °C 6,1 °C 0,0 km/h (0 Bft)
15.10.2019 07:34 6,2 °C 91 % 1007,9 hPa 0,0 mm 0,0 km/h (0 Bft) S-SW 211 ° 0 min 0,000 mm 0,0 UV-I 0 W/m² 4,8 °C 6,2 °C 0,0 km/h (0 Bft)
15.10.2019 07:35 6,1 °C 91 % 1007,9 hPa 0,0 mm 0,0 km/h (0 Bft) S-SW 211 ° 0 min 0,000 mm 0,0 UV-I 0 W/m² 4,7 °C 6,1 °C 0,0 km/h (0 Bft)
15.10.2019 07:36 6,1 °C 91 % 1007,9 hPa 0,0 mm 0,0 km/h (0 Bft) S-SW 211 ° 0 min 0,000 mm 0,0 UV-I 0 W/m² 4,7 °C 6,1 °C 0,0 km/h (0 Bft)
15.10.2019 07:37 6,1 °C 91 % 1007,8 hPa 0,0 mm 0,0 km/h (0 Bft) S-SW 211 ° 0 min 0,000 mm 0,0 UV-I 0 W/m² 4,7 °C 6,1 °C 0,0 km/h (0 Bft)
15.10.2019 07:38 6,1 °C 91 % 1007,8 hPa 0,0 mm 0,0 km/h (0 Bft) S-SW 211 ° 0 min 0,000 mm 0,0 UV-I 5 W/m² 4,7 °C 6,1 °C 0,0 km/h (0 Bft)
15.10.2019 07:39 6,0 °C 91 % 1007,8 hPa 0,0 mm 0,0 km/h (0 Bft) S-SW 211 ° 0 min 0,000 mm 0,0 UV-I 5 W/m² 4,6 °C 6,0 °C 0,0 km/h (0 Bft)
15.10.2019 07:40 5,9 °C 91 % 1007,8 hPa 0,0 mm 0,0 km/h (0 Bft) S-SW 211 ° 0 min 0,000 mm 0,0 UV-I 5 W/m² 4,5 °C 5,9 °C 0,0 km/h (0 Bft)
15.10.2019 07:41 5,9 °C 90 % 1007,9 hPa 0,0 mm 0,0 km/h (0 Bft) S-SW 211 ° 0 min 0,000 mm 0,0 UV-I 5 W/m² 4,4 °C 5,9 °C 0,0 km/h (0 Bft)
15.10.2019 07:42 5,8 °C 90 % 1007,9 hPa 0,0 mm 0,0 km/h (0 Bft) S-SW 211 ° 0 min 0,000 mm 0,0 UV-I 5 W/m² 4,3 °C 5,8 °C 0,0 km/h (0 Bft)
15.10.2019 07:43 5,8 °C 90 % 1007,9 hPa 0,0 mm 0,0 km/h (0 Bft) S-SW 211 ° 0 min 0,000 mm 0,0 UV-I 7 W/m² 4,3 °C 5,8 °C 0,0 km/h (0 Bft)
15.10.2019 07:44 5,7 °C 90 % 1008,0 hPa 0,0 mm 0,0 km/h (0 Bft) S-SW 211 ° 0 min 0,000 mm 0,0 UV-I 7 W/m² 4,2 °C 5,7 °C 0,0 km/h (0 Bft)
15.10.2019 07:45 5,6 °C 91 % 1007,9 hPa 0,0 mm 0,0 km/h (0 Bft) S-SW 211 ° 0 min 0,000 mm 0,0 UV-I 7 W/m² 4,2 °C 5,6 °C 0,0 km/h (0 Bft)
15.10.2019 07:46 5,5 °C 91 % 1007,9 hPa 0,0 mm 0,0 km/h (0 Bft) S-SW 211 ° 0 min 0,000 mm 0,0 UV-I 7 W/m² 4,2 °C 5,5 °C 0,0 km/h (0 Bft)
15.10.2019 07:47 5,4 °C 91 % 1007,9 hPa 0,0 mm 0,0 km/h (0 Bft) S-SW 211 ° 0 min 0,000 mm 0,0 UV-I 7 W/m² 4,1 °C 5,4 °C 0,0 km/h (0 Bft)
15.10.2019 07:48 5,4 °C 91 % 1007,8 hPa 0,0 mm 0,0 km/h (0 Bft) S-SW 211 ° 0 min 0,000 mm 0,0 UV-I 9 W/m² 4,1 °C 5,4 °C 0,0 km/h (0 Bft)
15.10.2019 07:49 5,4 °C 91 % 1007,8 hPa 0,0 mm 0,0 km/h (0 Bft) S-SW 211 ° 0 min 0,000 mm 0,0 UV-I 9 W/m² 4,1 °C 5,4 °C 0,0 km/h (0 Bft)
15.10.2019 07:50 5,5 °C 92 % 1007,7 hPa 0,0 mm 0,0 km/h (0 Bft) S-SW 211 ° 0 min 0,000 mm 0,0 UV-I 9 W/m² 4,3 °C 5,5 °C 0,0 km/h (0 Bft)
15.10.2019 07:51 5,6 °C 92 % 1007,6 hPa 0,0 mm 0,0 km/h (0 Bft) S-SW 211 ° 0 min 0,000 mm 0,0 UV-I 9 W/m² 4,4 °C 5,6 °C 0,0 km/h (0 Bft)
15.10.2019 07:52 5,7 °C 92 % 1007,6 hPa 0,0 mm 0,0 km/h (0 Bft) S-SW 211 ° 0 min 0,000 mm 0,0 UV-I 9 W/m² 4,5 °C 5,7 °C 0,0 km/h (0 Bft)
15.10.2019 07:53 5,8 °C 92 % 1007,6 hPa 0,0 mm 0,0 km/h (0 Bft) S-SW 211 ° 0 min 0,000 mm 0,0 UV-I 9 W/m² 4,6 °C 5,8 °C 0,0 km/h (0 Bft)
15.10.2019 07:54 6,1 °C 93 % 1007,6 hPa 0,0 mm 0,0 km/h (0 Bft) S-SW 211 ° 0 min 0,000 mm 0,0 UV-I 11 W/m² 5,1 °C 6,1 °C 0,0 km/h (0 Bft)
15.10.2019 07:55 6,4 °C 93 % 1007,6 hPa 0,0 mm 0,0 km/h (0 Bft) S-SW 211 ° 0 min 0,000 mm 0,0 UV-I 11 W/m² 5,4 °C 6,4 °C 0,0 km/h (0 Bft)
15.10.2019 07:56 6,8 °C 93 % 1007,6 hPa 0,0 mm 0,0 km/h (0 Bft) S-SW 211 ° 0 min 0,000 mm 0,0 UV-I 11 W/m² 5,7 °C 6,8 °C 0,0 km/h (0 Bft)
15.10.2019 07:57 7,1 °C 93 % 1007,6 hPa 0,0 mm 0,0 km/h (0 Bft) S-SW 211 ° 0 min 0,000 mm 0,0 UV-I 11 W/m² 6,0 °C 7,1 °C 0,0 km/h (0 Bft)
15.10.2019 07:58 7,5 °C 93 % 1007,6 hPa 0,0 mm 0,0 km/h (0 Bft) S-SW 211 ° 0 min 0,000 mm 0,0 UV-I 11 W/m² 6,4 °C 7,5 °C 0,0 km/h (0 Bft)
15.10.2019 07:59 8,0 °C 92 % 1007,6 hPa 0,0 mm 0,0 km/h (0 Bft) S-SW 211 ° 0 min 0,000 mm 0,0 UV-I 11 W/m² 6,8 °C 8,0 °C 0,0 km/h (0 Bft)
15.10.2019 08:00 8,4 °C 90 % 1007,6 hPa 0,0 mm 0,0 km/h (0 Bft) S-SW 211 ° 0 min 0,000 mm 0,0 UV-I 11 W/m² 6,9 °C 8,4 °C 0,0 km/h (0 Bft)
15.10.2019 08:01 8,6 °C 89 % 1007,6 hPa 0,0 mm 0,0 km/h (0 Bft) S-SW 211 ° 0 min 0,000 mm 0,0 UV-I 12 W/m² 6,9 °C 8,6 °C 0,0 km/h (0 Bft)
15.10.2019 08:02 8,9 °C 89 % 1007,6 hPa 0,0 mm 0,0 km/h (0 Bft) S-SW 211 ° 0 min 0,000 mm 0,0 UV-I 12 W/m² 7,2 °C 8,9 °C 0,0 km/h (0 Bft)
15.10.2019 08:03 9,1 °C 88 % 1007,6 hPa 0,0 mm 0,0 km/h (0 Bft) S-SW 211 ° 0 min 0,000 mm 0,0 UV-I 12 W/m² 7,2 °C 9,1 °C 0,0 km/h (0 Bft)
15.10.2019 08:04 9,3 °C 86 % 1007,6 hPa 0,0 mm 0,0 km/h (0 Bft) S-SW 211 ° 0 min 0,000 mm 0,0 UV-I 12 W/m² 7,1 °C 9,3 °C 0,0 km/h (0 Bft)
15.10.2019 08:05 9,6 °C 85 % 1007,6 hPa 0,0 mm 0,0 km/h (0 Bft) S-SW 211 ° 0 min 0,000 mm 0,0 UV-I 12 W/m² 7,2 °C 9,6 °C 0,0 km/h (0 Bft)
15.10.2019 08:06 9,8 °C 84 % 1007,6 hPa 0,0 mm 0,0 km/h (0 Bft) S-SW 211 ° 0 min 0,000 mm 0,0 UV-I 12 W/m² 7,2 °C 9,8 °C 0,0 km/h (0 Bft)
15.10.2019 08:07 10,0 °C 83 % 1007,6 hPa 0,0 mm 0,0 km/h (0 Bft) S-SW 211 ° 0 min 0,000 mm 0,0 UV-I 12 W/m² 7,2 °C 10,0 °C 0,0 km/h (0 Bft)
15.10.2019 08:08 10,2 °C 82 % 1007,6 hPa 0,0 mm 0,0 km/h (0 Bft) S-SW 211 ° 0 min 0,000 mm 0,0 UV-I 12 W/m² 7,3 °C 10,2 °C 0,0 km/h (0 Bft)
15.10.2019 08:09 10,3 °C 81 % 1007,6 hPa 0,0 mm 0,0 km/h (0 Bft) S-SW 211 ° 0 min 0,000 mm 0,0 UV-I 12 W/m² 7,2 °C 10,3 °C 0,0 km/h (0 Bft)
15.10.2019 08:10 10,4 °C 80 % 1007,6 hPa 0,0 mm 0,0 km/h (0 Bft) S-SW 211 ° 0 min 0,000 mm 0,0 UV-I 14 W/m² 7,1 °C 10,4 °C 0,0 km/h (0 Bft)
15.10.2019 08:11 10,6 °C 80 % 1007,6 hPa 0,0 mm 0,0 km/h (0 Bft) S-SW 211 ° 0 min 0,000 mm 0,0 UV-I 14 W/m² 7,3 °C 10,6 °C 0,0 km/h (0 Bft)
15.10.2019 08:12 10,7 °C 79 % 1007,7 hPa 0,0 mm 0,0 km/h (0 Bft) S-SW 211 ° 0 min 0,000 mm 0,0 UV-I 14 W/m² 7,2 °C 10,7 °C 0,0 km/h (0 Bft)
15.10.2019 08:13 10,8 °C 79 % 1007,6 hPa 0,0 mm 0,0 km/h (0 Bft) S-SW 211 ° 0 min 0,000 mm 0,0 UV-I 14 W/m² 7,3 °C 10,8 °C 0,0 km/h (0 Bft)
15.10.2019 08:14 10,9 °C 78 % 1007,6 hPa 0,0 mm 0,0 km/h (0 Bft) S-SW 211 ° 0 min 0,000 mm 0,0 UV-I 14 W/m² 7,2 °C 10,9 °C 0,0 km/h (0 Bft)
15.10.2019 08:15 10,9 °C 78 % 1007,6 hPa 0,0 mm 0,0 km/h (0 Bft) S-SW 211 ° 0 min 0,000 mm 0,0 UV-I 14 W/m² 7,2 °C 10,9 °C 0,0 km/h (0 Bft)
15.10.2019 08:16 11,0 °C 77 % 1007,7 hPa 0,0 mm 0,0 km/h (0 Bft) S-SW 211 ° 0 min 0,000 mm 0,0 UV-I 14 W/m² 7,1 °C 11,0 °C 0,0 km/h (0 Bft)
15.10.2019 08:17 11,1 °C 77 % 1007,7 hPa 0,0 mm 0,0 km/h (0 Bft) S-SW 211 ° 0 min 0,000 mm 0,0 UV-I 14 W/m² 7,2 °C 11,1 °C 0,0 km/h (0 Bft)
15.10.2019 08:18 11,0 °C 77 % 1007,6 hPa 0,0 mm 0,0 km/h (0 Bft) S-SW 211 ° 0 min 0,000 mm 0,0 UV-I 14 W/m² 7,1 °C 11,0 °C 0,0 km/h (0 Bft)
15.10.2019 08:19 10,9 °C 77 % 1007,6 hPa 0,0 mm 0,0 km/h (0 Bft) S-SW 211 ° 0 min 0,000 mm 0,0 UV-I 16 W/m² 7,0 °C 10,9 °C 0,0 km/h (0 Bft)
15.10.2019 08:20 10,9 °C 77 % 1007,6 hPa 0,0 mm 0,0 km/h (0 Bft) S-SW 211 ° 0 min 0,000 mm 0,0 UV-I 16 W/m² 7,0 °C 10,9 °C 0,0 km/h (0 Bft)
15.10.2019 08:21 10,8 °C 77 % 1007,6 hPa 0,0 mm 0,0 km/h (0 Bft) S-SW 211 ° 0 min 0,000 mm 0,0 UV-I 16 W/m² 6,9 °C 10,8 °C 0,0 km/h (0 Bft)
15.10.2019 08:22 10,6 °C 78 % 1007,5 hPa 0,0 mm 0,0 km/h (0 Bft) S-SW 211 ° 0 min 0,000 mm 0,0 UV-I 16 W/m² 6,9 °C 10,6 °C 0,0 km/h (0 Bft)
15.10.2019 08:23 10,4 °C 78 % 1007,6 hPa 0,0 mm 0,0 km/h (0 Bft) S-SW 211 ° 0 min 0,000 mm 0,0 UV-I 16 W/m² 6,7 °C 10,4 °C 0,0 km/h (0 Bft)
15.10.2019 08:24 10,3 °C 79 % 1007,5 hPa 0,0 mm 0,0 km/h (0 Bft) S-SW 211 ° 0 min 0,000 mm 0,0 UV-I 16 W/m² 6,8 °C 10,3 °C 0,0 km/h (0 Bft)
15.10.2019 08:25 10,2 °C 79 % 1007,5 hPa 0,0 mm 0,0 km/h (0 Bft) S-SW 211 ° 0 min 0,000 mm 0,0 UV-I 16 W/m² 6,7 °C 10,2 °C 0,0 km/h (0 Bft)
15.10.2019 08:26 10,2 °C 79 % 1007,5 hPa 0,0 mm 0,0 km/h (0 Bft) S-SW 211 ° 0 min 0,000 mm 0,0 UV-I 16 W/m² 6,7 °C 10,2 °C 0,0 km/h (0 Bft)
15.10.2019 08:27 10,2 °C 80 % 1007,5 hPa 0,0 mm 0,0 km/h (0 Bft) S-SW 211 ° 0 min 0,000 mm 0,0 UV-I 16 W/m² 6,9 °C 10,2 °C 0,0 km/h (0 Bft)
15.10.2019 08:28 10,3 °C 80 % 1007,5 hPa 0,0 mm 0,0 km/h (0 Bft) S-SW 211 ° 0 min 0,000 mm 0,0 UV-I 16 W/m² 7,0 °C 10,3 °C 0,0 km/h (0 Bft)
15.10.2019 08:29 10,3 °C 81 % 1007,5 hPa 0,0 mm 0,0 km/h (0 Bft) S-SW 211 ° 0 min 0,000 mm 0,0 UV-I 16 W/m² 7,2 °C 10,3 °C 0,0 km/h (0 Bft)
15.10.2019 08:30 10,3 °C 81 % 1007,5 hPa 0,0 mm 0,0 km/h (0 Bft) S-SW 211 ° 0 min 0,000 mm 0,0 UV-I 18 W/m² 7,2 °C 10,3 °C 0,0 km/h (0 Bft)
15.10.2019 08:31 10,4 °C 80 % 1007,5 hPa 0,0 mm 0,0 km/h (0 Bft) S-SW 211 ° 0 min 0,000 mm 0,0 UV-I 18 W/m² 7,1 °C 10,4 °C 0,0 km/h (0 Bft)
15.10.2019 08:32 10,4 °C 80 % 1007,3 hPa 0,0 mm 0,0 km/h (0 Bft) S-SW 211 ° 0 min 0,000 mm 0,0 UV-I 18 W/m² 7,1 °C 10,4 °C 0,0 km/h (0 Bft)
15.10.2019 08:33 10,3 °C 79 % 1007,3 hPa 0,0 mm 0,0 km/h (0 Bft) S-SW 211 ° 0 min 0,000 mm 0,0 UV-I 18 W/m² 6,8 °C 10,3 °C 0,0 km/h (0 Bft)
15.10.2019 08:34 10,2 °C 80 % 1007,4 hPa 0,0 mm 0,0 km/h (0 Bft) S-SW 211 ° 0 min 0,000 mm 0,0 UV-I 18 W/m² 6,9 °C 10,2 °C 0,0 km/h (0 Bft)
15.10.2019 08:35 10,0 °C 80 % 1007,5 hPa 0,0 mm 0,0 km/h (0 Bft) S-SW 211 ° 0 min 0,000 mm 0,0 UV-I 18 W/m² 6,7 °C 10,0 °C 0,0 km/h (0 Bft)
15.10.2019 08:36 9,8 °C 80 % 1007,5 hPa 0,0 mm 0,0 km/h (0 Bft) S-SW 211 ° 0 min 0,000 mm 0,0 UV-I 18 W/m² 6,5 °C 9,8 °C 0,0 km/h (0 Bft)
15.10.2019 08:37 9,8 °C 81 % 1007,5 hPa 0,0 mm 0,0 km/h (0 Bft) S-SW 211 ° 0 min 0,000 mm 0,0 UV-I 18 W/m² 6,7 °C 9,8 °C 0,0 km/h (0 Bft)
15.10.2019 08:38 9,7 °C 81 % 1007,5 hPa 0,0 mm 0,0 km/h (0 Bft) S-SW 211 ° 0 min 0,000 mm 0,0 UV-I 18 W/m² 6,6 °C 9,7 °C 0,0 km/h (0 Bft)
15.10.2019 08:39 9,8 °C 81 % 1007,4 hPa 0,0 mm 0,0 km/h (0 Bft) S-SW 211 ° 0 min 0,000 mm 0,0 UV-I 18 W/m² 6,7 °C 9,8 °C 0,0 km/h (0 Bft)
15.10.2019 08:40 9,7 °C 81 % 1007,4 hPa 0,0 mm 0,0 km/h (0 Bft) S-SW 211 ° 0 min 0,000 mm 0,0 UV-I 18 W/m² 6,6 °C 9,7 °C 0,0 km/h (0 Bft)
15.10.2019 08:41 9,9 °C 81 % 1007,4 hPa 0,0 mm 0,0 km/h (0 Bft) S-SW 211 ° 0 min 0,000 mm 0,0 UV-I 18 W/m² 6,8 °C 9,9 °C 0,0 km/h (0 Bft)
15.10.2019 08:42 10,1 °C 80 % 1007,4 hPa 0,0 mm 0,0 km/h (0 Bft) S-SW 211 ° 0 min 0,000 mm 0,0 UV-I 19 W/m² 6,8 °C 10,1 °C 0,0 km/h (0 Bft)
15.10.2019 08:43 10,2 °C 80 % 1007,5 hPa 0,0 mm 0,0 km/h (0 Bft) S-SW 211 ° 0 min 0,000 mm 0,0 UV-I 19 W/m² 6,9 °C 10,2 °C 0,0 km/h (0 Bft)
15.10.2019 08:44 10,3 °C 80 % 1007,4 hPa 0,0 mm 0,0 km/h (0 Bft) S-SW 211 ° 0 min 0,000 mm 0,0 UV-I 19 W/m² 7,0 °C 10,3 °C 0,0 km/h (0 Bft)
15.10.2019 08:45 10,3 °C 79 % 1007,4 hPa 0,0 mm 0,0 km/h (0 Bft) S-SW 211 ° 0 min 0,000 mm 0,0 UV-I 19 W/m² 6,8 °C 10,3 °C 0,0 km/h (0 Bft)
15.10.2019 08:46 10,3 °C 81 % 1007,4 hPa 0,0 mm 2,4 km/h (1 Bft) O 92 ° 0 min 0,000 mm 0,0 UV-I 19 W/m² 7,2 °C 10,3 °C 4,8 km/h (1 Bft)
15.10.2019 08:47 10,2 °C 82 % 1007,3 hPa 0,0 mm 2,4 km/h (1 Bft) O 92 ° 0 min 0,000 mm 0,0 UV-I 19 W/m² 7,3 °C 10,2 °C 3,2 km/h (1 Bft)
15.10.2019 08:48 10,3 °C 81 % 1007,3 hPa 0,0 mm 0,2 km/h (0 Bft) O 92 ° 0 min 0,000 mm 0,0 UV-I 19 W/m² 7,2 °C 10,3 °C 1,6 km/h (1 Bft)
15.10.2019 08:49 10,4 °C 80 % 1007,3 hPa 0,0 mm 0,9 km/h (0 Bft) O 92 ° 0 min 0,000 mm 0,0 UV-I 19 W/m² 7,1 °C 10,4 °C 3,2 km/h (1 Bft)
15.10.2019 08:50 10,5 °C 80 % 1007,3 hPa 0,0 mm 1,7 km/h (1 Bft) O 92 ° 0 min 0,000 mm 0,0 UV-I 19 W/m² 7,2 °C 10,5 °C 4,8 km/h (1 Bft)
15.10.2019 08:51 10,6 °C 79 % 1007,3 hPa 0,0 mm 3,0 km/h (1 Bft) O 92 ° 0 min 0,000 mm 0,0 UV-I 19 W/m² 7,1 °C 10,6 °C 4,8 km/h (1 Bft)
15.10.2019 08:52 10,8 °C 79 % 1007,3 hPa 0,0 mm 3,0 km/h (1 Bft) O-NO 69 ° 0 min 0,000 mm 0,0 UV-I 19 W/m² 7,3 °C 10,8 °C 4,8 km/h (1 Bft)
15.10.2019 08:53 11,0 °C 79 % 1007,3 hPa 0,0 mm 0,9 km/h (0 Bft) O-NO 69 ° 0 min 0,000 mm 0,0 UV-I 19 W/m² 7,5 °C 11,0 °C 3,2 km/h (1 Bft)
15.10.2019 08:54 11,2 °C 79 % 1007,3 hPa 0,0 mm 0,1 km/h (0 Bft) O-NO 70 ° 0 min 0,000 mm 0,0 UV-I 21 W/m² 7,7 °C 11,2 °C 1,6 km/h (1 Bft)
15.10.2019 08:55 11,4 °C 78 % 1007,3 hPa 0,0 mm 0,0 km/h (0 Bft) O-NO 70 ° 0 min 0,000 mm 0,0 UV-I 21 W/m² 7,7 °C 11,4 °C 0,0 km/h (0 Bft)
15.10.2019 08:56 11,6 °C 78 % 1007,3 hPa 0,0 mm 0,0 km/h (0 Bft) O-NO 70 ° 0 min 0,000 mm 0,0 UV-I 21 W/m² 7,9 °C 11,6 °C 0,0 km/h (0 Bft)
15.10.2019 08:57 11,8 °C 77 % 1007,3 hPa 0,0 mm 0,0 km/h (0 Bft) O-NO 70 ° 0 min 0,000 mm 0,0 UV-I 21 W/m² 7,9 °C 11,8 °C 0,0 km/h (0 Bft)
15.10.2019 08:58 11,9 °C 77 % 1007,3 hPa 0,0 mm 0,0 km/h (0 Bft) O-NO 70 ° 0 min 0,000 mm 0,0 UV-I 21 W/m² 8,0 °C 11,9 °C 0,0 km/h (0 Bft)
15.10.2019 08:59 11,9 °C 77 % 1007,3 hPa 0,0 mm 0,0 km/h (0 Bft) O-NO 70 ° 0 min 0,000 mm 0,0 UV-I 21 W/m² 8,0 °C 11,9 °C 0,0 km/h (0 Bft)
15.10.2019 09:00 12,1 °C 76 % 1007,2 hPa 0,0 mm 0,0 km/h (0 Bft) O-NO 70 ° 0 min 0,000 mm 0,0 UV-I 21 W/m² 8,0 °C 12,1 °C 0,0 km/h (0 Bft)
15.10.2019 09:01 12,3 °C 76 % 1007,2 hPa 0,0 mm 0,0 km/h (0 Bft) O-NO 70 ° 0 min 0,000 mm 0,0 UV-I 21 W/m² 8,2 °C 12,3 °C 0,0 km/h (0 Bft)
15.10.2019 09:02 12,4 °C 75 % 1007,2 hPa 0,0 mm 0,0 km/h (0 Bft) O-NO 70 ° 0 min 0,000 mm 0,0 UV-I 21 W/m² 8,1 °C 12,4 °C 0,0 km/h (0 Bft)
15.10.2019 09:03 12,4 °C 76 % 1007,2 hPa 0,0 mm 0,0 km/h (0 Bft) O-NO 70 ° 0 min 0,000 mm 0,0 UV-I 21 W/m² 8,3 °C 12,4 °C 0,0 km/h (0 Bft)
15.10.2019 09:04 12,5 °C 75 % 1007,2 hPa 0,0 mm 0,0 km/h (0 Bft) O-NO 70 ° 0 min 0,000 mm 0,0 UV-I 21 W/m² 8,2 °C 12,5 °C 0,0 km/h (0 Bft)
15.10.2019 09:05 12,6 °C 74 % 1007,2 hPa 0,0 mm 0,0 km/h (0 Bft) O-NO 70 ° 0 min 0,000 mm 0,0 UV-I 23 W/m² 8,1 °C 12,6 °C 0,0 km/h (0 Bft)
15.10.2019 09:06 12,7 °C 74 % 1007,2 hPa 0,0 mm 0,0 km/h (0 Bft) O-NO 70 ° 0 min 0,000 mm 0,0 UV-I 23 W/m² 8,2 °C 12,7 °C 0,0 km/h (0 Bft)
15.10.2019 09:07 12,7 °C 74 % 1007,2 hPa 0,0 mm 0,0 km/h (0 Bft) O-NO 70 ° 0 min 0,000 mm 0,0 UV-I 23 W/m² 8,2 °C 12,7 °C 0,0 km/h (0 Bft)
15.10.2019 09:08 12,8 °C 74 % 1007,2 hPa 0,0 mm 0,0 km/h (0 Bft) O-NO 69 ° 0 min 0,000 mm 0,0 UV-I 23 W/m² 8,3 °C 12,8 °C 0,0 km/h (0 Bft)
15.10.2019 09:09 12,9 °C 73 % 1007,2 hPa 0,0 mm 0,0 km/h (0 Bft) O-NO 69 ° 0 min 0,000 mm 0,0 UV-I 23 W/m² 8,2 °C 12,9 °C 0,0 km/h (0 Bft)
15.10.2019 09:10 12,9 °C 73 % 1007,2 hPa 0,0 mm 0,0 km/h (0 Bft) O-NO 69 ° 0 min 0,000 mm 0,0 UV-I 23 W/m² 8,2 °C 12,9 °C 0,0 km/h (0 Bft)
15.10.2019 09:11 13,0 °C 72 % 1007,2 hPa 0,0 mm 0,0 km/h (0 Bft) O-NO 69 ° 0 min 0,000 mm 0,0 UV-I 23 W/m² 8,1 °C 13,0 °C 0,0 km/h (0 Bft)
15.10.2019 09:12 13,1 °C 72 % 1007,2 hPa 0,0 mm 0,0 km/h (0 Bft) O-NO 69 ° 0 min 0,000 mm 0,0 UV-I 23 W/m² 8,2 °C 13,1 °C 0,0 km/h (0 Bft)
15.10.2019 09:13 13,2 °C 72 % 1007,3 hPa 0,0 mm 0,0 km/h (0 Bft) O-NO 69 ° 0 min 0,000 mm 0,0 UV-I 23 W/m² 8,3 °C 13,2 °C 0,0 km/h (0 Bft)
15.10.2019 09:14 13,3 °C 72 % 1007,3 hPa 0,0 mm 0,0 km/h (0 Bft) O-NO 69 ° 0 min 0,000 mm 0,0 UV-I 23 W/m² 8,4 °C 13,3 °C 0,0 km/h (0 Bft)
15.10.2019 09:15 13,3 °C 71 % 1007,3 hPa 0,0 mm 0,0 km/h (0 Bft) O-NO 69 ° 0 min 0,000 mm 0,0 UV-I 23 W/m² 8,2 °C 13,3 °C 0,0 km/h (0 Bft)
15.10.2019 09:16 13,4 °C 71 % 1007,3 hPa 0,0 mm 0,0 km/h (0 Bft) O-NO 69 ° 0 min 0,000 mm 0,0 UV-I 23 W/m² 8,3 °C 13,4 °C 0,0 km/h (0 Bft)
15.10.2019 09:17 13,4 °C 71 % 1007,3 hPa 0,0 mm 0,0 km/h (0 Bft) O-NO 69 ° 0 min 0,000 mm 0,0 UV-I 25 W/m² 8,3 °C 13,4 °C 0,0 km/h (0 Bft)
15.10.2019 09:18 13,5 °C 71 % 1007,3 hPa 0,0 mm 0,0 km/h (0 Bft) O-NO 69 ° 0 min 0,000 mm 0,0 UV-I 25 W/m² 8,3 °C 13,5 °C 0,0 km/h (0 Bft)
15.10.2019 09:19 13,4 °C 72 % 1007,2 hPa 0,0 mm 0,0 km/h (0 Bft) O-NO 69 ° 0 min 0,000 mm 0,0 UV-I 25 W/m² 8,5 °C 13,4 °C 0,0 km/h (0 Bft)
15.10.2019 09:20 13,3 °C 73 % 1007,2 hPa 0,0 mm 0,0 km/h (0 Bft) O-NO 69 ° 0 min 0,000 mm 0,0 UV-I 25 W/m² 8,6 °C 13,3 °C 0,0 km/h (0 Bft)
15.10.2019 09:21 13,2 °C 74 % 1007,2 hPa 0,0 mm 0,0 km/h (0 Bft) O-NO 69 ° 0 min 0,000 mm 0,0 UV-I 25 W/m² 8,7 °C 13,2 °C 0,0 km/h (0 Bft)
15.10.2019 09:22 13,1 °C 74 % 1007,2 hPa 0,0 mm 0,0 km/h (0 Bft) O-NO 69 ° 0 min 0,000 mm 0,0 UV-I 25 W/m² 8,6 °C 13,1 °C 0,0 km/h (0 Bft)
15.10.2019 09:23 13,1 °C 74 % 1007,2 hPa 0,0 mm 0,0 km/h (0 Bft) O-NO 69 ° 0 min 0,000 mm 0,0 UV-I 26 W/m² 8,6 °C 13,1 °C 0,0 km/h (0 Bft)
15.10.2019 09:24 13,2 °C 74 % 1007,2 hPa 0,0 mm 0,0 km/h (0 Bft) O-NO 69 ° 0 min 0,000 mm 0,0 UV-I 26 W/m² 8,7 °C 13,2 °C 0,0 km/h (0 Bft)
15.10.2019 09:25 13,1 °C 74 % 1007,2 hPa 0,0 mm 0,0 km/h (0 Bft) O-NO 69 ° 0 min 0,000 mm 0,0 UV-I 26 W/m² 8,6 °C 13,1 °C 0,0 km/h (0 Bft)
15.10.2019 09:26 13,0 °C 75 % 1007,2 hPa 0,0 mm 0,0 km/h (0 Bft) O-NO 69 ° 0 min 0,000 mm 0,0 UV-I 26 W/m² 8,7 °C 13,0 °C 0,0 km/h (0 Bft)
15.10.2019 09:27 12,9 °C 75 % 1007,1 hPa 0,0 mm 0,0 km/h (0 Bft) O-NO 69 ° 0 min 0,000 mm 0,0 UV-I 26 W/m² 8,6 °C 12,9 °C 0,0 km/h (0 Bft)
15.10.2019 09:28 12,8 °C 76 % 1007,1 hPa 0,0 mm 0,7 km/h (0 Bft) O-NO 69 ° 0 min 0,000 mm 0,0 UV-I 26 W/m² 8,7 °C 12,8 °C 1,6 km/h (1 Bft)
15.10.2019 09:29 12,8 °C 76 % 1007,1 hPa 0,0 mm 0,0 km/h (0 Bft) O-NO 69 ° 0 min 0,000 mm 0,0 UV-I 28 W/m² 8,7 °C 12,8 °C 0,0 km/h (0 Bft)
15.10.2019 09:30 12,7 °C 76 % 1007,1 hPa 0,0 mm 0,0 km/h (0 Bft) O-NO 69 ° 0 min 0,000 mm 0,0 UV-I 28 W/m² 8,6 °C 12,7 °C 0,0 km/h (0 Bft)
15.10.2019 09:31 12,8 °C 76 % 1007,0 hPa 0,0 mm 0,0 km/h (0 Bft) O-NO 69 ° 0 min 0,000 mm 0,0 UV-I 28 W/m² 8,7 °C 12,8 °C 0,0 km/h (0 Bft)
15.10.2019 09:32 12,8 °C 76 % 1007,1 hPa 0,0 mm 0,0 km/h (0 Bft) O-NO 69 ° 0 min 0,000 mm 0,0 UV-I 28 W/m² 8,7 °C 12,8 °C 0,0 km/h (0 Bft)
15.10.2019 09:33 12,8 °C 76 % 1007,0 hPa 0,0 mm 1,1 km/h (1 Bft) O-NO 63 ° 0 min 0,000 mm 0,0 UV-I 28 W/m² 8,7 °C 12,8 °C 4,8 km/h (1 Bft)
15.10.2019 09:34 12,8 °C 76 % 1007,0 hPa 0,0 mm 1,1 km/h (1 Bft) O-NO 63 ° 0 min 0,000 mm 0,0 UV-I 28 W/m² 8,7 °C 12,8 °C 3,2 km/h (1 Bft)
15.10.2019 09:35 12,9 °C 76 % 1006,9 hPa 0,0 mm 1,3 km/h (1 Bft) O-NO 63 ° 0 min 0,000 mm 0,0 UV-I 28 W/m² 8,8 °C 12,9 °C 3,2 km/h (1 Bft)
15.10.2019 09:36 13,0 °C 76 % 1006,9 hPa 0,0 mm 0,0 km/h (0 Bft) O-NO 63 ° 0 min 0,000 mm 0,0 UV-I 28 W/m² 8,9 °C 13,0 °C 0,0 km/h (0 Bft)
15.10.2019 09:37 13,2 °C 76 % 1006,9 hPa 0,0 mm 0,0 km/h (0 Bft) O-NO 63 ° 0 min 0,000 mm 0,0 UV-I 28 W/m² 9,1 °C 13,2 °C 0,0 km/h (0 Bft)
15.10.2019 09:38 13,1 °C 75 % 1006,8 hPa 0,0 mm 0,0 km/h (0 Bft) O-NO 63 ° 0 min 0,000 mm 0,0 UV-I 28 W/m² 8,8 °C 13,1 °C 0,0 km/h (0 Bft)
15.10.2019 09:39 13,1 °C 76 % 1006,8 hPa 0,0 mm 0,0 km/h (0 Bft) O-NO 63 ° 0 min 0,000 mm 0,0 UV-I 28 W/m² 9,0 °C 13,1 °C 0,0 km/h (0 Bft)
15.10.2019 09:40 13,2 °C 76 % 1006,8 hPa 0,0 mm 0,0 km/h (0 Bft) O-NO 63 ° 0 min 0,000 mm 0,0 UV-I 28 W/m² 9,1 °C 13,2 °C 0,0 km/h (0 Bft)
15.10.2019 09:41 13,3 °C 75 % 1006,7 hPa 0,0 mm 2,0 km/h (1 Bft) NO 50 ° 0 min 0,000 mm 0,0 UV-I 28 W/m² 9,0 °C 13,3 °C 3,2 km/h (1 Bft)
15.10.2019 09:42 13,4 °C 75 % 1006,7 hPa 0,0 mm 2,7 km/h (1 Bft) W 280 ° 0 min 0,000 mm 0,0 UV-I 28 W/m² 9,1 °C 13,4 °C 9,7 km/h (2 Bft)
15.10.2019 09:43 13,5 °C 74 % 1006,7 hPa 0,0 mm 2,3 km/h (1 Bft) S-SO 163 ° 0 min 0,000 mm 0,0 UV-I 28 W/m² 9,0 °C 13,5 °C 8,0 km/h (2 Bft)
15.10.2019 09:44 13,7 °C 73 % 1006,7 hPa 0,0 mm 2,1 km/h (1 Bft) W-NW 297 ° 0 min 0,000 mm 0,0 UV-I 28 W/m² 8,9 °C 13,7 °C 6,4 km/h (2 Bft)
15.10.2019 09:45 13,7 °C 73 % 1006,7 hPa 0,0 mm 3,1 km/h (1 Bft) NO 50 ° 0 min 0,000 mm 0,0 UV-I 28 W/m² 8,9 °C 13,7 °C 4,8 km/h (1 Bft)
15.10.2019 09:46 13,8 °C 73 % 1006,7 hPa 0,0 mm 1,8 km/h (1 Bft) NO 50 ° 0 min 0,000 mm 0,0 UV-I 28 W/m² 9,0 °C 13,8 °C 3,2 km/h (1 Bft)
15.10.2019 09:47 13,8 °C 73 % 1006,7 hPa 0,0 mm 0,2 km/h (0 Bft) NO 50 ° 0 min 0,000 mm 0,0 UV-I 30 W/m² 9,0 °C 13,8 °C 1,6 km/h (1 Bft)
15.10.2019 09:48 14,0 °C 72 % 1006,7 hPa 0,0 mm 1,6 km/h (1 Bft) NO 44 ° 0 min 0,000 mm 0,0 UV-I 30 W/m² 9,0 °C 14,0 °C 4,8 km/h (1 Bft)
15.10.2019 09:49 14,0 °C 72 % 1006,8 hPa 0,0 mm 1,7 km/h (1 Bft) NO 44 ° 0 min 0,000 mm 0,0 UV-I 30 W/m² 9,0 °C 14,0 °C 4,8 km/h (1 Bft)
15.10.2019 09:50 14,1 °C 72 % 1006,8 hPa 0,0 mm 0,6 km/h (0 Bft) NO 44 ° 0 min 0,000 mm 0,0 UV-I 30 W/m² 9,1 °C 14,1 °C 3,2 km/h (1 Bft)
15.10.2019 09:51 14,1 °C 72 % 1006,8 hPa 0,0 mm 0,0 km/h (0 Bft) NO 44 ° 0 min 0,000 mm 0,0 UV-I 30 W/m² 9,1 °C 14,1 °C 0,0 km/h (0 Bft)
15.10.2019 09:52 14,1 °C 71 % 1006,8 hPa 0,0 mm 0,0 km/h (0 Bft) NO 44 ° 0 min 0,000 mm 0,0 UV-I 30 W/m² 8,9 °C 14,1 °C 0,0 km/h (0 Bft)
15.10.2019 09:53 14,1 °C 72 % 1006,8 hPa 0,0 mm 3,1 km/h (1 Bft) S-SO 157 ° 0 min 0,000 mm 0,0 UV-I 30 W/m² 9,1 °C 14,1 °C 6,4 km/h (2 Bft)
15.10.2019 09:54 14,2 °C 71 % 1006,8 hPa 0,0 mm 0,8 km/h (0 Bft) S-SO 157 ° 0 min 0,000 mm 0,0 UV-I 30 W/m² 9,0 °C 14,2 °C 3,2 km/h (1 Bft)
15.10.2019 09:55 14,2 °C 72 % 1006,7 hPa 0,0 mm 0,7 km/h (0 Bft) O 95 ° 0 min 0,000 mm 0,0 UV-I 30 W/m² 9,2 °C 14,2 °C 3,2 km/h (1 Bft)
15.10.2019 09:56 14,3 °C 72 % 1006,7 hPa 0,0 mm 0,0 km/h (0 Bft) O 95 ° 0 min 0,000 mm 0,0 UV-I 30 W/m² 9,3 °C 14,3 °C 0,0 km/h (0 Bft)
15.10.2019 09:57 14,3 °C 71 % 1006,7 hPa 0,0 mm 1,8 km/h (1 Bft) O 95 ° 0 min 0,000 mm 0,0 UV-I 30 W/m² 9,1 °C 14,3 °C 3,2 km/h (1 Bft)
15.10.2019 09:58 14,4 °C 70 % 1006,7 hPa 0,0 mm 0,8 km/h (0 Bft) O 95 ° 0 min 0,000 mm 0,0 UV-I 30 W/m² 9,0 °C 14,4 °C 1,6 km/h (1 Bft)
15.10.2019 09:59 14,4 °C 71 % 1006,7 hPa 0,0 mm 1,0 km/h (0 Bft) O 95 ° 0 min 0,000 mm 0,0 UV-I 30 W/m² 9,2 °C 14,4 °C 3,2 km/h (1 Bft)
15.10.2019 10:00 14,5 °C 71 % 1006,6 hPa 0,0 mm 2,2 km/h (1 Bft) NW 324 ° 0 min 0,025 mm 0,0 UV-I 30 W/m² 9,3 °C 14,5 °C 4,8 km/h (1 Bft)
15.10.2019 10:01 14,5 °C 71 % 1006,5 hPa 0,0 mm 0,6 km/h (0 Bft) NW 325 ° 0 min 0,000 mm 0,0 UV-I 32 W/m² 9,3 °C 14,5 °C 3,2 km/h (1 Bft)
15.10.2019 10:02 14,5 °C 71 % 1006,5 hPa 0,0 mm 0,9 km/h (0 Bft) NW 325 ° 0 min 0,000 mm 0,0 UV-I 32 W/m² 9,3 °C 14,5 °C 3,2 km/h (1 Bft)
15.10.2019 10:03 14,5 °C 71 % 1006,5 hPa 0,0 mm 4,3 km/h (1 Bft) S 184 ° 0 min 0,000 mm 0,0 UV-I 32 W/m² 9,3 °C 14,5 °C 9,7 km/h (2 Bft)
15.10.2019 10:04 14,6 °C 71 % 1006,5 hPa 0,0 mm 3,1 km/h (1 Bft) SO 124 ° 0 min 0,000 mm 0,0 UV-I 32 W/m² 9,4 °C 14,6 °C 6,4 km/h (2 Bft)
15.10.2019 10:05 14,7 °C 70 % 1006,5 hPa 0,0 mm 1,4 km/h (1 Bft) O-NO 73 ° 0 min 0,000 mm 0,0 UV-I 32 W/m² 9,3 °C 14,7 °C 3,2 km/h (1 Bft)
15.10.2019 10:06 14,8 °C 71 % 1006,6 hPa 0,0 mm 0,1 km/h (0 Bft) O-NO 72 ° 0 min 0,000 mm 0,0 UV-I 32 W/m² 9,6 °C 14,8 °C 1,6 km/h (1 Bft)
15.10.2019 10:07 14,8 °C 70 % 1006,6 hPa 0,0 mm 0,0 km/h (0 Bft) O-NO 72 ° 0 min 0,000 mm 0,0 UV-I 32 W/m² 9,4 °C 14,8 °C 0,0 km/h (0 Bft)
15.10.2019 10:08 14,8 °C 70 % 1006,5 hPa 0,0 mm 0,0 km/h (0 Bft) O-NO 67 ° 0 min 0,000 mm 0,0 UV-I 32 W/m² 9,4 °C 14,8 °C 0,0 km/h (0 Bft)
15.10.2019 10:09 14,9 °C 70 % 1006,5 hPa 0,0 mm 0,0 km/h (0 Bft) O-NO 67 ° 0 min 0,000 mm 0,0 UV-I 32 W/m² 9,5 °C 14,9 °C 0,0 km/h (0 Bft)
15.10.2019 10:10 14,8 °C 70 % 1006,5 hPa 0,0 mm 0,0 km/h (0 Bft) O-NO 67 ° 0 min 0,000 mm 0,0 UV-I 33 W/m² 9,4 °C 14,8 °C 0,0 km/h (0 Bft)
15.10.2019 10:11 14,8 °C 70 % 1006,5 hPa 0,0 mm 0,0 km/h (0 Bft) O-NO 68 ° 0 min 0,000 mm 0,0 UV-I 33 W/m² 9,4 °C 14,8 °C 0,0 km/h (0 Bft)
15.10.2019 10:12 14,7 °C 70 % 1006,5 hPa 0,0 mm 0,0 km/h (0 Bft) O-NO 68 ° 0 min 0,000 mm 0,0 UV-I 33 W/m² 9,3 °C 14,7 °C 0,0 km/h (0 Bft)
15.10.2019 10:13 14,7 °C 70 % 1006,6 hPa 0,0 mm 0,0 km/h (0 Bft) O-NO 66 ° 0 min 0,000 mm 0,0 UV-I 33 W/m² 9,3 °C 14,7 °C 0,0 km/h (0 Bft)
15.10.2019 10:14 14,8 °C 70 % 1006,5 hPa 0,0 mm 0,0 km/h (0 Bft) O-NO 64 ° 0 min 0,000 mm 0,0 UV-I 33 W/m² 9,4 °C 14,8 °C 0,0 km/h (0 Bft)
15.10.2019 10:15 14,7 °C 71 % 1006,5 hPa 0,0 mm 0,0 km/h (0 Bft) O-NO 64 ° 0 min 0,000 mm 0,0 UV-I 33 W/m² 9,5 °C 14,7 °C 0,0 km/h (0 Bft)
15.10.2019 10:16 14,7 °C 71 % 1006,5 hPa 0,0 mm 0,0 km/h (0 Bft) SO 136 ° 0 min 0,000 mm 0,0 UV-I 35 W/m² 9,5 °C 14,7 °C 0,0 km/h (0 Bft)
15.10.2019 10:17 14,7 °C 71 % 1006,5 hPa 0,0 mm 0,0 km/h (0 Bft) SO 136 ° 0 min 0,000 mm 0,0 UV-I 35 W/m² 9,5 °C 14,7 °C 0,0 km/h (0 Bft)
15.10.2019 10:18 14,7 °C 71 % 1006,5 hPa 0,0 mm 0,0 km/h (0 Bft) SO 136 ° 0 min 0,000 mm 0,0 UV-I 35 W/m² 9,5 °C 14,7 °C 0,0 km/h (0 Bft)
15.10.2019 10:19 14,8 °C 71 % 1006,4 hPa 0,0 mm 1,4 km/h (1 Bft) N 11 ° 0 min 0,000 mm 0,0 UV-I 35 W/m² 9,6 °C 14,8 °C 4,8 km/h (1 Bft)
15.10.2019 10:20 14,8 °C 70 % 1006,4 hPa 0,0 mm 2,1 km/h (1 Bft) N 9 ° 0 min 0,000 mm 0,0 UV-I 35 W/m² 9,4 °C 14,8 °C 4,8 km/h (1 Bft)
15.10.2019 10:21 14,9 °C 70 % 1006,5 hPa 0,0 mm 0,7 km/h (0 Bft) N-NW 333 ° 0 min 0,000 mm 0,0 UV-I 35 W/m² 9,5 °C 14,9 °C 3,2 km/h (1 Bft)
15.10.2019 10:22 15,1 °C 70 % 1006,5 hPa 0,0 mm 0,0 km/h (0 Bft) N-NW 333 ° 0 min 0,000 mm 0,0 UV-I 35 W/m² 9,7 °C 15,1 °C 0,0 km/h (0 Bft)
15.10.2019 10:23 15,2 °C 70 % 1006,5 hPa 0,0 mm 1,2 km/h (1 Bft) N-NW 333 ° 0 min 0,000 mm 0,0 UV-I 35 W/m² 9,8 °C 15,2 °C 3,2 km/h (1 Bft)
15.10.2019 10:24 15,4 °C 69 % 1006,5 hPa 0,0 mm 0,0 km/h (0 Bft) N-NW 333 ° 0 min 0,000 mm 0,0 UV-I 35 W/m² 9,7 °C 15,4 °C 0,0 km/h (0 Bft)
15.10.2019 10:25 15,4 °C 69 % 1006,5 hPa 0,0 mm 0,1 km/h (0 Bft) N-NW 333 ° 0 min 0,000 mm 0,0 UV-I 35 W/m² 9,7 °C 15,4 °C 1,6 km/h (1 Bft)
15.10.2019 10:26 15,5 °C 69 % 1006,5 hPa 0,0 mm 1,1 km/h (1 Bft) N-NW 333 ° 0 min 0,000 mm 0,0 UV-I 33 W/m² 9,8 °C 15,5 °C 3,2 km/h (1 Bft)
15.10.2019 10:27 15,6 °C 68 % 1006,5 hPa 0,0 mm 0,6 km/h (0 Bft) N-NO 14 ° 0 min 0,000 mm 0,0 UV-I 35 W/m² 9,7 °C 15,6 °C 8,0 km/h (2 Bft)
15.10.2019 10:28 15,6 °C 69 % 1006,4 hPa 0,0 mm 3,1 km/h (1 Bft) N-NO 24 ° 0 min 0,000 mm 0,0 UV-I 35 W/m² 9,9 °C 15,6 °C 8,0 km/h (2 Bft)
15.10.2019 10:29 15,7 °C 68 % 1006,5 hPa 0,0 mm 0,6 km/h (0 Bft) N-NO 24 ° 0 min 0,000 mm 0,0 UV-I 35 W/m² 9,8 °C 15,7 °C 3,2 km/h (1 Bft)
15.10.2019 10:30 15,6 °C 68 % 1006,4 hPa 0,0 mm 0,0 km/h (0 Bft) N-NO 24 ° 0 min 0,000 mm 0,0 UV-I 35 W/m² 9,7 °C 15,6 °C 0,0 km/h (0 Bft)
15.10.2019 10:31 15,7 °C 68 % 1006,4 hPa 0,0 mm 0,0 km/h (0 Bft) N-NO 24 ° 0 min 0,000 mm 0,0 UV-I 35 W/m² 9,8 °C 15,7 °C 0,0 km/h (0 Bft)
15.10.2019 10:32 15,8 °C 65 % 1006,4 hPa 0,0 mm 0,4 km/h (0 Bft) O-NO 72 ° 0 min 0,000 mm 0,0 UV-I 35 W/m² 9,2 °C 15,8 °C 3,2 km/h (1 Bft)
15.10.2019 10:33 16,0 °C 66 % 1006,4 hPa 0,0 mm 0,1 km/h (0 Bft) SO 130 ° 0 min 0,000 mm 0,0 UV-I 39 W/m² 9,7 °C 16,0 °C 1,6 km/h (1 Bft)
15.10.2019 10:34 16,2 °C 65 % 1006,3 hPa 0,0 mm 0,4 km/h (0 Bft) S-SO 157 ° 0 min 0,000 mm 0,0 UV-I 49 W/m² 9,6 °C 16,2 °C 1,6 km/h (1 Bft)
15.10.2019 10:35 16,3 °C 66 % 1006,4 hPa 0,0 mm 0,0 km/h (0 Bft) S-SO 157 ° 0 min 0,000 mm 0,0 UV-I 51 W/m² 9,9 °C 16,3 °C 0,0 km/h (0 Bft)
15.10.2019 10:36 16,3 °C 65 % 1006,4 hPa 0,0 mm 0,0 km/h (0 Bft) S-SO 157 ° 0 min 0,000 mm 0,0 UV-I 44 W/m² 9,7 °C 16,3 °C 0,0 km/h (0 Bft)
15.10.2019 10:37 16,4 °C 65 % 1006,4 hPa 0,0 mm 0,0 km/h (0 Bft) S-SO 157 ° 0 min 0,000 mm 0,0 UV-I 39 W/m² 9,8 °C 16,4 °C 0,0 km/h (0 Bft)
15.10.2019 10:38 16,4 °C 64 % 1006,4 hPa 0,0 mm 0,0 km/h (0 Bft) S-SO 157 ° 0 min 0,000 mm 0,0 UV-I 35 W/m² 9,6 °C 16,4 °C 0,0 km/h (0 Bft)
15.10.2019 10:39 16,3 °C 66 % 1006,4 hPa 0,0 mm 0,0 km/h (0 Bft) S-SO 157 ° 0 min 0,000 mm 0,0 UV-I 35 W/m² 9,9 °C 16,3 °C 0,0 km/h (0 Bft)
15.10.2019 10:40 16,3 °C 65 % 1006,4 hPa 0,0 mm 0,0 km/h (0 Bft) S-SO 157 ° 0 min 0,000 mm 0,0 UV-I 35 W/m² 9,7 °C 16,3 °C 0,0 km/h (0 Bft)
15.10.2019 10:41 16,4 °C 65 % 1006,3 hPa 0,0 mm 0,0 km/h (0 Bft) S-SO 157 ° 0 min 0,000 mm 0,0 UV-I 37 W/m² 9,8 °C 16,4 °C 0,0 km/h (0 Bft)
15.10.2019 10:42 16,4 °C 65 % 1006,3 hPa 0,0 mm 0,0 km/h (0 Bft) S-SO 157 ° 0 min 0,000 mm 0,0 UV-I 40 W/m² 9,8 °C 16,4 °C 0,0 km/h (0 Bft)
15.10.2019 10:43 16,4 °C 66 % 1006,3 hPa 0,0 mm 0,0 km/h (0 Bft) S-SO 157 ° 0 min 0,000 mm 0,0 UV-I 42 W/m² 10,0 °C 16,4 °C 0,0 km/h (0 Bft)
15.10.2019 10:44 16,3 °C 67 % 1006,3 hPa 0,0 mm 0,0 km/h (0 Bft) S-SO 157 ° 0 min 0,000 mm 0,0 UV-I 40 W/m² 10,2 °C 16,3 °C 0,0 km/h (0 Bft)
15.10.2019 10:45 16,2 °C 67 % 1006,3 hPa 0,0 mm 0,0 km/h (0 Bft) S-SO 157 ° 0 min 0,000 mm 0,0 UV-I 39 W/m² 10,1 °C 16,2 °C 0,0 km/h (0 Bft)
15.10.2019 10:46 16,1 °C 67 % 1006,3 hPa 0,0 mm 0,0 km/h (0 Bft) S-SO 157 ° 0 min 0,000 mm 0,0 UV-I 37 W/m² 10,0 °C 16,1 °C 0,0 km/h (0 Bft)
15.10.2019 10:47 16,1 °C 66 % 1006,3 hPa 0,0 mm 0,0 km/h (0 Bft) S-SO 157 ° 0 min 0,000 mm 0,0 UV-I 37 W/m² 9,7 °C 16,1 °C 0,0 km/h (0 Bft)
15.10.2019 10:48 16,2 °C 66 % 1006,3 hPa 0,0 mm 1,3 km/h (1 Bft) O-SO 113 ° 0 min 0,000 mm 0,0 UV-I 37 W/m² 9,8 °C 16,2 °C 3,2 km/h (1 Bft)
15.10.2019 10:49 16,2 °C 65 % 1006,3 hPa 0,0 mm 1,3 km/h (1 Bft) O-SO 113 ° 0 min 0,000 mm 0,0 UV-I 37 W/m² 9,6 °C 16,2 °C 3,2 km/h (1 Bft)
15.10.2019 10:50 16,3 °C 66 % 1006,2 hPa 0,0 mm 0,0 km/h (0 Bft) O-SO 113 ° 0 min 0,000 mm 0,0 UV-I 44 W/m² 9,9 °C 16,3 °C 0,0 km/h (0 Bft)
15.10.2019 10:51 16,4 °C 66 % 1006,2 hPa 0,0 mm 0,0 km/h (0 Bft) O-SO 113 ° 0 min 0,000 mm 0,0 UV-I 54 W/m² 10,0 °C 16,4 °C 0,0 km/h (0 Bft)
15.10.2019 10:52 16,5 °C 66 % 1006,3 hPa 0,0 mm 0,1 km/h (0 Bft) O-SO 113 ° 0 min 0,000 mm 0,0 UV-I 53 W/m² 10,1 °C 16,5 °C 1,6 km/h (1 Bft)
15.10.2019 10:53 16,6 °C 65 % 1006,3 hPa 0,0 mm 0,1 km/h (0 Bft) O-SO 113 ° 0 min 0,000 mm 1,3 UV-I 69 W/m² 10,0 °C 16,6 °C 1,6 km/h (1 Bft)
15.10.2019 10:54 16,6 °C 64 % 1006,3 hPa 0,0 mm 0,0 km/h (0 Bft) O-SO 113 ° 0 min 0,000 mm 1,3 UV-I 70 W/m² 9,8 °C 16,6 °C 0,0 km/h (0 Bft)
15.10.2019 10:55 16,7 °C 65 % 1006,3 hPa 0,0 mm 0,0 km/h (0 Bft) O-SO 113 ° 0 min 0,000 mm 1,3 UV-I 67 W/m² 10,1 °C 16,7 °C 0,0 km/h (0 Bft)
15.10.2019 10:56 16,7 °C 65 % 1006,2 hPa 0,0 mm 1,1 km/h (1 Bft) O-SO 113 ° 0 min 0,000 mm 1,4 UV-I 83 W/m² 10,1 °C 16,7 °C 3,2 km/h (1 Bft)
15.10.2019 10:57 16,7 °C 65 % 1006,2 hPa 0,0 mm 0,1 km/h (0 Bft) O-SO 113 ° 0 min 0,000 mm 1,5 UV-I 176 W/m² 10,1 °C 16,7 °C 1,6 km/h (1 Bft)
15.10.2019 10:58 16,6 °C 65 % 1006,2 hPa 0,0 mm 1,9 km/h (1 Bft) O-SO 112 ° 0 min 0,000 mm 1,8 UV-I 230 W/m² 10,0 °C 16,6 °C 4,8 km/h (1 Bft)
15.10.2019 10:59 16,7 °C 65 % 1006,2 hPa 0,0 mm 0,7 km/h (0 Bft) O-SO 113 ° 0 min 0,000 mm 1,9 UV-I 272 W/m² 10,1 °C 16,7 °C 3,2 km/h (1 Bft)
15.10.2019 11:00 16,9 °C 63 % 1006,2 hPa 0,0 mm 0,9 km/h (0 Bft) O-NO 74 ° 0 min 0,000 mm 2,0 UV-I 346 W/m² 9,8 °C 16,9 °C 4,8 km/h (1 Bft)
15.10.2019 11:01 17,1 °C 62 % 1006,2 hPa 0,0 mm 2,5 km/h (1 Bft) O 94 ° 0 min 0,026 mm 2,2 UV-I 410 W/m² 9,8 °C 17,1 °C 4,8 km/h (1 Bft)
15.10.2019 11:02 17,3 °C 62 % 1006,1 hPa 0,0 mm 2,0 km/h (1 Bft) O-NO 75 ° 0 min 0,000 mm 2,3 UV-I 445 W/m² 9,9 °C 17,3 °C 4,8 km/h (1 Bft)
15.10.2019 11:03 17,3 °C 63 % 1006,2 hPa 0,0 mm 2,2 km/h (1 Bft) O-NO 75 ° 0 min 0,000 mm 2,3 UV-I 443 W/m² 10,2 °C 17,3 °C 3,2 km/h (1 Bft)
15.10.2019 11:04 17,3 °C 63 % 1006,2 hPa 0,0 mm 0,6 km/h (0 Bft) O-NO 75 ° 0 min 0,000 mm 2,4 UV-I 454 W/m² 10,2 °C 17,3 °C 1,6 km/h (1 Bft)
15.10.2019 11:05 17,3 °C 62 % 1006,2 hPa 0,0 mm 0,6 km/h (0 Bft) O-NO 75 ° 0 min 0,000 mm 2,4 UV-I 454 W/m² 9,9 °C 17,3 °C 3,2 km/h (1 Bft)
15.10.2019 11:06 17,3 °C 64 % 1006,1 hPa 0,0 mm 2,1 km/h (1 Bft) O-NO 75 ° 0 min 0,000 mm 2,4 UV-I 418 W/m² 10,4 °C 17,3 °C 4,8 km/h (1 Bft)
15.10.2019 11:07 17,2 °C 62 % 1006,2 hPa 0,0 mm 1,2 km/h (1 Bft) O-NO 75 ° 0 min 0,000 mm 2,3 UV-I 366 W/m² 9,9 °C 17,2 °C 3,2 km/h (1 Bft)
15.10.2019 11:08 17,4 °C 61 % 1006,2 hPa 0,0 mm 1,4 km/h (1 Bft) O-NO 75 ° 0 min 0,000 mm 2,2 UV-I 325 W/m² 9,8 °C 17,4 °C 3,2 km/h (1 Bft)
15.10.2019 11:09 17,5 °C 61 % 1006,2 hPa 0,0 mm 1,0 km/h (0 Bft) O-NO 75 ° 0 min 0,000 mm 2,2 UV-I 288 W/m² 9,9 °C 17,5 °C 3,2 km/h (1 Bft)
15.10.2019 11:10 17,6 °C 60 % 1006,2 hPa 0,0 mm 0,9 km/h (0 Bft) O-NO 75 ° 0 min 0,000 mm 2,1 UV-I 272 W/m² 9,7 °C 17,6 °C 3,2 km/h (1 Bft)
15.10.2019 11:11 17,5 °C 64 % 1006,1 hPa 0,0 mm 0,2 km/h (0 Bft) O-NO 75 ° 0 min 0,000 mm 2,1 UV-I 267 W/m² 10,6 °C 17,5 °C 1,6 km/h (1 Bft)
15.10.2019 11:12 17,6 °C 60 % 1006,0 hPa 0,0 mm 1,8 km/h (1 Bft) O-NO 75 ° 0 min 0,000 mm 2,0 UV-I 200 W/m² 9,7 °C 17,6 °C 3,2 km/h (1 Bft)
15.10.2019 11:13 17,7 °C 60 % 1006,0 hPa 0,0 mm 0,4 km/h (0 Bft) O-NO 75 ° 0 min 0,000 mm 1,9 UV-I 155 W/m² 9,8 °C 17,7 °C 1,6 km/h (1 Bft)
15.10.2019 11:14 17,7 °C 62 % 1006,0 hPa 0,0 mm 4,7 km/h (1 Bft) SO 140 ° 0 min 0,000 mm 1,8 UV-I 162 W/m² 10,3 °C 17,7 °C 6,4 km/h (2 Bft)
15.10.2019 11:15 17,7 °C 60 % 1005,9 hPa 0,0 mm 3,2 km/h (1 Bft) SO 135 ° 0 min 0,000 mm 1,8 UV-I 267 W/m² 9,8 °C 17,7 °C 6,4 km/h (2 Bft)
15.10.2019 11:16 17,8 °C 60 % 1005,9 hPa 0,0 mm 0,5 km/h (0 Bft) SO 135 ° 0 min 0,000 mm 2,1 UV-I 214 W/m² 9,9 °C 17,8 °C 1,6 km/h (1 Bft)
15.10.2019 11:17 17,8 °C 62 % 1005,9 hPa 0,0 mm 1,7 km/h (1 Bft) NO 54 ° 0 min 0,000 mm 1,8 UV-I 214 W/m² 10,4 °C 17,8 °C 4,8 km/h (1 Bft)
15.10.2019 11:18 17,7 °C 60 % 1005,9 hPa 0,0 mm 3,8 km/h (1 Bft) S 175 ° 0 min 0,000 mm 0,0 UV-I 47 W/m² 9,8 °C 17,7 °C 6,4 km/h (2 Bft)
15.10.2019 11:19 17,7 °C 61 % 1005,9 hPa 0,0 mm 3,0 km/h (1 Bft) O 94 ° 0 min 0,000 mm 0,0 UV-I 53 W/m² 10,1 °C 17,7 °C 4,8 km/h (1 Bft)
15.10.2019 11:20 17,8 °C 61 % 1005,8 hPa 0,0 mm 4,9 km/h (1 Bft) S-SO 150 ° 0 min 0,000 mm 0,0 UV-I 42 W/m² 10,2 °C 17,8 °C 9,7 km/h (2 Bft)
15.10.2019 11:21 17,9 °C 58 % 1005,9 hPa 0,0 mm 1,4 km/h (1 Bft) S-SO 150 ° 0 min 0,000 mm 0,0 UV-I 39 W/m² 9,5 °C 17,9 °C 4,8 km/h (1 Bft)
15.10.2019 11:22 18,1 °C 58 % 1005,8 hPa 0,0 mm 1,0 km/h (0 Bft) S-SO 148 ° 0 min 0,000 mm 0,0 UV-I 39 W/m² 9,7 °C 18,1 °C 3,2 km/h (1 Bft)
15.10.2019 11:23 18,0 °C 61 % 1005,8 hPa 0,0 mm 0,1 km/h (0 Bft) S-SO 148 ° 0 min 0,000 mm 0,0 UV-I 39 W/m² 10,4 °C 18,0 °C 1,6 km/h (1 Bft)
15.10.2019 11:24 17,9 °C 60 % 1005,9 hPa 0,0 mm 0,0 km/h (0 Bft) S-SO 148 ° 0 min 0,000 mm 0,0 UV-I 46 W/m² 10,0 °C 17,9 °C 0,0 km/h (0 Bft)
15.10.2019 11:25 17,9 °C 60 % 1005,9 hPa 0,0 mm 2,0 km/h (1 Bft) O-NO 59 ° 0 min 0,000 mm 0,0 UV-I 53 W/m² 10,0 °C 17,9 °C 4,8 km/h (1 Bft)
15.10.2019 11:26 17,9 °C 59 % 1005,8 hPa 0,0 mm 2,1 km/h (1 Bft) W-NW 288 ° 0 min 0,000 mm 0,0 UV-I 53 W/m² 9,8 °C 17,9 °C 4,8 km/h (1 Bft)
15.10.2019 11:27 18,0 °C 60 % 1005,9 hPa 0,0 mm 1,0 km/h (0 Bft) W-NW 288 ° 0 min 0,000 mm 0,0 UV-I 53 W/m² 10,1 °C 18,0 °C 4,8 km/h (1 Bft)
15.10.2019 11:28 18,2 °C 56 % 1005,9 hPa 0,0 mm 0,0 km/h (0 Bft) W-NW 288 ° 0 min 0,000 mm 0,0 UV-I 47 W/m² 9,3 °C 18,2 °C 0,0 km/h (0 Bft)
15.10.2019 11:29 18,3 °C 57 % 1005,9 hPa 0,0 mm 0,5 km/h (0 Bft) W-NW 288 ° 0 min 0,000 mm 0,0 UV-I 51 W/m² 9,6 °C 18,3 °C 3,2 km/h (1 Bft)
15.10.2019 11:30 18,4 °C 58 % 1005,9 hPa 0,0 mm 0,0 km/h (0 Bft) W-NW 288 ° 0 min 0,000 mm 0,0 UV-I 51 W/m² 10,0 °C 18,4 °C 0,0 km/h (0 Bft)
15.10.2019 11:31 18,4 °C 59 % 1005,9 hPa 0,0 mm 0,8 km/h (0 Bft) W-NW 288 ° 0 min 0,000 mm 0,0 UV-I 44 W/m² 10,2 °C 18,4 °C 3,2 km/h (1 Bft)
15.10.2019 11:32 18,4 °C 60 % 1005,8 hPa 0,0 mm 0,4 km/h (0 Bft) W-NW 288 ° 0 min 0,000 mm 0,0 UV-I 56 W/m² 10,5 °C 18,4 °C 1,6 km/h (1 Bft)
15.10.2019 11:33 18,4 °C 58 % 1005,8 hPa 0,0 mm 3,9 km/h (1 Bft) O-NO 59 ° 0 min 0,000 mm 1,6 UV-I 86 W/m² 10,0 °C 18,4 °C 4,8 km/h (1 Bft)
15.10.2019 11:34 18,4 °C 58 % 1005,8 hPa 0,0 mm 2,9 km/h (1 Bft) N-NW 334 ° 0 min 0,000 mm 1,8 UV-I 86 W/m² 10,0 °C 18,4 °C 6,4 km/h (2 Bft)
15.10.2019 11:35 18,4 °C 61 % 1005,8 hPa 0,0 mm 2,8 km/h (1 Bft) O-SO 121 ° 0 min 0,000 mm 2,3 UV-I 86 W/m² 10,7 °C 18,4 °C 6,4 km/h (2 Bft)
15.10.2019 11:36 18,3 °C 58 % 1005,8 hPa 0,0 mm 0,8 km/h (0 Bft) O-SO 104 ° 0 min 0,000 mm 2,6 UV-I 413 W/m² 9,9 °C 18,3 °C 3,2 km/h (1 Bft)
15.10.2019 11:37 18,2 °C 59 % 1005,7 hPa 0,0 mm 0,9 km/h (0 Bft) O-NO 78 ° 0 min 0,000 mm 2,6 UV-I 374 W/m² 10,1 °C 18,2 °C 3,2 km/h (1 Bft)
15.10.2019 11:38 18,3 °C 57 % 1005,7 hPa 0,0 mm 1,5 km/h (1 Bft) NW 321 ° 0 min 0,000 mm 2,5 UV-I 434 W/m² 9,6 °C 18,3 °C 3,2 km/h (1 Bft)
15.10.2019 11:39 18,4 °C 61 % 1005,7 hPa 0,0 mm 2,5 km/h (1 Bft) W 265 ° 0 min 0,000 mm 2,9 UV-I 512 W/m² 10,7 °C 18,4 °C 4,8 km/h (1 Bft)
15.10.2019 11:40 18,4 °C 58 % 1005,7 hPa 0,0 mm 1,9 km/h (1 Bft) SO 126 ° 0 min 0,000 mm 2,9 UV-I 512 W/m² 10,0 °C 18,4 °C 4,8 km/h (1 Bft)
15.10.2019 11:41 18,4 °C 56 % 1005,7 hPa 0,0 mm 0,0 km/h (0 Bft) SO 127 ° 0 min 0,000 mm 2,9 UV-I 513 W/m² 9,5 °C 18,4 °C 0,0 km/h (0 Bft)
15.10.2019 11:42 18,6 °C 58 % 1005,7 hPa 0,0 mm 0,0 km/h (0 Bft) SO 127 ° 0 min 0,000 mm 2,9 UV-I 513 W/m² 10,2 °C 18,6 °C 0,0 km/h (0 Bft)
15.10.2019 11:43 18,7 °C 55 % 1005,7 hPa 0,0 mm 0,6 km/h (0 Bft) N-NW 329 ° 0 min 0,000 mm 3,0 UV-I 515 W/m² 9,5 °C 18,7 °C 3,2 km/h (1 Bft)
15.10.2019 11:44 18,7 °C 56 % 1005,7 hPa 0,0 mm 0,9 km/h (0 Bft) N 5 ° 0 min 0,000 mm 3,0 UV-I 519 W/m² 9,7 °C 18,7 °C 3,2 km/h (1 Bft)
15.10.2019 11:45 18,8 °C 55 % 1005,7 hPa 0,0 mm 0,0 km/h (0 Bft) N 5 ° 0 min 0,000 mm 3,0 UV-I 519 W/m² 9,6 °C 18,8 °C 0,0 km/h (0 Bft)
15.10.2019 11:46 18,8 °C 55 % 1005,7 hPa 0,0 mm 0,0 km/h (0 Bft) N 5 ° 0 min 0,000 mm 3,0 UV-I 520 W/m² 9,6 °C 18,8 °C 0,0 km/h (0 Bft)
15.10.2019 11:47 18,9 °C 54 % 1005,7 hPa 0,0 mm 0,0 km/h (0 Bft) N 5 ° 0 min 0,000 mm 3,0 UV-I 520 W/m² 9,4 °C 18,9 °C 0,0 km/h (0 Bft)
15.10.2019 11:48 19,1 °C 53 % 1005,6 hPa 0,0 mm 0,0 km/h (0 Bft) N 5 ° 0 min 0,000 mm 3,0 UV-I 522 W/m² 9,3 °C 19,1 °C 0,0 km/h (0 Bft)
15.10.2019 11:49 19,3 °C 56 % 1005,6 hPa 0,0 mm 0,3 km/h (0 Bft) W-NW 297 ° 0 min 0,000 mm 3,0 UV-I 522 W/m² 10,3 °C 19,3 °C 3,2 km/h (1 Bft)
15.10.2019 11:50 19,2 °C 59 % 1005,7 hPa 0,0 mm 1,3 km/h (1 Bft) S 191 ° 0 min 0,000 mm 3,0 UV-I 526 W/m² 11,0 °C 19,2 °C 3,2 km/h (1 Bft)
15.10.2019 11:51 18,9 °C 59 % 1005,6 hPa 0,0 mm 2,4 km/h (1 Bft) S 191 ° 0 min 0,000 mm 3,1 UV-I 527 W/m² 10,7 °C 18,9 °C 3,2 km/h (1 Bft)
15.10.2019 11:52 18,9 °C 59 % 1005,5 hPa 0,0 mm 2,4 km/h (1 Bft) W 277 ° 0 min 0,000 mm 3,1 UV-I 527 W/m² 10,7 °C 18,9 °C 4,8 km/h (1 Bft)
15.10.2019 11:53 18,8 °C 57 % 1005,6 hPa 0,0 mm 0,3 km/h (0 Bft) W 277 ° 0 min 0,000 mm 3,1 UV-I 531 W/m² 10,1 °C 18,8 °C 1,6 km/h (1 Bft)
15.10.2019 11:54 19,0 °C 57 % 1005,5 hPa 0,0 mm 2,5 km/h (1 Bft) W 278 ° 0 min 0,000 mm 3,1 UV-I 531 W/m² 10,3 °C 19,0 °C 4,8 km/h (1 Bft)
15.10.2019 11:55 18,9 °C 58 % 1005,5 hPa 0,0 mm 2,5 km/h (1 Bft) S 190 ° 0 min 0,000 mm 3,1 UV-I 533 W/m² 10,5 °C 18,9 °C 6,4 km/h (2 Bft)
15.10.2019 11:56 19,3 °C 53 % 1005,5 hPa 0,0 mm 5,0 km/h (1 Bft) SO 134 ° 0 min 0,000 mm 3,1 UV-I 531 W/m² 9,5 °C 19,3 °C 8,0 km/h (2 Bft)
15.10.2019 11:57 19,4 °C 56 % 1005,5 hPa 0,0 mm 2,3 km/h (1 Bft) O-SO 110 ° 0 min 0,000 mm 3,1 UV-I 533 W/m² 10,4 °C 19,4 °C 4,8 km/h (1 Bft)
15.10.2019 11:58 19,4 °C 57 % 1005,5 hPa 0,0 mm 1,4 km/h (1 Bft) O-SO 104 ° 0 min 0,000 mm 3,1 UV-I 534 W/m² 10,7 °C 19,4 °C 3,2 km/h (1 Bft)
15.10.2019 11:59 19,5 °C 56 % 1005,5 hPa 0,0 mm 0,4 km/h (0 Bft) NO 53 ° 0 min 0,000 mm 3,1 UV-I 534 W/m² 10,5 °C 19,5 °C 1,6 km/h (1 Bft)
15.10.2019 12:00 19,5 °C 56 % 1005,5 hPa 0,0 mm 2,0 km/h (1 Bft) O 82 ° 0 min 0,000 mm 3,2 UV-I 534 W/m² 10,5 °C 19,5 °C 3,2 km/h (1 Bft)
15.10.2019 12:01 19,5 °C 56 % 1005,5 hPa 0,0 mm 0,3 km/h (0 Bft) O 82 ° 0 min 0,203 mm 3,2 UV-I 538 W/m² 10,5 °C 19,5 °C 1,6 km/h (1 Bft)
15.10.2019 12:02 19,6 °C 55 % 1005,5 hPa 0,0 mm 2,2 km/h (1 Bft) N 350 ° 0 min 0,000 mm 3,2 UV-I 538 W/m² 10,3 °C 19,6 °C 4,8 km/h (1 Bft)
15.10.2019 12:03 19,8 °C 55 % 1005,4 hPa 0,0 mm 3,4 km/h (1 Bft) O-SO 110 ° 0 min 0,000 mm 3,2 UV-I 540 W/m² 10,5 °C 19,8 °C 6,4 km/h (2 Bft)
15.10.2019 12:04 19,8 °C 54 % 1005,5 hPa 0,0 mm 2,3 km/h (1 Bft) O 84 ° 0 min 0,000 mm 3,2 UV-I 540 W/m² 10,2 °C 19,8 °C 4,8 km/h (1 Bft)
15.10.2019 12:05 19,8 °C 55 % 1005,5 hPa 0,0 mm 1,2 km/h (1 Bft) O 84 ° 0 min 0,000 mm 3,2 UV-I 541 W/m² 10,5 °C 19,8 °C 4,8 km/h (1 Bft)
15.10.2019 12:06 19,8 °C 57 % 1005,5 hPa 0,0 mm 4,8 km/h (1 Bft) O-SO 123 ° 0 min 0,000 mm 3,2 UV-I 541 W/m² 11,0 °C 19,8 °C 6,4 km/h (2 Bft)
15.10.2019 12:07 19,7 °C 60 % 1005,6 hPa 0,0 mm 2,9 km/h (1 Bft) SO 141 ° 0 min 0,000 mm 3,2 UV-I 541 W/m² 11,7 °C 19,7 °C 4,8 km/h (1 Bft)
15.10.2019 12:08 19,8 °C 57 % 1005,5 hPa 0,0 mm 2,2 km/h (1 Bft) SO 141 ° 0 min 0,000 mm 3,2 UV-I 545 W/m² 11,0 °C 19,8 °C 4,8 km/h (1 Bft)
15.10.2019 12:09 19,9 °C 55 % 1005,5 hPa 0,0 mm 1,8 km/h (1 Bft) NW 304 ° 0 min 0,000 mm 3,2 UV-I 543 W/m² 10,6 °C 19,9 °C 6,4 km/h (2 Bft)
15.10.2019 12:10 20,3 °C 50 % 1005,5 hPa 0,0 mm 2,7 km/h (1 Bft) W-NW 296 ° 0 min 0,000 mm 3,2 UV-I 545 W/m² 9,5 °C 20,3 °C 4,8 km/h (1 Bft)
15.10.2019 12:11 20,3 °C 55 % 1005,6 hPa 0,0 mm 0,8 km/h (0 Bft) W-NW 296 ° 0 min 0,000 mm 3,2 UV-I 545 W/m² 11,0 °C 20,3 °C 3,2 km/h (1 Bft)
15.10.2019 12:12 20,1 °C 54 % 1005,6 hPa 0,0 mm 0,6 km/h (0 Bft) W-NW 303 ° 0 min 0,000 mm 3,3 UV-I 547 W/m² 10,5 °C 20,1 °C 3,2 km/h (1 Bft)
15.10.2019 12:13 19,8 °C 56 % 1005,5 hPa 0,0 mm 1,0 km/h (0 Bft) W-NW 303 ° 0 min 0,000 mm 3,3 UV-I 547 W/m² 10,8 °C 19,8 °C 3,2 km/h (1 Bft)
15.10.2019 12:14 19,8 °C 53 % 1005,6 hPa 0,0 mm 3,4 km/h (1 Bft) W 281 ° 0 min 0,000 mm 3,3 UV-I 547 W/m² 9,9 °C 19,8 °C 4,8 km/h (1 Bft)
15.10.2019 12:15 20,0 °C 58 % 1005,6 hPa 0,0 mm 3,8 km/h (1 Bft) W 262 ° 0 min 0,000 mm 3,3 UV-I 548 W/m² 11,5 °C 20,0 °C 6,4 km/h (2 Bft)
15.10.2019 12:16 20,3 °C 50 % 1005,6 hPa 0,0 mm 1,7 km/h (1 Bft) W-SW 258 ° 0 min 0,000 mm 3,3 UV-I 548 W/m² 9,5 °C 20,3 °C 3,2 km/h (1 Bft)
15.10.2019 12:17 20,4 °C 55 % 1005,6 hPa 0,0 mm 0,3 km/h (0 Bft) W-SW 258 ° 0 min 0,000 mm 3,3 UV-I 550 W/m² 11,1 °C 20,4 °C 1,6 km/h (1 Bft)
15.10.2019 12:18 20,2 °C 54 % 1005,5 hPa 0,0 mm 0,0 km/h (0 Bft) W-SW 258 ° 0 min 0,000 mm 3,3 UV-I 550 W/m² 10,6 °C 20,2 °C 0,0 km/h (0 Bft)
15.10.2019 12:19 19,9 °C 62 % 1005,5 hPa 0,0 mm 0,5 km/h (0 Bft) W-SW 258 ° 0 min 0,000 mm 3,3 UV-I 552 W/m² 12,4 °C 19,9 °C 3,2 km/h (1 Bft)
15.10.2019 12:20 19,8 °C 53 % 1005,5 hPa 0,0 mm 1,9 km/h (1 Bft) O-NO 70 ° 0 min 0,000 mm 3,3 UV-I 554 W/m² 9,9 °C 19,8 °C 4,8 km/h (1 Bft)
15.10.2019 12:21 19,9 °C 60 % 1005,5 hPa 0,0 mm 1,5 km/h (1 Bft) NW 313 ° 0 min 0,000 mm 3,3 UV-I 554 W/m² 11,9 °C 19,9 °C 4,8 km/h (1 Bft)
15.10.2019 12:22 19,8 °C 59 % 1005,5 hPa 0,0 mm 1,4 km/h (1 Bft) N-NW 343 ° 0 min 0,000 mm 3,3 UV-I 557 W/m² 11,6 °C 19,8 °C 3,2 km/h (1 Bft)
15.10.2019 12:23 19,8 °C 54 % 1005,4 hPa 0,0 mm 2,9 km/h (1 Bft) N-NW 342 ° 0 min 0,000 mm 3,3 UV-I 557 W/m² 10,2 °C 19,8 °C 4,8 km/h (1 Bft)
15.10.2019 12:24 19,9 °C 52 % 1005,4 hPa 0,0 mm 1,4 km/h (1 Bft) N-NW 342 ° 0 min 0,000 mm 3,3 UV-I 561 W/m² 9,7 °C 19,9 °C 4,8 km/h (1 Bft)
15.10.2019 12:25 20,1 °C 58 % 1005,5 hPa 0,0 mm 1,2 km/h (1 Bft) N 350 ° 0 min 0,000 mm 3,1 UV-I 534 W/m² 11,6 °C 20,1 °C 3,2 km/h (1 Bft)
15.10.2019 12:26 19,9 °C 58 % 1005,5 hPa 0,0 mm 0,1 km/h (0 Bft) N 350 ° 0 min 0,000 mm 3,4 UV-I 577 W/m² 11,4 °C 19,9 °C 1,6 km/h (1 Bft)
15.10.2019 12:27 19,9 °C 58 % 1005,4 hPa 0,0 mm 2,8 km/h (1 Bft) O 97 ° 0 min 0,000 mm 3,2 UV-I 499 W/m² 11,4 °C 19,9 °C 4,8 km/h (1 Bft)
15.10.2019 12:28 20,0 °C 50 % 1005,4 hPa 0,0 mm 2,6 km/h (1 Bft) SW 225 ° 0 min 0,000 mm 3,3 UV-I 555 W/m² 9,3 °C 20,0 °C 4,8 km/h (1 Bft)
15.10.2019 12:29 20,3 °C 53 % 1005,4 hPa 0,0 mm 1,3 km/h (1 Bft) S-SW 195 ° 0 min 0,000 mm 3,3 UV-I 559 W/m² 10,4 °C 20,3 °C 3,2 km/h (1 Bft)
15.10.2019 12:30 20,4 °C 51 % 1005,4 hPa 0,0 mm 2,0 km/h (1 Bft) SO 140 ° 0 min 0,000 mm 3,4 UV-I 596 W/m² 9,9 °C 20,4 °C 6,4 km/h (2 Bft)
15.10.2019 12:31 20,7 °C 48 % 1005,3 hPa 0,0 mm 2,4 km/h (1 Bft) O 97 ° 0 min 0,000 mm 3,4 UV-I 563 W/m² 9,3 °C 20,7 °C 4,8 km/h (1 Bft)
15.10.2019 12:32 20,7 °C 53 % 1005,3 hPa 0,0 mm 1,8 km/h (1 Bft) S-SO 151 ° 1 min 0,000 mm 3,4 UV-I 603 W/m² 10,8 °C 20,7 °C 4,8 km/h (1 Bft)
15.10.2019 12:33 20,9 °C 50 % 1005,3 hPa 0,0 mm 0,7 km/h (0 Bft) O-NO 73 ° 0 min 0,000 mm 3,3 UV-I 584 W/m² 10,1 °C 20,9 °C 3,2 km/h (1 Bft)
15.10.2019 12:34 20,9 °C 55 % 1005,3 hPa 0,0 mm 0,0 km/h (0 Bft) N-NO 27 ° 0 min 0,000 mm 3,3 UV-I 582 W/m² 11,5 °C 20,9 °C 0,0 km/h (0 Bft)
15.10.2019 12:35 20,8 °C 59 % 1005,3 hPa 0,0 mm 1,0 km/h (0 Bft) N-NW 336 ° 0 min 0,000 mm 3,2 UV-I 503 W/m² 12,5 °C 20,8 °C 3,2 km/h (1 Bft)
15.10.2019 12:36 20,7 °C 52 % 1005,2 hPa 0,0 mm 0,0 km/h (0 Bft) O-NO 71 ° 0 min 0,000 mm 3,3 UV-I 589 W/m² 10,5 °C 20,7 °C 0,0 km/h (0 Bft)
15.10.2019 12:37 20,7 °C 54 % 1005,2 hPa 0,0 mm 0,5 km/h (0 Bft) O-NO 59 ° 0 min 0,000 mm 3,5 UV-I 584 W/m² 11,1 °C 20,7 °C 6,4 km/h (2 Bft)
15.10.2019 12:38 20,8 °C 51 % 1005,2 hPa 0,0 mm 6,0 km/h (2 Bft) S-SO 163 ° 1 min 0,000 mm 3,5 UV-I 622 W/m² 10,3 °C 20,8 °C 11,3 km/h (2 Bft)
15.10.2019 12:39 20,8 °C 53 % 1005,3 hPa 0,0 mm 2,9 km/h (1 Bft) NO 52 ° 1 min 0,000 mm 3,6 UV-I 622 W/m² 10,9 °C 20,8 °C 3,2 km/h (1 Bft)
15.10.2019 12:40 20,8 °C 51 % 1005,2 hPa 0,0 mm 5,7 km/h (1 Bft) O-NO 76 ° 1 min 0,000 mm 3,6 UV-I 626 W/m² 10,3 °C 20,8 °C 8,0 km/h (2 Bft)
15.10.2019 12:41 20,8 °C 50 % 1005,2 hPa 0,0 mm 3,2 km/h (1 Bft) O-SO 119 ° 1 min 0,000 mm 3,6 UV-I 624 W/m² 10,0 °C 20,8 °C 6,4 km/h (2 Bft)
15.10.2019 12:42 20,8 °C 54 % 1005,2 hPa 0,0 mm 2,5 km/h (1 Bft) O-SO 119 ° 1 min 0,000 mm 3,6 UV-I 617 W/m² 11,1 °C 20,8 °C 4,8 km/h (1 Bft)
15.10.2019 12:43 20,8 °C 54 % 1005,2 hPa 0,0 mm 6,4 km/h (2 Bft) O 92 ° 1 min 0,000 mm 3,6 UV-I 617 W/m² 11,1 °C 20,8 °C 9,7 km/h (2 Bft)
15.10.2019 12:44 20,8 °C 53 % 1005,1 hPa 0,0 mm 5,8 km/h (2 Bft) S-SO 165 ° 1 min 0,000 mm 3,6 UV-I 612 W/m² 10,9 °C 20,8 °C 11,3 km/h (2 Bft)
15.10.2019 12:45 20,9 °C 48 % 1005,1 hPa 0,0 mm 3,8 km/h (1 Bft) O-SO 109 ° 1 min 0,000 mm 3,6 UV-I 608 W/m² 9,5 °C 20,9 °C 8,0 km/h (2 Bft)
15.10.2019 12:46 21,1 °C 49 % 1005,1 hPa 0,0 mm 1,8 km/h (1 Bft) O 82 ° 1 min 0,000 mm 3,6 UV-I 603 W/m² 10,0 °C 21,1 °C 3,2 km/h (1 Bft)
15.10.2019 12:47 21,1 °C 54 % 1005,0 hPa 0,0 mm 2,1 km/h (1 Bft) O-NO 77 ° 0 min 0,000 mm 3,5 UV-I 591 W/m² 11,4 °C 21,1 °C 4,8 km/h (1 Bft)
15.10.2019 12:48 21,2 °C 51 % 1005,0 hPa 0,0 mm 2,7 km/h (1 Bft) NO 55 ° 0 min 0,000 mm 3,5 UV-I 582 W/m² 10,7 °C 21,2 °C 4,8 km/h (1 Bft)
15.10.2019 12:49 21,2 °C 51 % 1005,0 hPa 0,0 mm 1,7 km/h (1 Bft) W 270 ° 0 min 0,000 mm 3,5 UV-I 584 W/m² 10,7 °C 21,2 °C 4,8 km/h (1 Bft)
15.10.2019 12:50 21,2 °C 51 % 1004,9 hPa 0,0 mm 3,6 km/h (1 Bft) O-SO 119 ° 0 min 0,000 mm 3,5 UV-I 577 W/m² 10,7 °C 21,2 °C 6,4 km/h (2 Bft)
15.10.2019 12:51 21,2 °C 49 % 1005,0 hPa 0,0 mm 0,5 km/h (0 Bft) O-SO 109 ° 0 min 0,000 mm 3,5 UV-I 571 W/m² 10,1 °C 21,2 °C 1,6 km/h (1 Bft)
15.10.2019 12:52 21,1 °C 52 % 1004,9 hPa 0,0 mm 3,5 km/h (1 Bft) N-NW 330 ° 0 min 0,000 mm 3,5 UV-I 571 W/m² 10,9 °C 21,1 °C 6,4 km/h (2 Bft)
15.10.2019 12:53 21,1 °C 51 % 1004,9 hPa 0,0 mm 5,5 km/h (1 Bft) O-SO 114 ° 0 min 0,000 mm 3,4 UV-I 529 W/m² 10,6 °C 21,1 °C 9,7 km/h (2 Bft)
15.10.2019 12:54 21,0 °C 51 % 1005,0 hPa 0,0 mm 6,6 km/h (2 Bft) N-NO 32 ° 0 min 0,000 mm 3,3 UV-I 519 W/m² 10,5 °C 21,0 °C 9,7 km/h (2 Bft)
15.10.2019 12:55 21,1 °C 49 % 1005,0 hPa 0,0 mm 4,3 km/h (1 Bft) O 81 ° 0 min 0,000 mm 3,3 UV-I 513 W/m² 10,0 °C 21,1 °C 8,0 km/h (2 Bft)
15.10.2019 12:56 21,1 °C 50 % 1005,0 hPa 0,0 mm 3,7 km/h (1 Bft) O 86 ° 0 min 0,000 mm 3,2 UV-I 475 W/m² 10,3 °C 21,1 °C 8,0 km/h (2 Bft)
15.10.2019 12:57 20,9 °C 47 % 1004,9 hPa 0,0 mm 6,0 km/h (2 Bft) O-NO 64 ° 0 min 0,000 mm 3,2 UV-I 513 W/m² 9,2 °C 20,9 °C 8,0 km/h (2 Bft)
15.10.2019 12:58 21,1 °C 48 % 1004,9 hPa 0,0 mm 5,0 km/h (1 Bft) N 360 ° 0 min 0,000 mm 3,1 UV-I 480 W/m² 9,7 °C 21,1 °C 8,0 km/h (2 Bft)
15.10.2019 12:59 21,1 °C 51 % 1004,9 hPa 0,0 mm 4,2 km/h (1 Bft) O-SO 123 ° 0 min 0,000 mm 3,2 UV-I 489 W/m² 10,6 °C 21,1 °C 6,4 km/h (2 Bft)
15.10.2019 13:00 20,9 °C 50 % 1004,9 hPa 0,0 mm 2,5 km/h (1 Bft) O-NO 58 ° 0 min 0,000 mm 3,3 UV-I 568 W/m² 10,1 °C 20,9 °C 4,8 km/h (1 Bft)
15.10.2019 13:01 20,9 °C 52 % 1004,9 hPa 0,0 mm 2,2 km/h (1 Bft) O-NO 59 ° 0 min 0,356 mm 3,4 UV-I 564 W/m² 10,7 °C 20,9 °C 3,2 km/h (1 Bft)
15.10.2019 13:02 20,8 °C 50 % 1004,8 hPa 0,0 mm 5,8 km/h (2 Bft) NO 42 ° 0 min 0,000 mm 3,5 UV-I 578 W/m² 10,0 °C 20,8 °C 11,3 km/h (2 Bft)
15.10.2019 13:03 20,8 °C 51 % 1004,8 hPa 0,0 mm 3,1 km/h (1 Bft) O-SO 115 ° 0 min 0,000 mm 3,5 UV-I 599 W/m² 10,3 °C 20,8 °C 4,8 km/h (1 Bft)
15.10.2019 13:04 20,8 °C 49 % 1004,7 hPa 0,0 mm 3,6 km/h (1 Bft) SO 129 ° 0 min 0,000 mm 3,5 UV-I 599 W/m² 9,7 °C 20,8 °C 6,4 km/h (2 Bft)
15.10.2019 13:05 21,1 °C 50 % 1004,7 hPa 0,0 mm 0,5 km/h (0 Bft) SO 129 ° 1 min 0,000 mm 3,5 UV-I 606 W/m² 10,3 °C 21,1 °C 3,2 km/h (1 Bft)
15.10.2019 13:06 21,1 °C 50 % 1004,8 hPa 0,0 mm 0,0 km/h (0 Bft) SO 129 ° 1 min 0,000 mm 3,5 UV-I 606 W/m² 10,3 °C 21,1 °C 0,0 km/h (0 Bft)
15.10.2019 13:07 21,1 °C 49 % 1004,7 hPa 0,0 mm 2,1 km/h (1 Bft) NO 47 ° 1 min 0,000 mm 3,6 UV-I 608 W/m² 10,0 °C 21,1 °C 6,4 km/h (2 Bft)
15.10.2019 13:08 20,9 °C 52 % 1004,7 hPa 0,0 mm 4,4 km/h (1 Bft) O-SO 119 ° 1 min 0,000 mm 3,6 UV-I 606 W/m² 10,7 °C 20,9 °C 6,4 km/h (2 Bft)
15.10.2019 13:09 20,9 °C 48 % 1004,7 hPa 0,0 mm 2,3 km/h (1 Bft) O-NO 65 ° 1 min 0,000 mm 3,6 UV-I 608 W/m² 9,5 °C 20,9 °C 4,8 km/h (1 Bft)
15.10.2019 13:10 21,2 °C 48 % 1004,7 hPa 0,0 mm 4,7 km/h (1 Bft) O-NO 67 ° 1 min 0,000 mm 3,6 UV-I 605 W/m² 9,7 °C 21,2 °C 8,0 km/h (2 Bft)
15.10.2019 13:11 21,2 °C 51 % 1004,6 hPa 0,0 mm 5,6 km/h (1 Bft) NO 48 ° 1 min 0,000 mm 3,6 UV-I 605 W/m² 10,7 °C 21,2 °C 11,3 km/h (2 Bft)
15.10.2019 13:12 21,3 °C 52 % 1004,6 hPa 0,0 mm 4,0 km/h (1 Bft) O-SO 115 ° 0 min 0,000 mm 3,6 UV-I 598 W/m² 11,0 °C 21,3 °C 6,4 km/h (2 Bft)
15.10.2019 13:13 21,3 °C 54 % 1004,6 hPa 0,0 mm 2,4 km/h (1 Bft) O 90 ° 0 min 0,000 mm 3,6 UV-I 587 W/m² 11,6 °C 21,3 °C 4,8 km/h (1 Bft)
15.10.2019 13:14 21,3 °C 53 % 1004,6 hPa 0,0 mm 4,2 km/h (1 Bft) S-SO 157 ° 1 min 0,000 mm 3,6 UV-I 601 W/m² 11,3 °C 21,3 °C 9,7 km/h (2 Bft)
15.10.2019 13:15 21,2 °C 53 % 1004,5 hPa 0,0 mm 2,2 km/h (1 Bft) O 94 ° 0 min 0,000 mm 3,6 UV-I 599 W/m² 11,2 °C 21,2 °C 4,8 km/h (1 Bft)
15.10.2019 13:16 21,1 °C 47 % 1004,5 hPa 0,0 mm 1,1 km/h (1 Bft) NO 55 ° 0 min 0,000 mm 3,5 UV-I 587 W/m² 9,3 °C 21,1 °C 3,2 km/h (1 Bft)
15.10.2019 13:17 21,2 °C 50 % 1004,5 hPa 0,0 mm 1,3 km/h (1 Bft) NO 55 ° 0 min 0,000 mm 3,4 UV-I 561 W/m² 10,4 °C 21,2 °C 3,2 km/h (1 Bft)
15.10.2019 13:18 21,2 °C 51 % 1004,5 hPa 0,0 mm 2,0 km/h (1 Bft) NW 304 ° 1 min 0,000 mm 3,5 UV-I 605 W/m² 10,7 °C 21,2 °C 4,8 km/h (1 Bft)
15.10.2019 13:19 21,2 °C 53 % 1004,5 hPa 0,0 mm 4,6 km/h (1 Bft) NO 55 ° 1 min 0,000 mm 3,6 UV-I 603 W/m² 11,2 °C 21,2 °C 8,0 km/h (2 Bft)
15.10.2019 13:20 21,1 °C 56 % 1004,4 hPa 0,0 mm 4,8 km/h (1 Bft) O 98 ° 0 min 0,000 mm 3,4 UV-I 545 W/m² 12,0 °C 21,1 °C 8,0 km/h (2 Bft)
15.10.2019 13:21 21,3 °C 53 % 1004,5 hPa 0,0 mm 0,9 km/h (0 Bft) O-SO 102 ° 0 min 0,000 mm 3,4 UV-I 561 W/m² 11,3 °C 21,3 °C 1,6 km/h (1 Bft)
15.10.2019 13:22 21,6 °C 50 % 1004,4 hPa 0,0 mm 0,1 km/h (0 Bft) O-SO 102 ° 0 min 0,000 mm 3,2 UV-I 561 W/m² 10,7 °C 21,6 °C 1,6 km/h (1 Bft)
15.10.2019 13:23 21,6 °C 51 % 1004,4 hPa 0,0 mm 3,4 km/h (1 Bft) N-NO 30 ° 0 min 0,000 mm 3,2 UV-I 531 W/m² 11,0 °C 21,6 °C 8,0 km/h (2 Bft)
15.10.2019 13:24 21,4 °C 51 % 1004,4 hPa 0,0 mm 5,2 km/h (1 Bft) W-NW 292 ° 0 min 0,000 mm 3,3 UV-I 550 W/m² 10,8 °C 21,4 °C 11,3 km/h (2 Bft)
15.10.2019 13:25 21,6 °C 47 % 1004,4 hPa 0,0 mm 4,0 km/h (1 Bft) S 187 ° 0 min 0,000 mm 3,1 UV-I 489 W/m² 9,8 °C 21,6 °C 9,7 km/h (2 Bft)
15.10.2019 13:26 21,7 °C 48 % 1004,4 hPa 0,0 mm 3,1 km/h (1 Bft) S-SW 200 ° 0 min 0,000 mm 3,0 UV-I 455 W/m² 10,2 °C 21,7 °C 6,4 km/h (2 Bft)
15.10.2019 13:27 21,8 °C 45 % 1004,4 hPa 0,0 mm 2,6 km/h (1 Bft) O-NO 74 ° 0 min 0,000 mm 3,1 UV-I 531 W/m² 9,3 °C 21,8 °C 6,4 km/h (2 Bft)
15.10.2019 13:28 21,7 °C 49 % 1004,4 hPa 0,0 mm 3,6 km/h (1 Bft) O-NO 61 ° 0 min 0,000 mm 2,6 UV-I 531 W/m² 10,5 °C 21,7 °C 4,8 km/h (1 Bft)
15.10.2019 13:29 21,6 °C 49 % 1004,4 hPa 0,2 mm 3,4 km/h (1 Bft) O-NO 63 ° 0 min 0,000 mm 2,4 UV-I 232 W/m² 10,4 °C 21,6 °C 6,4 km/h (2 Bft)
15.10.2019 13:30 21,4 °C 52 % 1004,3 hPa 0,0 mm 1,2 km/h (1 Bft) O-NO 63 ° 0 min 0,000 mm 2,3 UV-I 234 W/m² 11,1 °C 21,4 °C 3,2 km/h (1 Bft)
15.10.2019 13:31 21,2 °C 49 % 1004,3 hPa 0,0 mm 3,7 km/h (1 Bft) O 98 ° 0 min 0,000 mm 2,8 UV-I 234 W/m² 10,1 °C 21,2 °C 6,4 km/h (2 Bft)
15.10.2019 13:32 21,2 °C 50 % 1004,3 hPa 0,0 mm 4,3 km/h (1 Bft) O-NO 65 ° 0 min 0,000 mm 2,7 UV-I 234 W/m² 10,4 °C 21,2 °C 6,4 km/h (2 Bft)
15.10.2019 13:33 21,2 °C 50 % 1004,3 hPa 0,0 mm 1,9 km/h (1 Bft) O-NO 65 ° 0 min 0,000 mm 2,9 UV-I 234 W/m² 10,4 °C 21,2 °C 3,2 km/h (1 Bft)
15.10.2019 13:34 21,0 °C 54 % 1004,2 hPa 0,0 mm 0,8 km/h (0 Bft) O-NO 65 ° 0 min 0,000 mm 3,2 UV-I 234 W/m² 11,3 °C 21,0 °C 3,2 km/h (1 Bft)
15.10.2019 13:35 20,8 °C 54 % 1004,3 hPa 0,0 mm 3,1 km/h (1 Bft) W-NW 297 ° 1 min 0,000 mm 3,4 UV-I 619 W/m² 11,1 °C 20,8 °C 4,8 km/h (1 Bft)
15.10.2019 13:36 20,8 °C 55 % 1004,3 hPa 0,0 mm 1,7 km/h (1 Bft) W 281 ° 0 min 0,000 mm 3,3 UV-I 552 W/m² 11,4 °C 20,8 °C 3,2 km/h (1 Bft)
15.10.2019 13:37 20,7 °C 53 % 1004,3 hPa 0,0 mm 1,4 km/h (1 Bft) W 281 ° 0 min 0,000 mm 3,3 UV-I 566 W/m² 10,8 °C 20,7 °C 3,2 km/h (1 Bft)
15.10.2019 13:38 20,8 °C 51 % 1004,3 hPa 0,0 mm 0,9 km/h (0 Bft) W 281 ° 0 min 0,000 mm 3,3 UV-I 570 W/m² 10,3 °C 20,8 °C 3,2 km/h (1 Bft)
15.10.2019 13:39 20,9 °C 54 % 1004,2 hPa 0,0 mm 0,2 km/h (0 Bft) N-NW 335 ° 0 min 0,000 mm 3,1 UV-I 485 W/m² 11,2 °C 20,9 °C 4,8 km/h (1 Bft)
15.10.2019 13:40 21,2 °C 50 % 1004,2 hPa 0,0 mm 6,6 km/h (2 Bft) N-NW 342 ° 0 min 0,000 mm 3,0 UV-I 485 W/m² 10,4 °C 21,2 °C 12,9 km/h (3 Bft)
15.10.2019 13:41 21,4 °C 54 % 1004,2 hPa 0,0 mm 1,7 km/h (1 Bft) N 5 ° 0 min 0,000 mm 2,9 UV-I 406 W/m² 11,7 °C 21,4 °C 3,2 km/h (1 Bft)
15.10.2019 13:42 21,2 °C 58 % 1004,3 hPa 0,0 mm 2,2 km/h (1 Bft) N 5 ° 0 min 0,000 mm 2,3 UV-I 325 W/m² 12,6 °C 21,2 °C 3,2 km/h (1 Bft)
15.10.2019 13:43 21,1 °C 56 % 1004,3 hPa 0,0 mm 3,5 km/h (1 Bft) O-NO 61 ° 0 min 0,000 mm 1,9 UV-I 325 W/m² 12,0 °C 21,1 °C 6,4 km/h (2 Bft)
15.10.2019 13:44 21,1 °C 50 % 1004,2 hPa 0,0 mm 1,3 km/h (1 Bft) O-NO 61 ° 0 min 0,000 mm 1,9 UV-I 162 W/m² 10,3 °C 21,1 °C 4,8 km/h (1 Bft)
15.10.2019 13:45 21,1 °C 49 % 1004,2 hPa 0,0 mm 2,1 km/h (1 Bft) O-NO 61 ° 0 min 0,000 mm 1,8 UV-I 162 W/m² 10,0 °C 21,1 °C 3,2 km/h (1 Bft)
15.10.2019 13:46 21,2 °C 49 % 1004,2 hPa 0,0 mm 3,2 km/h (1 Bft) W-NW 298 ° 0 min 0,000 mm 1,7 UV-I 146 W/m² 10,1 °C 21,2 °C 8,0 km/h (2 Bft)
15.10.2019 13:47 21,3 °C 51 % 1004,1 hPa 0,0 mm 2,8 km/h (1 Bft) N 5 ° 0 min 0,000 mm 1,7 UV-I 151 W/m² 10,7 °C 21,3 °C 4,8 km/h (1 Bft)
15.10.2019 13:48 21,3 °C 51 % 1004,2 hPa 0,0 mm 3,4 km/h (1 Bft) O 100 ° 0 min 0,000 mm 1,7 UV-I 151 W/m² 10,7 °C 21,3 °C 6,4 km/h (2 Bft)
15.10.2019 13:49 21,2 °C 52 % 1004,2 hPa 0,0 mm 0,1 km/h (0 Bft) O 101 ° 0 min 0,000 mm 1,7 UV-I 155 W/m² 10,9 °C 21,2 °C 1,6 km/h (1 Bft)
15.10.2019 13:50 21,1 °C 55 % 1004,2 hPa 0,0 mm 1,3 km/h (1 Bft) O 101 ° 0 min 0,000 mm 1,8 UV-I 165 W/m² 11,7 °C 21,1 °C 3,2 km/h (1 Bft)
15.10.2019 13:51 20,9 °C 55 % 1004,2 hPa 0,0 mm 5,1 km/h (1 Bft) O-SO 117 ° 0 min 0,000 mm 1,9 UV-I 185 W/m² 11,5 °C 20,9 °C 6,4 km/h (2 Bft)
15.10.2019 13:52 20,7 °C 55 % 1004,2 hPa 0,0 mm 2,2 km/h (1 Bft) S 177 ° 0 min 0,000 mm 1,9 UV-I 213 W/m² 11,3 °C 20,7 °C 6,4 km/h (2 Bft)
15.10.2019 13:53 20,7 °C 56 % 1004,2 hPa 0,0 mm 1,5 km/h (1 Bft) S 177 ° 0 min 0,000 mm 2,0 UV-I 213 W/m² 11,6 °C 20,7 °C 3,2 km/h (1 Bft)
15.10.2019 13:54 20,4 °C 53 % 1004,2 hPa 0,0 mm 1,1 km/h (1 Bft) S 177 ° 0 min 0,000 mm 2,2 UV-I 243 W/m² 10,5 °C 20,4 °C 3,2 km/h (1 Bft)
15.10.2019 13:55 20,3 °C 59 % 1004,1 hPa 0,0 mm 0,0 km/h (0 Bft) S 177 ° 0 min 0,000 mm 2,3 UV-I 272 W/m² 12,0 °C 20,3 °C 0,0 km/h (0 Bft)
15.10.2019 13:56 20,4 °C 57 % 1004,1 hPa 0,0 mm 0,0 km/h (0 Bft) S 177 ° 0 min 0,000 mm 2,3 UV-I 279 W/m² 11,6 °C 20,4 °C 0,0 km/h (0 Bft)
15.10.2019 13:57 20,5 °C 56 % 1004,1 hPa 0,0 mm 0,0 km/h (0 Bft) S 177 ° 0 min 0,000 mm 2,4 UV-I 283 W/m² 11,4 °C 20,5 °C 0,0 km/h (0 Bft)
15.10.2019 13:58 20,6 °C 59 % 1004,1 hPa 0,0 mm 0,0 km/h (0 Bft) S 177 ° 0 min 0,000 mm 2,5 UV-I 297 W/m² 12,3 °C 20,6 °C 0,0 km/h (0 Bft)
15.10.2019 13:59 20,6 °C 54 % 1004,0 hPa 0,0 mm 0,5 km/h (0 Bft) O 92 ° 0 min 0,000 mm 3,2 UV-I 427 W/m² 11,0 °C 20,6 °C 3,2 km/h (1 Bft)
15.10.2019 14:00 20,5 °C 64 % 1004,0 hPa 0,0 mm 2,5 km/h (1 Bft) O-SO 103 ° 0 min 0,279 mm 3,1 UV-I 427 W/m² 13,5 °C 20,5 °C 4,8 km/h (1 Bft)
15.10.2019 14:01 20,5 °C 58 % 1003,9 hPa 0,0 mm 2,8 km/h (1 Bft) SO 141 ° 0 min 0,000 mm 3,0 UV-I 508 W/m² 11,9 °C 20,5 °C 4,8 km/h (1 Bft)
15.10.2019 14:02 20,7 °C 56 % 1004,0 hPa 0,0 mm 1,2 km/h (1 Bft) SO 141 ° 0 min 0,000 mm 2,9 UV-I 464 W/m² 11,6 °C 20,7 °C 4,8 km/h (1 Bft)
15.10.2019 14:03 21,0 °C 52 % 1003,9 hPa 0,0 mm 1,5 km/h (1 Bft) O-SO 121 ° 0 min 0,000 mm 2,8 UV-I 439 W/m² 10,8 °C 21,0 °C 3,2 km/h (1 Bft)
15.10.2019 14:04 21,2 °C 53 % 1004,0 hPa 0,0 mm 4,1 km/h (1 Bft) O-NO 61 ° 0 min 0,000 mm 2,8 UV-I 538 W/m² 11,2 °C 21,2 °C 8,0 km/h (2 Bft)
15.10.2019 14:05 21,1 °C 58 % 1003,9 hPa 0,0 mm 6,4 km/h (2 Bft) NO 49 ° 0 min 0,000 mm 3,1 UV-I 504 W/m² 12,5 °C 21,1 °C 11,3 km/h (2 Bft)
15.10.2019 14:06 21,1 °C 58 % 1004,0 hPa 0,0 mm 1,7 km/h (1 Bft) O-SO 118 ° 0 min 0,000 mm 2,6 UV-I 418 W/m² 12,5 °C 21,1 °C 3,2 km/h (1 Bft)
15.10.2019 14:07 21,2 °C 53 % 1003,9 hPa 0,0 mm 2,5 km/h (1 Bft) SO 127 ° 0 min 0,000 mm 2,0 UV-I 418 W/m² 11,2 °C 21,2 °C 3,2 km/h (1 Bft)
15.10.2019 14:08 21,5 °C 47 % 1003,9 hPa 0,0 mm 4,1 km/h (1 Bft) NO 46 ° 0 min 0,000 mm 2,2 UV-I 418 W/m² 9,7 °C 21,5 °C 6,4 km/h (2 Bft)
15.10.2019 14:09 21,6 °C 52 % 1003,9 hPa 0,0 mm 0,8 km/h (0 Bft) O-SO 107 ° 0 min 0,000 mm 1,9 UV-I 418 W/m² 11,3 °C 21,6 °C 3,2 km/h (1 Bft)
15.10.2019 14:10 21,6 °C 53 % 1004,0 hPa 0,0 mm 3,4 km/h (1 Bft) O-NO 57 ° 0 min 0,000 mm 2,2 UV-I 202 W/m² 11,6 °C 21,6 °C 4,8 km/h (1 Bft)
15.10.2019 14:11 21,6 °C 51 % 1004,0 hPa 0,0 mm 3,7 km/h (1 Bft) N 355 ° 0 min 0,000 mm 2,9 UV-I 543 W/m² 11,0 °C 21,6 °C 4,8 km/h (1 Bft)
15.10.2019 14:12 21,7 °C 48 % 1004,0 hPa 0,0 mm 3,0 km/h (1 Bft) W-SW 258 ° 0 min 0,000 mm 3,0 UV-I 543 W/m² 10,2 °C 21,7 °C 4,8 km/h (1 Bft)
15.10.2019 14:13 21,8 °C 50 % 1004,0 hPa 0,0 mm 3,4 km/h (1 Bft) N-NW 331 ° 0 min 0,000 mm 3,1 UV-I 543 W/m² 10,9 °C 21,8 °C 4,8 km/h (1 Bft)
15.10.2019 14:14 21,7 °C 56 % 1004,0 hPa 0,0 mm 2,8 km/h (1 Bft) O 93 ° 0 min 0,000 mm 3,2 UV-I 570 W/m² 12,5 °C 21,7 °C 4,8 km/h (1 Bft)
15.10.2019 14:15 21,7 °C 54 % 1003,9 hPa 0,0 mm 1,1 km/h (1 Bft) O 94 ° 0 min 0,000 mm 3,1 UV-I 554 W/m² 12,0 °C 21,7 °C 1,6 km/h (1 Bft)
15.10.2019 14:16 21,8 °C 50 % 1003,9 hPa 0,0 mm 0,0 km/h (0 Bft) O 94 ° 0 min 0,000 mm 3,2 UV-I 591 W/m² 10,9 °C 21,8 °C 0,0 km/h (0 Bft)
15.10.2019 14:17 21,8 °C 54 % 1003,9 hPa 0,0 mm 1,3 km/h (1 Bft) N-NO 33 ° 0 min 0,000 mm 3,2 UV-I 589 W/m² 12,1 °C 21,8 °C 4,8 km/h (1 Bft)
15.10.2019 14:18 21,7 °C 54 % 1003,9 hPa 0,0 mm 2,6 km/h (1 Bft) O-NO 78 ° 0 min 0,000 mm 3,2 UV-I 584 W/m² 12,0 °C 21,7 °C 4,8 km/h (1 Bft)
15.10.2019 14:19 21,6 °C 51 % 1003,9 hPa 0,0 mm 2,3 km/h (1 Bft) SO 124 ° 0 min 0,000 mm 3,2 UV-I 585 W/m² 11,0 °C 21,6 °C 3,2 km/h (1 Bft)
15.10.2019 14:20 21,6 °C 51 % 1003,8 hPa 0,0 mm 3,9 km/h (1 Bft) S-SO 163 ° 0 min 0,000 mm 3,2 UV-I 580 W/m² 11,0 °C 21,6 °C 6,4 km/h (2 Bft)
15.10.2019 14:21 21,8 °C 50 % 1003,8 hPa 0,0 mm 6,7 km/h (2 Bft) W 265 ° 0 min 0,000 mm 3,2 UV-I 577 W/m² 10,9 °C 21,8 °C 17,7 km/h (3 Bft)
15.10.2019 14:22 22,0 °C 47 % 1003,8 hPa 0,0 mm 5,2 km/h (1 Bft) SW 232 ° 0 min 0,000 mm 3,2 UV-I 568 W/m² 10,2 °C 22,0 °C 12,9 km/h (3 Bft)
15.10.2019 14:23 22,3 °C 46 % 1003,7 hPa 0,0 mm 1,6 km/h (1 Bft) S-SW 197 ° 0 min 0,000 mm 2,4 UV-I 568 W/m² 10,1 °C 22,3 °C 4,8 km/h (1 Bft)
15.10.2019 14:24 22,2 °C 49 % 1003,8 hPa 0,0 mm 1,2 km/h (1 Bft) S 188 ° 0 min 0,000 mm 2,4 UV-I 568 W/m² 11,0 °C 22,2 °C 3,2 km/h (1 Bft)
15.10.2019 14:25 22,1 °C 53 % 1003,8 hPa 0,0 mm 3,8 km/h (1 Bft) W-NW 283 ° 0 min 0,000 mm 2,4 UV-I 309 W/m² 12,1 °C 22,1 °C 6,4 km/h (2 Bft)
15.10.2019 14:26 22,0 °C 49 % 1003,7 hPa 0,0 mm 5,5 km/h (1 Bft) O 98 ° 0 min 0,000 mm 3,1 UV-I 309 W/m² 10,8 °C 22,0 °C 9,7 km/h (2 Bft)
15.10.2019 14:27 21,9 °C 51 % 1003,7 hPa 0,0 mm 3,6 km/h (1 Bft) S-SO 162 ° 0 min 0,000 mm 3,1 UV-I 561 W/m² 11,3 °C 21,9 °C 8,0 km/h (2 Bft)
15.10.2019 14:28 21,9 °C 46 % 1003,7 hPa 0,0 mm 2,4 km/h (1 Bft) SO 126 ° 0 min 0,000 mm 3,1 UV-I 548 W/m² 9,7 °C 21,9 °C 6,4 km/h (2 Bft)
15.10.2019 14:29 21,9 °C 50 % 1003,7 hPa 0,0 mm 2,1 km/h (1 Bft) N 355 ° 0 min 0,000 mm 3,0 UV-I 548 W/m² 11,0 °C 21,9 °C 3,2 km/h (1 Bft)
15.10.2019 14:30 21,9 °C 48 % 1003,7 hPa 0,0 mm 3,0 km/h (1 Bft) N-NO 30 ° 0 min 0,000 mm 3,0 UV-I 540 W/m² 10,4 °C 21,9 °C 6,4 km/h (2 Bft)
15.10.2019 14:31 22,1 °C 49 % 1003,6 hPa 0,0 mm 5,5 km/h (1 Bft) O-SO 107 ° 0 min 0,000 mm 3,0 UV-I 543 W/m² 10,9 °C 22,1 °C 9,7 km/h (2 Bft)
15.10.2019 14:32 22,1 °C 46 % 1003,6 hPa 0,0 mm 4,7 km/h (1 Bft) O 101 ° 0 min 0,000 mm 3,0 UV-I 534 W/m² 9,9 °C 22,1 °C 8,0 km/h (2 Bft)
15.10.2019 14:33 22,2 °C 47 % 1003,6 hPa 0,0 mm 3,6 km/h (1 Bft) O-SO 122 ° 0 min 0,000 mm 2,9 UV-I 531 W/m² 10,3 °C 22,2 °C 9,7 km/h (2 Bft)
15.10.2019 14:34 22,3 °C 49 % 1003,6 hPa 0,0 mm 5,0 km/h (1 Bft) NO 52 ° 0 min 0,000 mm 2,9 UV-I 501 W/m² 11,1 °C 22,3 °C 12,9 km/h (3 Bft)
15.10.2019 14:35 22,1 °C 49 % 1003,6 hPa 0,0 mm 7,9 km/h (2 Bft) O-NO 74 ° 0 min 0,000 mm 2,9 UV-I 515 W/m² 10,9 °C 22,1 °C 12,9 km/h (3 Bft)
15.10.2019 14:36 21,9 °C 53 % 1003,6 hPa 0,0 mm 5,6 km/h (1 Bft) O 80 ° 0 min 0,000 mm 2,8 UV-I 503 W/m² 11,9 °C 21,9 °C 14,5 km/h (3 Bft)
15.10.2019 14:37 21,9 °C 46 % 1003,6 hPa 0,0 mm 0,1 km/h (0 Bft) O-NO 77 ° 0 min 0,000 mm 2,8 UV-I 499 W/m² 9,7 °C 21,9 °C 1,6 km/h (1 Bft)
15.10.2019 14:38 21,9 °C 49 % 1003,6 hPa 0,0 mm 0,0 km/h (0 Bft) O-NO 77 ° 0 min 0,000 mm 2,8 UV-I 489 W/m² 10,7 °C 21,9 °C 0,0 km/h (0 Bft)
15.10.2019 14:39 21,8 °C 53 % 1003,6 hPa 0,0 mm 1,1 km/h (1 Bft) O-NO 76 ° 0 min 0,000 mm 2,7 UV-I 483 W/m² 11,8 °C 21,8 °C 3,2 km/h (1 Bft)
15.10.2019 14:40 21,7 °C 50 % 1003,6 hPa 0,0 mm 0,4 km/h (0 Bft) O-NO 76 ° 0 min 0,000 mm 2,7 UV-I 476 W/m² 10,8 °C 21,7 °C 1,6 km/h (1 Bft)
15.10.2019 14:41 21,6 °C 50 % 1003,6 hPa 0,0 mm 4,2 km/h (1 Bft) NO 42 ° 0 min 0,000 mm 2,7 UV-I 480 W/m² 10,7 °C 21,6 °C 8,0 km/h (2 Bft)
15.10.2019 14:42 21,7 °C 51 % 1003,6 hPa 0,0 mm 5,1 km/h (1 Bft) O 92 ° 0 min 0,000 mm 2,7 UV-I 473 W/m² 11,1 °C 21,7 °C 8,0 km/h (2 Bft)
15.10.2019 14:43 21,6 °C 51 % 1003,6 hPa 0,0 mm 7,2 km/h (2 Bft) O-SO 103 ° 0 min 0,000 mm 2,6 UV-I 464 W/m² 11,0 °C 21,6 °C 9,7 km/h (2 Bft)
15.10.2019 14:44 21,4 °C 53 % 1003,6 hPa 0,0 mm 5,4 km/h (1 Bft) O-NO 70 ° 0 min 0,000 mm 2,6 UV-I 448 W/m² 11,4 °C 21,4 °C 11,3 km/h (2 Bft)
15.10.2019 14:45 21,2 °C 52 % 1003,6 hPa 0,0 mm 3,3 km/h (1 Bft) O 84 ° 0 min 0,000 mm 2,6 UV-I 454 W/m² 10,9 °C 21,2 °C 6,4 km/h (2 Bft)
15.10.2019 14:46 21,3 °C 49 % 1003,5 hPa 0,0 mm 1,2 km/h (1 Bft) O 82 ° 0 min 0,000 mm 2,6 UV-I 455 W/m² 10,1 °C 21,3 °C 3,2 km/h (1 Bft)
15.10.2019 14:47 21,3 °C 52 % 1003,4 hPa 0,0 mm 0,0 km/h (0 Bft) O 82 ° 0 min 0,000 mm 2,6 UV-I 462 W/m² 11,0 °C 21,3 °C 0,0 km/h (0 Bft)
15.10.2019 14:48 21,3 °C 51 % 1003,4 hPa 0,0 mm 0,0 km/h (0 Bft) O 82 ° 0 min 0,000 mm 2,6 UV-I 454 W/m² 10,7 °C 21,3 °C 0,0 km/h (0 Bft)
15.10.2019 14:49 21,4 °C 50 % 1003,5 hPa 0,0 mm 1,0 km/h (0 Bft) O 82 ° 0 min 0,000 mm 2,6 UV-I 448 W/m² 10,5 °C 21,4 °C 3,2 km/h (1 Bft)
15.10.2019 14:50 21,4 °C 57 % 1003,5 hPa 0,0 mm 0,6 km/h (0 Bft) O 82 ° 0 min 0,000 mm 2,6 UV-I 448 W/m² 12,5 °C 21,4 °C 3,2 km/h (1 Bft)
15.10.2019 14:51 21,2 °C 53 % 1003,5 hPa 0,0 mm 3,5 km/h (1 Bft) SW 230 ° 0 min 0,000 mm 2,5 UV-I 450 W/m² 11,2 °C 21,2 °C 6,4 km/h (2 Bft)
15.10.2019 14:52 21,2 °C 51 % 1003,5 hPa 0,0 mm 2,9 km/h (1 Bft) O-NO 75 ° 0 min 0,000 mm 2,5 UV-I 446 W/m² 10,7 °C 21,2 °C 4,8 km/h (1 Bft)
15.10.2019 14:53 21,2 °C 53 % 1003,4 hPa 0,0 mm 6,9 km/h (2 Bft) SO 126 ° 0 min 0,000 mm 2,5 UV-I 454 W/m² 11,2 °C 21,2 °C 9,7 km/h (2 Bft)
15.10.2019 14:54 21,3 °C 48 % 1003,5 hPa 0,0 mm 4,4 km/h (1 Bft) O-NO 59 ° 0 min 0,000 mm 2,5 UV-I 454 W/m² 9,8 °C 21,3 °C 6,4 km/h (2 Bft)
15.10.2019 14:55 21,4 °C 54 % 1003,4 hPa 0,0 mm 3,1 km/h (1 Bft) O 96 ° 0 min 0,000 mm 2,3 UV-I 404 W/m² 11,7 °C 21,4 °C 4,8 km/h (1 Bft)
15.10.2019 14:56 21,4 °C 55 % 1003,4 hPa 0,0 mm 1,9 km/h (1 Bft) O-SO 108 ° 0 min 0,000 mm 2,4 UV-I 406 W/m² 12,0 °C 21,4 °C 4,8 km/h (1 Bft)
15.10.2019 14:57 21,4 °C 57 % 1003,4 hPa 0,0 mm 4,2 km/h (1 Bft) SO 127 ° 0 min 0,000 mm 2,4 UV-I 448 W/m² 12,5 °C 21,4 °C 6,4 km/h (2 Bft)
15.10.2019 14:58 21,3 °C 54 % 1003,4 hPa 0,0 mm 1,0 km/h (0 Bft) SO 126 ° 0 min 0,000 mm 2,5 UV-I 446 W/m² 11,6 °C 21,3 °C 3,2 km/h (1 Bft)
15.10.2019 14:59 21,2 °C 54 % 1003,4 hPa 0,0 mm 0,0 km/h (0 Bft) SO 126 ° 0 min 0,000 mm 2,5 UV-I 455 W/m² 11,5 °C 21,2 °C 0,0 km/h (0 Bft)
15.10.2019 15:00 21,1 °C 59 % 1003,4 hPa 0,0 mm 2,7 km/h (1 Bft) O 83 ° 0 min 0,000 mm 2,5 UV-I 455 W/m² 12,8 °C 21,1 °C 9,7 km/h (2 Bft)
15.10.2019 15:01 21,0 °C 55 % 1003,5 hPa 0,0 mm 3,5 km/h (1 Bft) NO 45 ° 0 min 0,305 mm 2,5 UV-I 450 W/m² 11,6 °C 21,0 °C 4,8 km/h (1 Bft)
15.10.2019 15:02 20,9 °C 54 % 1003,4 hPa 0,0 mm 5,7 km/h (1 Bft) SO 129 ° 0 min 0,000 mm 2,4 UV-I 450 W/m² 11,2 °C 20,9 °C 9,7 km/h (2 Bft)
15.10.2019 15:03 21,0 °C 51 % 1003,5 hPa 0,0 mm 1,7 km/h (1 Bft) N-NO 27 ° 0 min 0,000 mm 2,4 UV-I 441 W/m² 10,5 °C 21,0 °C 3,2 km/h (1 Bft)
15.10.2019 15:04 21,1 °C 51 % 1003,5 hPa 0,0 mm 3,4 km/h (1 Bft) O-NO 76 ° 0 min 0,000 mm 2,4 UV-I 432 W/m² 10,6 °C 21,1 °C 4,8 km/h (1 Bft)
15.10.2019 15:05 21,2 °C 51 % 1003,4 hPa 0,0 mm 3,1 km/h (1 Bft) O-NO 76 ° 0 min 0,000 mm 2,4 UV-I 432 W/m² 10,7 °C 21,2 °C 4,8 km/h (1 Bft)
15.10.2019 15:06 21,2 °C 49 % 1003,4 hPa 0,0 mm 1,5 km/h (1 Bft) NW 309 ° 0 min 0,000 mm 2,4 UV-I 445 W/m² 10,1 °C 21,2 °C 4,8 km/h (1 Bft)
15.10.2019 15:07 21,2 °C 55 % 1003,4 hPa 0,0 mm 2,9 km/h (1 Bft) SO 146 ° 0 min 0,000 mm 2,3 UV-I 432 W/m² 11,8 °C 21,2 °C 4,8 km/h (1 Bft)
15.10.2019 15:08 21,1 °C 50 % 1003,4 hPa 0,0 mm 1,3 km/h (1 Bft) SO 146 ° 0 min 0,000 mm 2,4 UV-I 441 W/m² 10,3 °C 21,1 °C 3,2 km/h (1 Bft)
15.10.2019 15:09 21,3 °C 50 % 1003,4 hPa 0,0 mm 0,0 km/h (0 Bft) SO 146 ° 0 min 0,000 mm 2,4 UV-I 443 W/m² 10,4 °C 21,3 °C 0,0 km/h (0 Bft)
15.10.2019 15:10 21,4 °C 50 % 1003,4 hPa 0,0 mm 0,0 km/h (0 Bft) SO 146 ° 0 min 0,000 mm 2,3 UV-I 445 W/m² 10,5 °C 21,4 °C 0,0 km/h (0 Bft)
15.10.2019 15:11 21,4 °C 50 % 1003,4 hPa 0,0 mm 0,0 km/h (0 Bft) SO 146 ° 0 min 0,000 mm 2,3 UV-I 443 W/m² 10,5 °C 21,4 °C 0,0 km/h (0 Bft)
15.10.2019 15:12 21,6 °C 51 % 1003,4 hPa 0,0 mm 0,0 km/h (0 Bft) SO 146 ° 0 min 0,000 mm 2,3 UV-I 439 W/m² 11,0 °C 21,6 °C 0,0 km/h (0 Bft)
15.10.2019 15:13 21,6 °C 52 % 1003,4 hPa 0,0 mm 0,0 km/h (0 Bft) SO 146 ° 0 min 0,000 mm 2,3 UV-I 439 W/m² 11,3 °C 21,6 °C 0,0 km/h (0 Bft)
15.10.2019 15:14 21,5 °C 53 % 1003,4 hPa 0,0 mm 0,0 km/h (0 Bft) SO 146 ° 0 min 0,000 mm 2,3 UV-I 439 W/m² 11,5 °C 21,5 °C 0,0 km/h (0 Bft)
15.10.2019 15:15 21,5 °C 49 % 1003,5 hPa 0,0 mm 3,8 km/h (1 Bft) S-SO 162 ° 0 min 0,000 mm 2,3 UV-I 450 W/m² 10,3 °C 21,5 °C 6,4 km/h (2 Bft)
15.10.2019 15:16 21,4 °C 50 % 1003,5 hPa 0,0 mm 2,7 km/h (1 Bft) S-SO 162 ° 0 min 0,000 mm 2,3 UV-I 454 W/m² 10,5 °C 21,4 °C 6,4 km/h (2 Bft)
15.10.2019 15:17 21,3 °C 55 % 1003,4 hPa 0,0 mm 2,9 km/h (1 Bft) O-NO 66 ° 0 min 0,000 mm 2,3 UV-I 454 W/m² 11,9 °C 21,3 °C 6,4 km/h (2 Bft)
15.10.2019 15:18 21,3 °C 51 % 1003,4 hPa 0,0 mm 0,8 km/h (0 Bft) O-NO 66 ° 0 min 0,000 mm 2,2 UV-I 439 W/m² 10,7 °C 21,3 °C 3,2 km/h (1 Bft)
15.10.2019 15:19 21,2 °C 53 % 1003,4 hPa 0,0 mm 1,1 km/h (1 Bft) O-NO 66 ° 0 min 0,000 mm 2,2 UV-I 411 W/m² 11,2 °C 21,2 °C 1,6 km/h (1 Bft)
15.10.2019 15:20 21,3 °C 51 % 1003,4 hPa 0,0 mm 0,0 km/h (0 Bft) O-NO 66 ° 0 min 0,000 mm 1,9 UV-I 411 W/m² 10,7 °C 21,3 °C 0,0 km/h (0 Bft)
15.10.2019 15:21 21,2 °C 54 % 1003,4 hPa 0,0 mm 0,5 km/h (0 Bft) O-NO 66 ° 0 min 0,000 mm 2,2 UV-I 411 W/m² 11,5 °C 21,2 °C 3,2 km/h (1 Bft)
15.10.2019 15:22 21,2 °C 51 % 1003,4 hPa 0,0 mm 1,2 km/h (1 Bft) N-NO 29 ° 0 min 0,000 mm 1,5 UV-I 411 W/m² 10,7 °C 21,2 °C 4,8 km/h (1 Bft)
15.10.2019 15:23 21,1 °C 56 % 1003,4 hPa 0,0 mm 4,4 km/h (1 Bft) SO 144 ° 0 min 0,000 mm 1,4 UV-I 95 W/m² 12,0 °C 21,1 °C 6,4 km/h (2 Bft)
15.10.2019 15:24 21,0 °C 48 % 1003,4 hPa 0,0 mm 3,4 km/h (1 Bft) O-SO 120 ° 0 min 0,000 mm 1,4 UV-I 102 W/m² 9,6 °C 21,0 °C 6,4 km/h (2 Bft)
15.10.2019 15:25 21,1 °C 52 % 1003,3 hPa 0,0 mm 2,3 km/h (1 Bft) O-SO 120 ° 0 min 0,000 mm 1,3 UV-I 109 W/m² 10,9 °C 21,1 °C 4,8 km/h (1 Bft)
15.10.2019 15:26 21,1 °C 52 % 1003,4 hPa 0,0 mm 0,0 km/h (0 Bft) O-SO 120 ° 0 min 0,000 mm 1,3 UV-I 114 W/m² 10,9 °C 21,1 °C 0,0 km/h (0 Bft)
15.10.2019 15:27 20,9 °C 56 % 1003,4 hPa 0,0 mm 0,4 km/h (0 Bft) O-NO 63 ° 0 min 0,000 mm 1,3 UV-I 141 W/m² 11,8 °C 20,9 °C 4,8 km/h (1 Bft)
15.10.2019 15:28 20,7 °C 54 % 1003,4 hPa 0,0 mm 3,9 km/h (1 Bft) O-SO 113 ° 0 min 0,000 mm 1,4 UV-I 172 W/m² 11,1 °C 20,7 °C 4,8 km/h (1 Bft)
15.10.2019 15:29 20,6 °C 54 % 1003,4 hPa 0,0 mm 2,1 km/h (1 Bft) N-NO 20 ° 0 min 0,000 mm 1,4 UV-I 148 W/m² 11,0 °C 20,6 °C 3,2 km/h (1 Bft)
15.10.2019 15:30 20,4 °C 54 % 1003,4 hPa 0,0 mm 1,6 km/h (1 Bft) N-NO 20 ° 0 min 0,000 mm 1,4 UV-I 160 W/m² 10,8 °C 20,4 °C 3,2 km/h (1 Bft)
15.10.2019 15:31 20,3 °C 56 % 1003,4 hPa 0,0 mm 0,1 km/h (0 Bft) N-NO 20 ° 0 min 0,000 mm 1,5 UV-I 207 W/m² 11,2 °C 20,3 °C 1,6 km/h (1 Bft)
15.10.2019 15:32 20,3 °C 53 % 1003,4 hPa 0,0 mm 0,0 km/h (0 Bft) N-NO 20 ° 0 min 0,000 mm 1,5 UV-I 246 W/m² 10,4 °C 20,3 °C 0,0 km/h (0 Bft)
15.10.2019 15:33 20,1 °C 60 % 1003,4 hPa 0,0 mm 0,0 km/h (0 Bft) N-NO 20 ° 0 min 0,000 mm 1,5 UV-I 232 W/m² 12,1 °C 20,1 °C 0,0 km/h (0 Bft)
15.10.2019 15:34 20,1 °C 56 % 1003,4 hPa 0,0 mm 0,0 km/h (0 Bft) N-NO 20 ° 0 min 0,000 mm 1,5 UV-I 248 W/m² 11,0 °C 20,1 °C 0,0 km/h (0 Bft)
15.10.2019 15:35 20,1 °C 58 % 1003,4 hPa 0,0 mm 0,0 km/h (0 Bft) N-NO 20 ° 0 min 0,000 mm 1,6 UV-I 285 W/m² 11,6 °C 20,1 °C 0,0 km/h (0 Bft)
15.10.2019 15:36 20,1 °C 54 % 1003,4 hPa 0,0 mm 0,0 km/h (0 Bft) N-NO 20 ° 0 min 0,000 mm 1,6 UV-I 292 W/m² 10,5 °C 20,1 °C 0,0 km/h (0 Bft)
15.10.2019 15:37 20,1 °C 61 % 1003,4 hPa 0,0 mm 0,0 km/h (0 Bft) N-NO 20 ° 0 min 0,000 mm 1,6 UV-I 287 W/m² 12,3 °C 20,1 °C 0,0 km/h (0 Bft)
15.10.2019 15:38 20,1 °C 56 % 1003,4 hPa 0,0 mm 0,0 km/h (0 Bft) N-NO 20 ° 0 min 0,000 mm 1,5 UV-I 220 W/m² 11,0 °C 20,1 °C 0,0 km/h (0 Bft)
15.10.2019 15:39 20,2 °C 54 % 1003,4 hPa 0,0 mm 0,0 km/h (0 Bft) N-NO 20 ° 0 min 0,000 mm 1,6 UV-I 271 W/m² 10,6 °C 20,2 °C 0,0 km/h (0 Bft)
15.10.2019 15:40 20,3 °C 54 % 1003,4 hPa 0,0 mm 1,9 km/h (1 Bft) S-SO 164 ° 0 min 0,000 mm 1,7 UV-I 295 W/m² 10,7 °C 20,3 °C 6,4 km/h (2 Bft)
15.10.2019 15:41 20,4 °C 56 % 1003,4 hPa 0,0 mm 2,0 km/h (1 Bft) S 191 ° 0 min 0,000 mm 1,8 UV-I 353 W/m² 11,3 °C 20,4 °C 4,8 km/h (1 Bft)
15.10.2019 15:42 20,4 °C 59 % 1003,4 hPa 0,0 mm 1,3 km/h (1 Bft) W-NW 294 ° 0 min 0,000 mm 1,8 UV-I 279 W/m² 12,1 °C 20,4 °C 4,8 km/h (1 Bft)
15.10.2019 15:43 20,3 °C 60 % 1003,4 hPa 0,0 mm 0,8 km/h (0 Bft) W-NW 294 ° 0 min 0,000 mm 1,5 UV-I 322 W/m² 12,3 °C 20,3 °C 3,2 km/h (1 Bft)
15.10.2019 15:44 20,3 °C 58 % 1003,4 hPa 0,0 mm 1,8 km/h (1 Bft) W-NW 294 ° 0 min 0,000 mm 1,7 UV-I 294 W/m² 11,8 °C 20,3 °C 3,2 km/h (1 Bft)
15.10.2019 15:45 20,3 °C 57 % 1003,4 hPa 0,0 mm 1,6 km/h (1 Bft) W-NW 294 ° 0 min 0,000 mm 1,7 UV-I 302 W/m² 11,5 °C 20,3 °C 4,8 km/h (1 Bft)
15.10.2019 15:46 20,4 °C 56 % 1003,5 hPa 0,0 mm 0,0 km/h (0 Bft) W-NW 294 ° 0 min 0,000 mm 1,6 UV-I 302 W/m² 11,3 °C 20,4 °C 0,0 km/h (0 Bft)
15.10.2019 15:47 20,5 °C 57 % 1003,5 hPa 0,0 mm 0,3 km/h (0 Bft) W-NW 294 ° 0 min 0,000 mm 1,6 UV-I 253 W/m² 11,7 °C 20,5 °C 1,6 km/h (1 Bft)
15.10.2019 15:48 20,4 °C 57 % 1003,5 hPa 0,0 mm 0,0 km/h (0 Bft) W-NW 294 ° 0 min 0,000 mm 1,5 UV-I 241 W/m² 11,6 °C 20,4 °C 0,0 km/h (0 Bft)
15.10.2019 15:49 20,4 °C 54 % 1003,5 hPa 0,0 mm 0,0 km/h (0 Bft) W-NW 294 ° 0 min 0,000 mm 1,5 UV-I 239 W/m² 10,8 °C 20,4 °C 0,0 km/h (0 Bft)
15.10.2019 15:50 20,4 °C 58 % 1003,4 hPa 0,0 mm 1,0 km/h (0 Bft) W-NW 294 ° 0 min 0,000 mm 1,5 UV-I 204 W/m² 11,9 °C 20,4 °C 3,2 km/h (1 Bft)
15.10.2019 15:51 20,4 °C 56 % 1003,4 hPa 0,0 mm 0,0 km/h (0 Bft) W-NW 294 ° 0 min 0,000 mm 1,4 UV-I 211 W/m² 11,3 °C 20,4 °C 0,0 km/h (0 Bft)
15.10.2019 15:52 20,3 °C 56 % 1003,4 hPa 0,0 mm 0,0 km/h (0 Bft) W-NW 294 ° 0 min 0,000 mm 1,4 UV-I 218 W/m² 11,2 °C 20,3 °C 0,0 km/h (0 Bft)
15.10.2019 15:53 20,2 °C 55 % 1003,3 hPa 0,0 mm 0,1 km/h (0 Bft) W-NW 294 ° 0 min 0,000 mm 1,5 UV-I 248 W/m² 10,9 °C 20,2 °C 1,6 km/h (1 Bft)
15.10.2019 15:54 20,1 °C 59 % 1003,3 hPa 0,0 mm 0,2 km/h (0 Bft) W-NW 294 ° 0 min 0,000 mm 1,5 UV-I 248 W/m² 11,8 °C 20,1 °C 1,6 km/h (1 Bft)
15.10.2019 15:55 20,0 °C 56 % 1003,3 hPa 0,0 mm 2,3 km/h (1 Bft) W-NW 294 ° 0 min 0,000 mm 1,4 UV-I 253 W/m² 11,0 °C 20,0 °C 4,8 km/h (1 Bft)
15.10.2019 15:56 19,9 °C 60 % 1003,3 hPa 0,0 mm 1,6 km/h (1 Bft) W-NW 294 ° 0 min 0,000 mm 1,4 UV-I 229 W/m² 11,9 °C 19,9 °C 3,2 km/h (1 Bft)
15.10.2019 15:57 20,0 °C 57 % 1003,3 hPa 0,0 mm 1,0 km/h (0 Bft) W-NW 294 ° 0 min 0,000 mm 1,3 UV-I 207 W/m² 11,2 °C 20,0 °C 3,2 km/h (1 Bft)
15.10.2019 15:58 19,9 °C 57 % 1003,2 hPa 0,0 mm 1,2 km/h (1 Bft) W-NW 294 ° 0 min 0,000 mm 1,3 UV-I 214 W/m² 11,1 °C 19,9 °C 3,2 km/h (1 Bft)
15.10.2019 15:59 19,9 °C 61 % 1003,3 hPa 0,0 mm 0,8 km/h (0 Bft) W-NW 294 ° 0 min 0,000 mm 1,2 UV-I 151 W/m² 12,2 °C 19,9 °C 1,6 km/h (1 Bft)
15.10.2019 16:00 19,8 °C 61 % 1003,3 hPa 0,0 mm 0,0 km/h (0 Bft) W-NW 294 ° 0 min 0,000 mm 1,2 UV-I 121 W/m² 12,1 °C 19,8 °C 0,0 km/h (0 Bft)
15.10.2019 16:01 19,8 °C 57 % 1003,2 hPa 0,0 mm 0,2 km/h (0 Bft) W-NW 294 ° 0 min 0,178 mm 1,2 UV-I 179 W/m² 11,0 °C 19,8 °C 1,6 km/h (1 Bft)
15.10.2019 16:02 19,8 °C 56 % 1003,2 hPa 0,0 mm 0,9 km/h (0 Bft) W-NW 294 ° 0 min 0,000 mm 1,2 UV-I 160 W/m² 10,8 °C 19,8 °C 3,2 km/h (1 Bft)
15.10.2019 16:03 19,8 °C 58 % 1003,2 hPa 0,0 mm 2,1 km/h (1 Bft) W-NW 294 ° 0 min 0,000 mm 1,3 UV-I 216 W/m² 11,3 °C 19,8 °C 4,8 km/h (1 Bft)
15.10.2019 16:04 19,7 °C 62 % 1003,2 hPa 0,0 mm 1,9 km/h (1 Bft) S 184 ° 0 min 0,000 mm 1,3 UV-I 250 W/m² 12,2 °C 19,7 °C 3,2 km/h (1 Bft)
15.10.2019 16:05 19,6 °C 60 % 1003,2 hPa 0,0 mm 0,0 km/h (0 Bft) S 184 ° 0 min 0,000 mm 1,4 UV-I 274 W/m² 11,6 °C 19,6 °C 0,0 km/h (0 Bft)
15.10.2019 16:06 19,5 °C 61 % 1003,2 hPa 0,0 mm 0,6 km/h (0 Bft) S 184 ° 0 min 0,000 mm 1,4 UV-I 272 W/m² 11,8 °C 19,5 °C 1,6 km/h (1 Bft)
15.10.2019 16:07 19,6 °C 60 % 1003,1 hPa 0,0 mm 0,0 km/h (0 Bft) S 184 ° 0 min 0,000 mm 1,4 UV-I 299 W/m² 11,6 °C 19,6 °C 0,0 km/h (0 Bft)
15.10.2019 16:08 19,6 °C 64 % 1003,1 hPa 0,0 mm 0,0 km/h (0 Bft) S 184 ° 0 min 0,000 mm 1,4 UV-I 283 W/m² 12,6 °C 19,6 °C 0,0 km/h (0 Bft)
15.10.2019 16:09 19,5 °C 61 % 1003,2 hPa 0,0 mm 0,0 km/h (0 Bft) S 184 ° 0 min 0,000 mm 1,5 UV-I 341 W/m² 11,8 °C 19,5 °C 0,0 km/h (0 Bft)
15.10.2019 16:10 19,6 °C 67 % 1003,1 hPa 0,0 mm 0,0 km/h (0 Bft) S 184 ° 0 min 0,000 mm 1,5 UV-I 352 W/m² 13,3 °C 19,6 °C 0,0 km/h (0 Bft)
15.10.2019 16:11 19,6 °C 58 % 1003,1 hPa 0,0 mm 0,0 km/h (0 Bft) S 184 ° 0 min 0,000 mm 1,4 UV-I 285 W/m² 11,1 °C 19,6 °C 0,0 km/h (0 Bft)
15.10.2019 16:12 19,7 °C 63 % 1003,0 hPa 0,0 mm 0,0 km/h (0 Bft) S 184 ° 0 min 0,000 mm 1,4 UV-I 330 W/m² 12,5 °C 19,7 °C 0,0 km/h (0 Bft)
15.10.2019 16:13 19,7 °C 61 % 1003,0 hPa 0,0 mm 0,0 km/h (0 Bft) S 184 ° 0 min 0,000 mm 1,4 UV-I 302 W/m² 12,0 °C 19,7 °C 0,0 km/h (0 Bft)
15.10.2019 16:14 19,8 °C 57 % 1003,0 hPa 0,0 mm 3,4 km/h (1 Bft) N 355 ° 0 min 0,000 mm 1,3 UV-I 234 W/m² 11,0 °C 19,8 °C 6,4 km/h (2 Bft)
15.10.2019 16:15 19,9 °C 59 % 1003,0 hPa 0,0 mm 2,6 km/h (1 Bft) W-NW 288 ° 0 min 0,000 mm 1,2 UV-I 199 W/m² 11,6 °C 19,9 °C 4,8 km/h (1 Bft)
15.10.2019 16:16 20,0 °C 60 % 1003,0 hPa 0,0 mm 3,8 km/h (1 Bft) W 259 ° 0 min 0,000 mm 1,2 UV-I 169 W/m² 12,0 °C 20,0 °C 6,4 km/h (2 Bft)
15.10.2019 16:17 20,1 °C 59 % 1003,0 hPa 0,0 mm 1,1 km/h (1 Bft) W-SW 257 ° 0 min 0,000 mm 1,1 UV-I 155 W/m² 11,8 °C 20,1 °C 3,2 km/h (1 Bft)
15.10.2019 16:18 20,1 °C 61 % 1003,0 hPa 0,0 mm 0,3 km/h (0 Bft) W-SW 257 ° 0 min 0,000 mm 1,1 UV-I 123 W/m² 12,3 °C 20,1 °C 1,6 km/h (1 Bft)
15.10.2019 16:19 20,1 °C 58 % 1003,0 hPa 0,0 mm 2,5 km/h (1 Bft) W 279 ° 0 min 0,000 mm 1,1 UV-I 137 W/m² 11,6 °C 20,1 °C 6,4 km/h (2 Bft)
15.10.2019 16:20 20,2 °C 56 % 1003,0 hPa 0,0 mm 2,4 km/h (1 Bft) SW 214 ° 0 min 0,000 mm 1,1 UV-I 125 W/m² 11,1 °C 20,2 °C 4,8 km/h (1 Bft)
15.10.2019 16:21 20,2 °C 55 % 1003,0 hPa 0,0 mm 0,3 km/h (0 Bft) SW 214 ° 0 min 0,000 mm 1,1 UV-I 123 W/m² 10,9 °C 20,2 °C 1,6 km/h (1 Bft)
15.10.2019 16:22 20,3 °C 57 % 1002,9 hPa 0,0 mm 0,0 km/h (0 Bft) SW 214 ° 0 min 0,000 mm 1,1 UV-I 123 W/m² 11,5 °C 20,3 °C 0,0 km/h (0 Bft)
15.10.2019 16:23 20,3 °C 57 % 1002,9 hPa 0,0 mm 0,1 km/h (0 Bft) SW 214 ° 0 min 0,000 mm 1,1 UV-I 120 W/m² 11,5 °C 20,3 °C 1,6 km/h (1 Bft)
15.10.2019 16:24 20,4 °C 55 % 1003,0 hPa 0,0 mm 0,0 km/h (0 Bft) SW 214 ° 0 min 0,000 mm 1,1 UV-I 121 W/m² 11,1 °C 20,4 °C 0,0 km/h (0 Bft)
15.10.2019 16:25 20,4 °C 56 % 1003,0 hPa 0,0 mm 0,0 km/h (0 Bft) SW 214 ° 0 min 0,000 mm 1,0 UV-I 127 W/m² 11,3 °C 20,4 °C 0,0 km/h (0 Bft)
15.10.2019 16:26 20,3 °C 58 % 1003,0 hPa 0,0 mm 0,0 km/h (0 Bft) SW 214 ° 0 min 0,000 mm 1,0 UV-I 125 W/m² 11,8 °C 20,3 °C 0,0 km/h (0 Bft)
15.10.2019 16:27 20,2 °C 57 % 1003,0 hPa 0,0 mm 0,0 km/h (0 Bft) SW 214 ° 0 min 0,000 mm 1,0 UV-I 116 W/m² 11,4 °C 20,2 °C 0,0 km/h (0 Bft)
15.10.2019 16:28 20,2 °C 56 % 1003,1 hPa 0,0 mm 0,0 km/h (0 Bft) SW 214 ° 0 min 0,000 mm 1,0 UV-I 111 W/m² 11,1 °C 20,2 °C 0,0 km/h (0 Bft)
15.10.2019 16:29 20,2 °C 58 % 1003,0 hPa 0,0 mm 0,0 km/h (0 Bft) SW 214 ° 0 min 0,000 mm 1,0 UV-I 107 W/m² 11,7 °C 20,2 °C 0,0 km/h (0 Bft)
15.10.2019 16:30 20,1 °C 61 % 1003,1 hPa 0,0 mm 1,6 km/h (1 Bft) W 278 ° 0 min 0,000 mm 0,9 UV-I 107 W/m² 12,3 °C 20,1 °C 4,8 km/h (1 Bft)
15.10.2019 16:31 20,0 °C 61 % 1003,1 hPa 0,0 mm 2,4 km/h (1 Bft) W 277 ° 0 min 0,000 mm 0,9 UV-I 104 W/m² 12,2 °C 20,0 °C 3,2 km/h (1 Bft)
15.10.2019 16:32 20,1 °C 55 % 1003,3 hPa 0,0 mm 2,4 km/h (1 Bft) W 277 ° 0 min 0,000 mm 0,9 UV-I 104 W/m² 10,8 °C 20,1 °C 4,8 km/h (1 Bft)
15.10.2019 16:33 20,1 °C 55 % 1003,4 hPa 0,0 mm 4,7 km/h (1 Bft) W-NW 282 ° 0 min 0,000 mm 0,9 UV-I 104 W/m² 10,8 °C 20,1 °C 6,4 km/h (2 Bft)
15.10.2019 16:34 20,1 °C 56 % 1003,4 hPa 0,0 mm 9,9 km/h (2 Bft) W-NW 282 ° 0 min 0,000 mm 0,9 UV-I 107 W/m² 11,0 °C 20,1 °C 17,7 km/h (3 Bft)
15.10.2019 16:35 20,1 °C 57 % 1003,6 hPa 0,0 mm 17,6 km/h (3 Bft) W-NW 292 ° 0 min 0,000 mm 0,9 UV-I 107 W/m² 11,3 °C 20,1 °C 24,1 km/h (4 Bft)
15.10.2019 16:36 20,1 °C 59 % 1003,6 hPa 0,0 mm 13,8 km/h (3 Bft) W 273 ° 0 min 0,000 mm 0,8 UV-I 114 W/m² 11,8 °C 20,1 °C 19,3 km/h (3 Bft)
15.10.2019 16:37 19,9 °C 60 % 1003,7 hPa 0,0 mm 14,4 km/h (3 Bft) W-SW 256 ° 0 min 0,000 mm 0,8 UV-I 120 W/m² 11,9 °C 19,9 °C 17,7 km/h (3 Bft)
15.10.2019 16:38 19,7 °C 61 % 1003,7 hPa 0,0 mm 9,7 km/h (2 Bft) W-SW 257 ° 0 min 0,000 mm 0,8 UV-I 134 W/m² 12,0 °C 19,7 °C 14,5 km/h (3 Bft)
15.10.2019 16:39 19,4 °C 61 % 1003,8 hPa 0,0 mm 11,1 km/h (2 Bft) W-NW 290 ° 0 min 0,000 mm 0,8 UV-I 134 W/m² 11,7 °C 19,4 °C 14,5 km/h (3 Bft)
15.10.2019 16:40 19,3 °C 62 % 1003,8 hPa 0,0 mm 11,0 km/h (2 Bft) W-SW 248 ° 0 min 0,000 mm 0,8 UV-I 113 W/m² 11,8 °C 19,3 °C 16,1 km/h (3 Bft)
15.10.2019 16:41 19,1 °C 64 % 1003,9 hPa 0,0 mm 9,3 km/h (2 Bft) N-NW 330 ° 0 min 0,000 mm 0,8 UV-I 114 W/m² 12,1 °C 19,1 °C 14,5 km/h (3 Bft)
15.10.2019 16:42 18,8 °C 64 % 1003,8 hPa 0,0 mm 15,4 km/h (3 Bft) W-NW 292 ° 0 min 0,000 mm 0,8 UV-I 111 W/m² 11,8 °C 18,8 °C 24,1 km/h (4 Bft)
15.10.2019 16:43 18,6 °C 63 % 1003,9 hPa 0,0 mm 12,3 km/h (3 Bft) W 262 ° 0 min 0,000 mm 0,8 UV-I 105 W/m² 11,4 °C 18,6 °C 20,9 km/h (4 Bft)
15.10.2019 16:44 18,4 °C 63 % 1004,0 hPa 0,0 mm 14,1 km/h (3 Bft) W 262 ° 0 min 0,000 mm 0,7 UV-I 104 W/m² 11,2 °C 18,4 °C 19,3 km/h (3 Bft)
15.10.2019 16:45 18,2 °C 63 % 1004,0 hPa 0,0 mm 12,9 km/h (3 Bft) W-NW 291 ° 0 min 0,000 mm 0,7 UV-I 104 W/m² 11,0 °C 18,2 °C 16,1 km/h (3 Bft)
15.10.2019 16:46 17,9 °C 65 % 1004,1 hPa 0,0 mm 8,5 km/h (2 Bft) W-NW 284 ° 0 min 0,000 mm 0,7 UV-I 104 W/m² 11,2 °C 17,9 °C 14,5 km/h (3 Bft)
15.10.2019 16:47 17,7 °C 65 % 1004,1 hPa 0,0 mm 5,8 km/h (2 Bft) W-NW 301 ° 0 min 0,000 mm 0,7 UV-I 102 W/m² 11,0 °C 17,7 °C 9,7 km/h (2 Bft)
15.10.2019 16:48 17,6 °C 67 % 1004,1 hPa 0,0 mm 3,0 km/h (1 Bft) NW 308 ° 0 min 0,000 mm 0,7 UV-I 102 W/m² 11,4 °C 17,6 °C 4,8 km/h (1 Bft)
15.10.2019 16:49 17,4 °C 67 % 1004,2 hPa 0,0 mm 8,1 km/h (2 Bft) W-NW 288 ° 0 min 0,000 mm 0,7 UV-I 105 W/m² 11,2 °C 17,4 °C 20,9 km/h (4 Bft)
15.10.2019 16:50 17,3 °C 67 % 1004,2 hPa 0,0 mm 8,7 km/h (2 Bft) W 270 ° 0 min 0,000 mm 0,7 UV-I 107 W/m² 11,1 °C 17,3 °C 19,3 km/h (3 Bft)
15.10.2019 16:51 17,2 °C 67 % 1004,2 hPa 0,0 mm 10,9 km/h (2 Bft) W-NW 302 ° 0 min 0,000 mm 0,7 UV-I 107 W/m² 11,0 °C 17,2 °C 12,9 km/h (3 Bft)
15.10.2019 16:52 17,1 °C 68 % 1004,2 hPa 0,0 mm 8,4 km/h (2 Bft) W 265 ° 0 min 0,000 mm 0,7 UV-I 113 W/m² 11,1 °C 17,1 °C 14,5 km/h (3 Bft)
15.10.2019 16:53 16,9 °C 69 % 1004,2 hPa 0,0 mm 4,8 km/h (1 Bft) NW 322 ° 0 min 0,000 mm 0,6 UV-I 111 W/m² 11,2 °C 16,9 °C 8,0 km/h (2 Bft)
15.10.2019 16:54 16,9 °C 69 % 1004,2 hPa 0,0 mm 10,1 km/h (2 Bft) W 262 ° 0 min 0,000 mm 0,6 UV-I 116 W/m² 11,2 °C 16,9 °C 12,9 km/h (3 Bft)
15.10.2019 16:55 16,8 °C 69 % 1004,2 hPa 0,0 mm 7,1 km/h (2 Bft) W-NW 299 ° 0 min 0,000 mm 0,7 UV-I 118 W/m² 11,1 °C 16,8 °C 11,3 km/h (2 Bft)
15.10.2019 16:56 16,7 °C 69 % 1004,3 hPa 0,0 mm 9,9 km/h (2 Bft) W-NW 297 ° 0 min 0,000 mm 0,7 UV-I 120 W/m² 11,0 °C 16,7 °C 22,5 km/h (4 Bft)
15.10.2019 16:57 16,7 °C 69 % 1004,3 hPa 0,0 mm 10,8 km/h (2 Bft) W 267 ° 0 min 0,000 mm 0,7 UV-I 123 W/m² 11,0 °C 16,7 °C 19,3 km/h (3 Bft)
15.10.2019 16:58 16,6 °C 70 % 1004,4 hPa 0,0 mm 11,5 km/h (2 Bft) W 271 ° 0 min 0,000 mm 0,7 UV-I 130 W/m² 11,1 °C 16,6 °C 16,1 km/h (3 Bft)
15.10.2019 16:59 16,5 °C 70 % 1004,4 hPa 0,0 mm 8,4 km/h (2 Bft) NW 312 ° 0 min 0,000 mm 0,7 UV-I 132 W/m² 11,0 °C 16,5 °C 14,5 km/h (3 Bft)
15.10.2019 17:00 16,4 °C 70 % 1004,4 hPa 0,0 mm 8,2 km/h (2 Bft) NW 312 ° 0 min 0,000 mm 0,7 UV-I 132 W/m² 10,9 °C 16,4 °C 16,1 km/h (3 Bft)
15.10.2019 17:01 16,4 °C 70 % 1004,3 hPa 0,0 mm 8,6 km/h (2 Bft) W 280 ° 0 min 0,127 mm 0,7 UV-I 130 W/m² 10,9 °C 16,4 °C 14,5 km/h (3 Bft)
15.10.2019 17:02 16,4 °C 70 % 1004,2 hPa 0,0 mm 6,3 km/h (2 Bft) W-NW 284 ° 0 min 0,000 mm 0,7 UV-I 130 W/m² 10,9 °C 16,4 °C 14,5 km/h (3 Bft)
15.10.2019 17:03 16,3 °C 70 % 1004,2 hPa 0,0 mm 8,4 km/h (2 Bft) NW 319 ° 0 min 0,000 mm 0,7 UV-I 125 W/m² 10,8 °C 16,3 °C 12,9 km/h (3 Bft)
15.10.2019 17:04 16,4 °C 71 % 1004,2 hPa 0,0 mm 11,8 km/h (2 Bft) W-NW 288 ° 0 min 0,000 mm 0,7 UV-I 121 W/m² 11,1 °C 16,4 °C 14,5 km/h (3 Bft)
15.10.2019 17:05 16,3 °C 70 % 1004,1 hPa 0,0 mm 6,4 km/h (2 Bft) W-NW 286 ° 0 min 0,000 mm 0,7 UV-I 116 W/m² 10,8 °C 16,3 °C 11,3 km/h (2 Bft)
15.10.2019 17:06 16,3 °C 71 % 1004,2 hPa 0,0 mm 6,8 km/h (2 Bft) W-NW 301 ° 0 min 0,000 mm 0,6 UV-I 105 W/m² 11,0 °C 16,3 °C 11,3 km/h (2 Bft)
15.10.2019 17:07 16,3 °C 71 % 1004,1 hPa 0,0 mm 5,3 km/h (1 Bft) W-NW 296 ° 0 min 0,000 mm 0,6 UV-I 98 W/m² 11,0 °C 16,3 °C 11,3 km/h (2 Bft)
15.10.2019 17:08 16,3 °C 71 % 1004,1 hPa 0,0 mm 7,3 km/h (2 Bft) N-NW 337 ° 0 min 0,000 mm 0,6 UV-I 93 W/m² 11,0 °C 16,3 °C 11,3 km/h (2 Bft)
15.10.2019 17:09 16,2 °C 72 % 1004,1 hPa 0,0 mm 5,4 km/h (1 Bft) W 277 ° 0 min 0,000 mm 0,6 UV-I 88 W/m² 11,1 °C 16,2 °C 11,3 km/h (2 Bft)
15.10.2019 17:10 16,1 °C 71 % 1004,1 hPa 0,0 mm 11,5 km/h (2 Bft) W 269 ° 0 min 0,000 mm 0,5 UV-I 84 W/m² 10,8 °C 16,1 °C 17,7 km/h (3 Bft)
15.10.2019 17:11 16,1 °C 71 % 1004,1 hPa 0,0 mm 6,2 km/h (2 Bft) W-NW 294 ° 0 min 0,000 mm 0,5 UV-I 79 W/m² 10,8 °C 16,1 °C 11,3 km/h (2 Bft)
15.10.2019 17:12 16,1 °C 72 % 1004,2 hPa 0,0 mm 6,5 km/h (2 Bft) N-NO 13 ° 0 min 0,000 mm 0,5 UV-I 72 W/m² 11,0 °C 16,1 °C 9,7 km/h (2 Bft)
15.10.2019 17:13 16,0 °C 72 % 1004,1 hPa 0,0 mm 5,2 km/h (1 Bft) W-NW 297 ° 0 min 0,000 mm 0,5 UV-I 70 W/m² 11,0 °C 16,0 °C 6,4 km/h (2 Bft)
15.10.2019 17:14 16,0 °C 72 % 1004,1 hPa 0,0 mm 8,9 km/h (2 Bft) W-NW 289 ° 0 min 0,000 mm 0,5 UV-I 70 W/m² 11,0 °C 16,0 °C 17,7 km/h (3 Bft)
15.10.2019 17:15 15,9 °C 73 % 1004,2 hPa 0,0 mm 9,9 km/h (2 Bft) N 350 ° 0 min 0,000 mm 0,5 UV-I 67 W/m² 11,1 °C 15,9 °C 16,1 km/h (3 Bft)
15.10.2019 17:16 15,9 °C 73 % 1004,2 hPa 0,0 mm 6,8 km/h (2 Bft) W-NW 292 ° 0 min 0,000 mm 0,5 UV-I 63 W/m² 11,1 °C 15,9 °C 12,9 km/h (3 Bft)
15.10.2019 17:17 15,8 °C 73 % 1004,2 hPa 0,0 mm 3,8 km/h (1 Bft) W 275 ° 0 min 0,000 mm 0,5 UV-I 54 W/m² 11,0 °C 15,8 °C 11,3 km/h (2 Bft)
15.10.2019 17:18 15,7 °C 73 % 1004,1 hPa 0,0 mm 8,0 km/h (2 Bft) W-NW 294 ° 0 min 0,000 mm 0,5 UV-I 49 W/m² 10,9 °C 15,7 °C 12,9 km/h (3 Bft)
15.10.2019 17:19 15,7 °C 73 % 1004,2 hPa 0,0 mm 6,4 km/h (2 Bft) NW 325 ° 0 min 0,000 mm 0,0 UV-I 46 W/m² 10,9 °C 15,7 °C 9,7 km/h (2 Bft)
15.10.2019 17:20 15,7 °C 73 % 1004,2 hPa 0,0 mm 6,2 km/h (2 Bft) W-NW 286 ° 0 min 0,000 mm 0,0 UV-I 42 W/m² 10,9 °C 15,7 °C 11,3 km/h (2 Bft)
15.10.2019 17:21 15,6 °C 74 % 1004,1 hPa 0,0 mm 8,0 km/h (2 Bft) NW 319 ° 0 min 0,000 mm 0,0 UV-I 39 W/m² 11,0 °C 15,6 °C 17,7 km/h (3 Bft)
15.10.2019 17:22 15,6 °C 74 % 1004,1 hPa 0,0 mm 4,7 km/h (1 Bft) W-NW 290 ° 0 min 0,000 mm 0,0 UV-I 37 W/m² 11,0 °C 15,6 °C 6,4 km/h (2 Bft)
15.10.2019 17:23 15,5 °C 74 % 1004,2 hPa 0,0 mm 8,4 km/h (2 Bft) W 281 ° 0 min 0,000 mm 0,0 UV-I 33 W/m² 10,9 °C 15,5 °C 11,3 km/h (2 Bft)
15.10.2019 17:24 15,4 °C 74 % 1004,2 hPa 0,0 mm 9,4 km/h (2 Bft) W 261 ° 0 min 0,000 mm 0,0 UV-I 32 W/m² 10,8 °C 15,4 °C 12,9 km/h (3 Bft)
15.10.2019 17:25 15,4 °C 74 % 1004,2 hPa 0,0 mm 12,0 km/h (2 Bft) W 278 ° 0 min 0,000 mm 0,0 UV-I 30 W/m² 10,8 °C 15,4 °C 19,3 km/h (3 Bft)
15.10.2019 17:26 15,4 °C 75 % 1004,2 hPa 0,0 mm 12,7 km/h (3 Bft) W-SW 251 ° 0 min 0,000 mm 0,0 UV-I 28 W/m² 11,0 °C 15,4 °C 20,9 km/h (4 Bft)
15.10.2019 17:27 15,3 °C 75 % 1004,3 hPa 0,0 mm 14,2 km/h (3 Bft) W-NW 295 ° 0 min 0,000 mm 0,0 UV-I 26 W/m² 10,9 °C 15,3 °C 24,1 km/h (4 Bft)
15.10.2019 17:28 15,3 °C 75 % 1004,3 hPa 0,0 mm 8,3 km/h (2 Bft) W-SW 257 ° 0 min 0,000 mm 0,0 UV-I 25 W/m² 10,9 °C 15,3 °C 12,9 km/h (3 Bft)
15.10.2019 17:29 15,2 °C 75 % 1004,3 hPa 0,0 mm 7,4 km/h (2 Bft) W-NW 284 ° 0 min 0,000 mm 0,0 UV-I 23 W/m² 10,8 °C 15,2 °C 12,9 km/h (3 Bft)
15.10.2019 17:30 15,2 °C 76 % 1004,3 hPa 0,0 mm 9,9 km/h (2 Bft) NW 315 ° 0 min 0,000 mm 0,0 UV-I 21 W/m² 11,0 °C 15,2 °C 19,3 km/h (3 Bft)
15.10.2019 17:31 15,2 °C 75 % 1004,2 hPa 0,0 mm 13,0 km/h (3 Bft) W-SW 249 ° 0 min 0,000 mm 0,0 UV-I 21 W/m² 10,8 °C 15,2 °C 19,3 km/h (3 Bft)
15.10.2019 17:32 15,1 °C 76 % 1004,3 hPa 0,0 mm 14,4 km/h (3 Bft) W 273 ° 0 min 0,000 mm 0,0 UV-I 21 W/m² 10,9 °C 15,1 °C 20,9 km/h (4 Bft)
15.10.2019 17:33 15,0 °C 76 % 1004,2 hPa 0,0 mm 16,1 km/h (3 Bft) W 263 ° 0 min 0,000 mm 0,0 UV-I 19 W/m² 10,8 °C 15,0 °C 25,7 km/h (4 Bft)
15.10.2019 17:34 14,9 °C 76 % 1004,4 hPa 0,0 mm 11,3 km/h (2 Bft) W 277 ° 0 min 0,000 mm 0,0 UV-I 19 W/m² 10,7 °C 14,9 °C 16,1 km/h (3 Bft)
15.10.2019 17:35 14,9 °C 76 % 1004,3 hPa 0,0 mm 10,1 km/h (2 Bft) W-SW 246 ° 0 min 0,000 mm 0,0 UV-I 21 W/m² 10,7 °C 14,9 °C 12,9 km/h (3 Bft)
15.10.2019 17:36 14,9 °C 76 % 1004,3 hPa 0,0 mm 6,8 km/h (2 Bft) W 269 ° 0 min 0,000 mm 0,0 UV-I 23 W/m² 10,7 °C 14,9 °C 11,3 km/h (2 Bft)
15.10.2019 17:37 14,9 °C 76 % 1004,3 hPa 0,0 mm 12,4 km/h (3 Bft) W 279 ° 0 min 0,000 mm 0,0 UV-I 23 W/m² 10,7 °C 14,9 °C 16,1 km/h (3 Bft)
15.10.2019 17:38 14,8 °C 76 % 1004,3 hPa 0,0 mm 12,6 km/h (3 Bft) W 259 ° 0 min 0,000 mm 0,0 UV-I 23 W/m² 10,6 °C 14,8 °C 19,3 km/h (3 Bft)
15.10.2019 17:39 14,8 °C 77 % 1004,3 hPa 0,0 mm 13,5 km/h (3 Bft) W 275 ° 0 min 0,000 mm 0,0 UV-I 25 W/m² 10,8 °C 14,8 °C 20,9 km/h (4 Bft)
15.10.2019 17:40 14,8 °C 77 % 1004,3 hPa 0,0 mm 9,0 km/h (2 Bft) W-NW 285 ° 0 min 0,000 mm 0,0 UV-I 25 W/m² 10,8 °C 14,8 °C 17,7 km/h (3 Bft)
15.10.2019 17:41 14,8 °C 77 % 1004,3 hPa 0,0 mm 10,5 km/h (2 Bft) W 271 ° 0 min 0,000 mm 0,0 UV-I 28 W/m² 10,8 °C 14,8 °C 16,1 km/h (3 Bft)
15.10.2019 17:42 14,8 °C 77 % 1004,3 hPa 0,0 mm 10,7 km/h (2 Bft) SW 222 ° 0 min 0,000 mm 0,0 UV-I 30 W/m² 10,8 °C 14,8 °C 14,5 km/h (3 Bft)
15.10.2019 17:43 14,8 °C 77 % 1004,4 hPa 0,0 mm 10,5 km/h (2 Bft) W 262 ° 0 min 0,000 mm 0,0 UV-I 30 W/m² 10,8 °C 14,8 °C 17,7 km/h (3 Bft)
15.10.2019 17:44 14,8 °C 77 % 1004,4 hPa 0,0 mm 8,2 km/h (2 Bft) W-NW 283 ° 0 min 0,000 mm 0,0 UV-I 30 W/m² 10,8 °C 14,8 °C 12,9 km/h (3 Bft)
15.10.2019 17:45 14,7 °C 77 % 1004,4 hPa 0,0 mm 11,7 km/h (2 Bft) W 279 ° 0 min 0,000 mm 0,0 UV-I 30 W/m² 10,7 °C 14,7 °C 20,9 km/h (4 Bft)
15.10.2019 17:46 14,7 °C 77 % 1004,4 hPa 0,0 mm 7,4 km/h (2 Bft) W-NW 285 ° 0 min 0,000 mm 0,0 UV-I 30 W/m² 10,7 °C 14,7 °C 16,1 km/h (3 Bft)
15.10.2019 17:47 14,6 °C 77 % 1004,4 hPa 0,0 mm 4,5 km/h (1 Bft) NW 313 ° 0 min 0,000 mm 0,0 UV-I 30 W/m² 10,6 °C 14,6 °C 8,0 km/h (2 Bft)
15.10.2019 17:48 14,7 °C 77 % 1004,4 hPa 0,0 mm 10,6 km/h (2 Bft) W 259 ° 0 min 0,000 mm 0,0 UV-I 30 W/m² 10,7 °C 14,7 °C 17,7 km/h (3 Bft)
15.10.2019 17:49 14,6 °C 77 % 1004,5 hPa 0,0 mm 9,3 km/h (2 Bft) W-SW 253 ° 0 min 0,000 mm 0,0 UV-I 28 W/m² 10,6 °C 14,6 °C 12,9 km/h (3 Bft)
15.10.2019 17:50 14,6 °C 78 % 1004,5 hPa 0,0 mm 7,0 km/h (2 Bft) W-NW 300 ° 0 min 0,000 mm 0,0 UV-I 28 W/m² 10,8 °C 14,6 °C 14,5 km/h (3 Bft)
15.10.2019 17:51 14,6 °C 77 % 1004,5 hPa 0,0 mm 11,7 km/h (2 Bft) W-NW 294 ° 0 min 0,000 mm 0,0 UV-I 28 W/m² 10,6 °C 14,6 °C 20,9 km/h (4 Bft)
15.10.2019 17:52 14,5 °C 77 % 1004,5 hPa 0,0 mm 14,8 km/h (3 Bft) NW 304 ° 0 min 0,000 mm 0,0 UV-I 28 W/m² 10,5 °C 14,5 °C 20,9 km/h (4 Bft)
15.10.2019 17:53 14,4 °C 77 % 1004,5 hPa 0,0 mm 3,9 km/h (1 Bft) NW 304 ° 0 min 0,000 mm 0,0 UV-I 26 W/m² 10,4 °C 14,4 °C 8,0 km/h (2 Bft)
15.10.2019 17:54 14,4 °C 77 % 1004,5 hPa 0,0 mm 6,8 km/h (2 Bft) W-NW 294 ° 0 min 0,000 mm 0,0 UV-I 26 W/m² 10,4 °C 14,4 °C 12,9 km/h (3 Bft)
15.10.2019 17:55 14,4 °C 78 % 1004,6 hPa 0,0 mm 14,9 km/h (3 Bft) W-SW 251 ° 0 min 0,000 mm 0,0 UV-I 26 W/m² 10,6 °C 14,4 °C 22,5 km/h (4 Bft)
15.10.2019 17:56 14,3 °C 78 % 1004,6 hPa 0,0 mm 11,9 km/h (2 Bft) W-NW 291 ° 0 min 0,000 mm 0,0 UV-I 26 W/m² 10,5 °C 14,3 °C 16,1 km/h (3 Bft)
15.10.2019 17:57 14,3 °C 78 % 1004,7 hPa 0,0 mm 8,9 km/h (2 Bft) W 264 ° 0 min 0,000 mm 0,0 UV-I 26 W/m² 10,5 °C 14,3 °C 14,5 km/h (3 Bft)
15.10.2019 17:58 14,3 °C 78 % 1004,7 hPa 0,0 mm 11,7 km/h (2 Bft) W 266 ° 0 min 0,000 mm 0,0 UV-I 25 W/m² 10,5 °C 14,3 °C 14,5 km/h (3 Bft)
15.10.2019 17:59 14,2 °C 78 % 1004,9 hPa 0,0 mm 12,1 km/h (2 Bft) NW 311 ° 0 min 0,000 mm 0,0 UV-I 25 W/m² 10,4 °C 14,2 °C 19,3 km/h (3 Bft)
15.10.2019 18:00 14,2 °C 78 % 1004,8 hPa 0,0 mm 13,7 km/h (3 Bft) W-NW 302 ° 0 min 0,000 mm 0,0 UV-I 23 W/m² 10,4 °C 14,2 °C 27,4 km/h (4 Bft)
15.10.2019 18:01 14,2 °C 77 % 1004,8 hPa 0,0 mm 7,8 km/h (2 Bft) W-SW 249 ° 0 min 0,050 mm 0,0 UV-I 21 W/m² 10,2 °C 14,2 °C 16,1 km/h (3 Bft)
15.10.2019 18:02 14,1 °C 78 % 1004,8 hPa 0,0 mm 10,7 km/h (2 Bft) W 261 ° 0 min 0,000 mm 0,0 UV-I 21 W/m² 10,3 °C 14,1 °C 16,1 km/h (3 Bft)
15.10.2019 18:03 14,1 °C 78 % 1004,8 hPa 0,0 mm 8,0 km/h (2 Bft) W-SW 242 ° 0 min 0,000 mm 0,0 UV-I 19 W/m² 10,3 °C 14,1 °C 14,5 km/h (3 Bft)
15.10.2019 18:04 14,1 °C 78 % 1004,8 hPa 0,0 mm 9,9 km/h (2 Bft) W 281 ° 0 min 0,000 mm 0,0 UV-I 16 W/m² 10,3 °C 14,1 °C 16,1 km/h (3 Bft)
15.10.2019 18:05 14,0 °C 78 % 1004,8 hPa 0,0 mm 14,4 km/h (3 Bft) N-NW 332 ° 0 min 0,000 mm 0,0 UV-I 16 W/m² 10,2 °C 14,0 °C 25,7 km/h (4 Bft)
15.10.2019 18:06 13,9 °C 78 % 1004,8 hPa 0,0 mm 5,6 km/h (1 Bft) S-SW 208 ° 0 min 0,000 mm 0,0 UV-I 14 W/m² 10,1 °C 13,9 °C 11,3 km/h (2 Bft)
15.10.2019 18:07 13,9 °C 78 % 1004,9 hPa 0,0 mm 7,6 km/h (2 Bft) W-NW 289 ° 0 min 0,000 mm 0,0 UV-I 14 W/m² 10,1 °C 13,9 °C 11,3 km/h (2 Bft)
15.10.2019 18:08 13,9 °C 78 % 1004,9 hPa 0,0 mm 7,6 km/h (2 Bft) W 263 ° 0 min 0,000 mm 0,0 UV-I 14 W/m² 10,1 °C 13,9 °C 14,5 km/h (3 Bft)
15.10.2019 18:09 13,8 °C 78 % 1005,0 hPa 0,0 mm 13,0 km/h (3 Bft) S 179 ° 0 min 0,000 mm 0,0 UV-I 12 W/m² 10,0 °C 13,8 °C 19,3 km/h (3 Bft)
15.10.2019 18:10 13,8 °C 78 % 1005,0 hPa 0,0 mm 10,9 km/h (2 Bft) W 259 ° 0 min 0,000 mm 0,0 UV-I 12 W/m² 10,0 °C 13,8 °C 22,5 km/h (4 Bft)
15.10.2019 18:11 13,8 °C 78 % 1005,1 hPa 0,0 mm 12,1 km/h (2 Bft) W 281 ° 0 min 0,000 mm 0,0 UV-I 12 W/m² 10,0 °C 13,8 °C 22,5 km/h (4 Bft)
15.10.2019 18:12 13,8 °C 78 % 1005,1 hPa 0,0 mm 14,2 km/h (3 Bft) NW 311 ° 0 min 0,000 mm 0,0 UV-I 12 W/m² 10,0 °C 13,8 °C 19,3 km/h (3 Bft)
15.10.2019 18:13 13,7 °C 78 % 1005,1 hPa 0,0 mm 13,1 km/h (3 Bft) W 281 ° 0 min 0,000 mm 0,0 UV-I 11 W/m² 9,9 °C 13,7 °C 16,1 km/h (3 Bft)
15.10.2019 18:14 13,7 °C 79 % 1005,2 hPa 0,0 mm 14,1 km/h (3 Bft) W-SW 254 ° 0 min 0,000 mm 0,0 UV-I 11 W/m² 10,1 °C 13,7 °C 25,7 km/h (4 Bft)
15.10.2019 18:15 13,7 °C 79 % 1005,1 hPa 0,0 mm 18,0 km/h (3 Bft) W 272 ° 0 min 0,000 mm 0,0 UV-I 11 W/m² 10,1 °C 13,7 °C 27,4 km/h (4 Bft)
15.10.2019 18:16 13,7 °C 79 % 1005,2 hPa 0,0 mm 12,9 km/h (3 Bft) W-NW 300 ° 0 min 0,000 mm 0,0 UV-I 9 W/m² 10,1 °C 13,7 °C 17,7 km/h (3 Bft)
15.10.2019 18:17 13,7 °C 79 % 1005,2 hPa 0,0 mm 14,3 km/h (3 Bft) W-NW 298 ° 0 min 0,000 mm 0,0 UV-I 9 W/m² 10,1 °C 13,7 °C 19,3 km/h (3 Bft)
15.10.2019 18:18 13,6 °C 79 % 1005,2 hPa 0,0 mm 13,2 km/h (3 Bft) W 261 ° 0 min 0,000 mm 0,0 UV-I 7 W/m² 10,0 °C 13,6 °C 19,3 km/h (3 Bft)
15.10.2019 18:19 13,6 °C 79 % 1005,2 hPa 0,0 mm 12,3 km/h (3 Bft) W 261 ° 0 min 0,000 mm 0,0 UV-I 7 W/m² 10,0 °C 13,6 °C 17,7 km/h (3 Bft)
15.10.2019 18:20 13,6 °C 79 % 1005,2 hPa 0,0 mm 20,4 km/h (4 Bft) W-NW 282 ° 0 min 0,000 mm 0,0 UV-I 7 W/m² 10,0 °C 13,6 °C 30,6 km/h (5 Bft)
15.10.2019 18:21 13,6 °C 79 % 1005,2 hPa 0,0 mm 14,1 km/h (3 Bft) W 265 ° 0 min 0,000 mm 0,0 UV-I 7 W/m² 10,0 °C 13,6 °C 22,5 km/h (4 Bft)
15.10.2019 18:22 13,6 °C 79 % 1005,2 hPa 0,0 mm 12,8 km/h (3 Bft) NW 318 ° 0 min 0,000 mm 0,0 UV-I 5 W/m² 10,0 °C 13,6 °C 17,7 km/h (3 Bft)
15.10.2019 18:23 13,6 °C 79 % 1005,3 hPa 0,0 mm 7,2 km/h (2 Bft) W 275 ° 0 min 0,000 mm 0,0 UV-I 5 W/m² 10,0 °C 13,6 °C 19,3 km/h (3 Bft)
15.10.2019 18:24 13,6 °C 79 % 1005,3 hPa 0,0 mm 12,6 km/h (3 Bft) W-SW 255 ° 0 min 0,000 mm 0,0 UV-I 5 W/m² 10,0 °C 13,6 °C 17,7 km/h (3 Bft)
15.10.2019 18:25 13,6 °C 79 % 1005,5 hPa 0,0 mm 7,8 km/h (2 Bft) W 259 ° 0 min 0,000 mm 0,0 UV-I 5 W/m² 10,0 °C 13,6 °C 14,5 km/h (3 Bft)
15.10.2019 18:26 13,6 °C 80 % 1005,5 hPa 0,0 mm 15,8 km/h (3 Bft) W-NW 288 ° 0 min 0,000 mm 0,0 UV-I 5 W/m² 10,2 °C 13,6 °C 25,7 km/h (4 Bft)
15.10.2019 18:27 13,6 °C 79 % 1005,6 hPa 0,0 mm 9,9 km/h (2 Bft) W-SW 252 ° 0 min 0,000 mm 0,0 UV-I 5 W/m² 10,0 °C 13,6 °C 17,7 km/h (3 Bft)
15.10.2019 18:28 13,6 °C 79 % 1005,6 hPa 0,0 mm 9,7 km/h (2 Bft) W-SW 257 ° 0 min 0,000 mm 0,0 UV-I 0 W/m² 10,0 °C 13,6 °C 19,3 km/h (3 Bft)
15.10.2019 18:29 13,6 °C 79 % 1005,6 hPa 0,0 mm 13,8 km/h (3 Bft) W 277 ° 0 min 0,000 mm 0,0 UV-I 0 W/m² 10,0 °C 13,6 °C 20,9 km/h (4 Bft)
15.10.2019 18:30 13,6 °C 79 % 1005,6 hPa 0,0 mm 10,1 km/h (2 Bft) W-SW 250 ° 0 min 0,000 mm 0,0 UV-I 0 W/m² 10,0 °C 13,6 °C 19,3 km/h (3 Bft)
15.10.2019 18:31 13,6 °C 79 % 1005,6 hPa 0,0 mm 11,5 km/h (2 Bft) W 280 ° 0 min 0,000 mm 0,0 UV-I 0 W/m² 10,0 °C 13,6 °C 16,1 km/h (3 Bft)
15.10.2019 18:32 13,6 °C 79 % 1005,6 hPa 0,0 mm 14,3 km/h (3 Bft) W-SW 251 ° 0 min 0,000 mm 0,0 UV-I 0 W/m² 10,0 °C 13,6 °C 19,3 km/h (3 Bft)
15.10.2019 18:33 13,6 °C 79 % 1005,6 hPa 0,0 mm 6,2 km/h (2 Bft) W-NW 283 ° 0 min 0,000 mm 0,0 UV-I 0 W/m² 10,0 °C 13,6 °C 11,3 km/h (2 Bft)
15.10.2019 18:34 13,6 °C 79 % 1005,6 hPa 0,0 mm 7,4 km/h (2 Bft) W 263 ° 0 min 0,000 mm 0,0 UV-I 0 W/m² 10,0 °C 13,6 °C 11,3 km/h (2 Bft)
15.10.2019 18:35 13,6 °C 79 % 1005,7 hPa 0,0 mm 10,5 km/h (2 Bft) W 272 ° 0 min 0,000 mm 0,0 UV-I 0 W/m² 10,0 °C 13,6 °C 16,1 km/h (3 Bft)
15.10.2019 18:36 13,5 °C 80 % 1005,6 hPa 0,0 mm 11,8 km/h (2 Bft) W 265 ° 0 min 0,000 mm 0,0 UV-I 0 W/m² 10,1 °C 13,5 °C 14,5 km/h (3 Bft)
15.10.2019 18:37 13,5 °C 80 % 1005,7 hPa 0,0 mm 12,9 km/h (3 Bft) W-SW 255 ° 0 min 0,000 mm 0,0 UV-I 0 W/m² 10,1 °C 13,5 °C 17,7 km/h (3 Bft)
15.10.2019 18:38 13,4 °C 80 % 1005,7 hPa 0,0 mm 9,7 km/h (2 Bft) W-SW 254 ° 0 min 0,000 mm 0,0 UV-I 0 W/m² 10,0 °C 13,4 °C 16,1 km/h (3 Bft)
15.10.2019 18:39 13,4 °C 80 % 1005,8 hPa 0,0 mm 13,0 km/h (3 Bft) W-SW 252 ° 0 min 0,000 mm 0,0 UV-I 0 W/m² 10,0 °C 13,4 °C 17,7 km/h (3 Bft)
15.10.2019 18:40 13,4 °C 80 % 1005,8 hPa 0,0 mm 11,6 km/h (2 Bft) W-SW 257 ° 0 min 0,000 mm 0,0 UV-I 0 W/m² 10,0 °C 13,4 °C 19,3 km/h (3 Bft)
15.10.2019 18:41 13,4 °C 80 % 1005,8 hPa 0,0 mm 12,7 km/h (3 Bft) W-SW 256 ° 0 min 0,000 mm 0,0 UV-I 0 W/m² 10,0 °C 13,4 °C 19,3 km/h (3 Bft)
15.10.2019 18:42 13,4 °C 80 % 1005,9 hPa 0,0 mm 14,8 km/h (3 Bft) W 278 ° 0 min 0,000 mm 0,0 UV-I 0 W/m² 10,0 °C 13,4 °C 19,3 km/h (3 Bft)
15.10.2019 18:43 13,4 °C 80 % 1005,8 hPa 0,0 mm 9,1 km/h (2 Bft) W 280 ° 0 min 0,000 mm 0,0 UV-I 0 W/m² 10,0 °C 13,4 °C 14,5 km/h (3 Bft)
15.10.2019 18:44 13,4 °C 80 % 1005,9 hPa 0,0 mm 12,5 km/h (3 Bft) W 269 ° 0 min 0,000 mm 0,0 UV-I 0 W/m² 10,0 °C 13,4 °C 19,3 km/h (3 Bft)
15.10.2019 18:45 13,4 °C 81 % 1005,9 hPa 0,0 mm 12,3 km/h (3 Bft) W-NW 282 ° 0 min 0,000 mm 0,0 UV-I 0 W/m² 10,2 °C 13,4 °C 17,7 km/h (3 Bft)
15.10.2019 18:46 13,3 °C 81 % 1005,8 hPa 0,0 mm 9,1 km/h (2 Bft) W-NW 299 ° 0 min 0,000 mm 0,0 UV-I 0 W/m² 10,1 °C 13,3 °C 17,7 km/h (3 Bft)
15.10.2019 18:47 13,3 °C 81 % 1005,8 hPa 0,0 mm 14,7 km/h (3 Bft) W-NW 290 ° 0 min 0,000 mm 0,0 UV-I 0 W/m² 10,1 °C 13,3 °C 25,7 km/h (4 Bft)
15.10.2019 18:48 13,3 °C 81 % 1005,9 hPa 0,0 mm 11,8 km/h (2 Bft) W-SW 257 ° 0 min 0,000 mm 0,0 UV-I 0 W/m² 10,1 °C 13,3 °C 17,7 km/h (3 Bft)
15.10.2019 18:49 13,3 °C 81 % 1006,0 hPa 0,0 mm 11,8 km/h (2 Bft) W 270 ° 0 min 0,000 mm 0,0 UV-I 0 W/m² 10,1 °C 13,3 °C 19,3 km/h (3 Bft)
15.10.2019 18:50 13,3 °C 81 % 1006,1 hPa 0,0 mm 17,0 km/h (3 Bft) W-SW 245 ° 0 min 0,000 mm 0,0 UV-I 0 W/m² 10,1 °C 13,3 °C 22,5 km/h (4 Bft)
15.10.2019 18:51 13,3 °C 81 % 1006,0 hPa 0,0 mm 8,3 km/h (2 Bft) W-SW 249 ° 0 min 0,000 mm 0,0 UV-I 0 W/m² 10,1 °C 13,3 °C 11,3 km/h (2 Bft)
15.10.2019 18:52 13,3 °C 81 % 1006,1 hPa 0,0 mm 10,8 km/h (2 Bft) W 265 ° 0 min 0,000 mm 0,0 UV-I 0 W/m² 10,1 °C 13,3 °C 12,9 km/h (3 Bft)
15.10.2019 18:53 13,3 °C 81 % 1006,1 hPa 0,0 mm 9,9 km/h (2 Bft) SW 219 ° 0 min 0,000 mm 0,0 UV-I 0 W/m² 10,1 °C 13,3 °C 14,5 km/h (3 Bft)
15.10.2019 18:54 13,2 °C 81 % 1006,2 hPa 0,0 mm 10,6 km/h (2 Bft) W-NW 286 ° 0 min 0,000 mm 0,0 UV-I 0 W/m² 10,0 °C 13,2 °C 19,3 km/h (3 Bft)
15.10.2019 18:55 13,2 °C 81 % 1006,1 hPa 0,0 mm 10,0 km/h (2 Bft) W 276 ° 0 min 0,000 mm 0,0 UV-I 0 W/m² 10,0 °C 13,2 °C 19,3 km/h (3 Bft)
15.10.2019 18:56 13,2 °C 81 % 1006,2 hPa 0,0 mm 14,4 km/h (3 Bft) W 277 ° 0 min 0,000 mm 0,0 UV-I 0 W/m² 10,0 °C 13,2 °C 29,0 km/h (5 Bft)
15.10.2019 18:57 13,2 °C 81 % 1006,3 hPa 0,0 mm 19,8 km/h (3 Bft) W 278 ° 0 min 0,000 mm 0,0 UV-I 0 W/m² 10,0 °C 13,2 °C 27,4 km/h (4 Bft)
15.10.2019 18:58 13,2 °C 81 % 1006,3 hPa 0,0 mm 12,3 km/h (3 Bft) W-NW 300 ° 0 min 0,000 mm 0,0 UV-I 0 W/m² 10,0 °C 13,2 °C 22,5 km/h (4 Bft)
15.10.2019 18:59 13,2 °C 81 % 1006,3 hPa 0,0 mm 8,9 km/h (2 Bft) W-NW 299 ° 0 min 0,000 mm 0,0 UV-I 0 W/m² 10,0 °C 13,2 °C 16,1 km/h (3 Bft)
15.10.2019 19:00 13,2 °C 81 % 1006,4 hPa 0,0 mm 13,7 km/h (3 Bft) W 262 ° 0 min 0,026 mm 0,0 UV-I 0 W/m² 10,0 °C 13,2 °C 17,7 km/h (3 Bft)
15.10.2019 19:01 13,2 °C 82 % 1006,3 hPa 0,0 mm 14,8 km/h (3 Bft) W-SW 244 ° 0 min 0,000 mm 0,0 UV-I 0 W/m² 10,2 °C 13,2 °C 22,5 km/h (4 Bft)
15.10.2019 19:02 13,2 °C 82 % 1006,4 hPa 0,0 mm 11,3 km/h (2 Bft) W 267 ° 0 min 0,000 mm 0,0 UV-I 0 W/m² 10,2 °C 13,2 °C 19,3 km/h (3 Bft)
15.10.2019 19:03 13,2 °C 82 % 1006,5 hPa 0,0 mm 8,9 km/h (2 Bft) W 263 ° 0 min 0,000 mm 0,0 UV-I 0 W/m² 10,2 °C 13,2 °C 12,9 km/h (3 Bft)
15.10.2019 19:04 13,2 °C 82 % 1006,5 hPa 0,0 mm 8,1 km/h (2 Bft) W 275 ° 0 min 0,000 mm 0,0 UV-I 0 W/m² 10,2 °C 13,2 °C 12,9 km/h (3 Bft)
15.10.2019 19:05 13,2 °C 82 % 1006,5 hPa 0,0 mm 10,3 km/h (2 Bft) W 265 ° 0 min 0,000 mm 0,0 UV-I 0 W/m² 10,2 °C 13,2 °C 16,1 km/h (3 Bft)
15.10.2019 19:06 13,2 °C 82 % 1006,5 hPa 0,0 mm 11,4 km/h (2 Bft) W 265 ° 0 min 0,000 mm 0,0 UV-I 0 W/m² 10,2 °C 13,2 °C 16,1 km/h (3 Bft)
15.10.2019 19:07 13,2 °C 82 % 1006,5 hPa 0,0 mm 9,8 km/h (2 Bft) W-SW 241 ° 0 min 0,000 mm 0,0 UV-I 0 W/m² 10,2 °C 13,2 °C 14,5 km/h (3 Bft)
15.10.2019 19:08 13,2 °C 82 % 1006,5 hPa 0,0 mm 12,5 km/h (3 Bft) W-NW 292 ° 0 min 0,000 mm 0,0 UV-I 0 W/m² 10,2 °C 13,2 °C 17,7 km/h (3 Bft)
15.10.2019 19:09 13,2 °C 82 % 1006,5 hPa 0,0 mm 10,1 km/h (2 Bft) W 267 ° 0 min 0,000 mm 0,0 UV-I 0 W/m² 10,2 °C 13,2 °C 16,1 km/h (3 Bft)
15.10.2019 19:10 13,2 °C 82 % 1006,5 hPa 0,0 mm 5,5 km/h (1 Bft) W-NW 301 ° 0 min 0,000 mm 0,0 UV-I 0 W/m² 10,2 °C 13,2 °C 9,7 km/h (2 Bft)
15.10.2019 19:11 13,2 °C 82 % 1006,5 hPa 0,0 mm 3,5 km/h (1 Bft) W 275 ° 0 min 0,000 mm 0,0 UV-I 0 W/m² 10,2 °C 13,2 °C 6,4 km/h (2 Bft)
15.10.2019 19:12 13,2 °C 82 % 1006,5 hPa 0,0 mm 13,4 km/h (3 Bft) W 277 ° 0 min 0,000 mm 0,0 UV-I 0 W/m² 10,2 °C 13,2 °C 17,7 km/h (3 Bft)
15.10.2019 19:13 13,2 °C 82 % 1006,5 hPa 0,0 mm 12,5 km/h (3 Bft) W-SW 257 ° 0 min 0,000 mm 0,0 UV-I 0 W/m² 10,2 °C 13,2 °C 17,7 km/h (3 Bft)
15.10.2019 19:14 13,2 °C 82 % 1006,5 hPa 0,0 mm 11,3 km/h (2 Bft) W 275 ° 0 min 0,000 mm 0,0 UV-I 0 W/m² 10,2 °C 13,2 °C 17,7 km/h (3 Bft)
15.10.2019 19:15 13,2 °C 82 % 1006,5 hPa 0,0 mm 8,7 km/h (2 Bft) W 266 ° 0 min 0,000 mm 0,0 UV-I 0 W/m² 10,2 °C 13,2 °C 16,1 km/h (3 Bft)
15.10.2019 19:16 13,2 °C 82 % 1006,6 hPa 0,0 mm 8,1 km/h (2 Bft) W-NW 290 ° 0 min 0,000 mm 0,0 UV-I 0 W/m² 10,2 °C 13,2 °C 14,5 km/h (3 Bft)
15.10.2019 19:17 13,2 °C 82 % 1006,6 hPa 0,0 mm 9,9 km/h (2 Bft) W-NW 293 ° 0 min 0,000 mm 0,0 UV-I 0 W/m² 10,2 °C 13,2 °C 14,5 km/h (3 Bft)
15.10.2019 19:18 13,2 °C 82 % 1006,6 hPa 0,0 mm 11,2 km/h (2 Bft) W 273 ° 0 min 0,000 mm 0,0 UV-I 0 W/m² 10,2 °C 13,2 °C 22,5 km/h (4 Bft)
15.10.2019 19:19 13,2 °C 82 % 1006,6 hPa 0,0 mm 14,3 km/h (3 Bft) W-SW 248 ° 0 min 0,000 mm 0,0 UV-I 0 W/m² 10,2 °C 13,2 °C 20,9 km/h (4 Bft)
15.10.2019 19:20 13,2 °C 82 % 1006,6 hPa 0,0 mm 11,2 km/h (2 Bft) W 265 ° 0 min 0,000 mm 0,0 UV-I 0 W/m² 10,2 °C 13,2 °C 20,9 km/h (4 Bft)
15.10.2019 19:21 13,2 °C 82 % 1006,6 hPa 0,0 mm 8,0 km/h (2 Bft) W 277 ° 0 min 0,000 mm 0,0 UV-I 0 W/m² 10,2 °C 13,2 °C 16,1 km/h (3 Bft)
15.10.2019 19:22 13,1 °C 82 % 1006,7 hPa 0,0 mm 6,2 km/h (2 Bft) W-SW 257 ° 0 min 0,000 mm 0,0 UV-I 0 W/m² 10,1 °C 13,1 °C 14,5 km/h (3 Bft)
15.10.2019 19:23 13,1 °C 82 % 1006,7 hPa 0,0 mm 14,6 km/h (3 Bft) W-NW 284 ° 0 min 0,000 mm 0,0 UV-I 0 W/m² 10,1 °C 13,1 °C 20,9 km/h (4 Bft)
15.10.2019 19:24 13,1 °C 82 % 1006,8 hPa 0,0 mm 12,5 km/h (3 Bft) W 273 ° 0 min 0,000 mm 0,0 UV-I 0 W/m² 10,1 °C 13,1 °C 16,1 km/h (3 Bft)
15.10.2019 19:25 13,2 °C 82 % 1006,8 hPa 0,0 mm 7,7 km/h (2 Bft) W-SW 242 ° 0 min 0,000 mm 0,0 UV-I 0 W/m² 10,2 °C 13,2 °C 11,3 km/h (2 Bft)
15.10.2019 19:26 13,1 °C 82 % 1006,7 hPa 0,0 mm 9,7 km/h (2 Bft) W 263 ° 0 min 0,000 mm 0,0 UV-I 0 W/m² 10,1 °C 13,1 °C 12,9 km/h (3 Bft)
15.10.2019 19:27 13,2 °C 82 % 1006,8 hPa 0,0 mm 5,4 km/h (1 Bft) W-SW 238 ° 0 min 0,000 mm 0,0 UV-I 0 W/m² 10,2 °C 13,2 °C 11,3 km/h (2 Bft)
15.10.2019 19:28 13,1 °C 82 % 1006,8 hPa 0,0 mm 11,1 km/h (2 Bft) NW 315 ° 0 min 0,000 mm 0,0 UV-I 0 W/m² 10,1 °C 13,1 °C 17,7 km/h (3 Bft)
15.10.2019 19:29 13,2 °C 82 % 1006,7 hPa 0,0 mm 7,6 km/h (2 Bft) W 269 ° 0 min 0,000 mm 0,0 UV-I 0 W/m² 10,2 °C 13,2 °C 14,5 km/h (3 Bft)
15.10.2019 19:30 13,1 °C 82 % 1006,7 hPa 0,0 mm 5,7 km/h (1 Bft) W-NW 298 ° 0 min 0,000 mm 0,0 UV-I 0 W/m² 10,1 °C 13,1 °C 11,3 km/h (2 Bft)
15.10.2019 19:31 13,1 °C 82 % 1006,7 hPa 0,0 mm 4,0 km/h (1 Bft) W-SW 255 ° 0 min 0,000 mm 0,0 UV-I 0 W/m² 10,1 °C 13,1 °C 8,0 km/h (2 Bft)
15.10.2019 19:32 13,1 °C 83 % 1006,7 hPa 0,0 mm 6,7 km/h (2 Bft) W-NW 298 ° 0 min 0,000 mm 0,0 UV-I 0 W/m² 10,3 °C 13,1 °C 11,3 km/h (2 Bft)
15.10.2019 19:33 13,1 °C 83 % 1006,7 hPa 0,0 mm 6,4 km/h (2 Bft) W 277 ° 0 min 0,000 mm 0,0 UV-I 0 W/m² 10,3 °C 13,1 °C 9,7 km/h (2 Bft)
15.10.2019 19:34 13,1 °C 82 % 1006,7 hPa 0,0 mm 9,5 km/h (2 Bft) W 267 ° 0 min 0,000 mm 0,0 UV-I 0 W/m² 10,1 °C 13,1 °C 14,5 km/h (3 Bft)
15.10.2019 19:35 13,1 °C 82 % 1006,7 hPa 0,0 mm 9,5 km/h (2 Bft) W 274 ° 0 min 0,000 mm 0,0 UV-I 0 W/m² 10,1 °C 13,1 °C 14,5 km/h (3 Bft)
15.10.2019 19:36 13,1 °C 82 % 1006,7 hPa 0,0 mm 11,8 km/h (2 Bft) W-NW 287 ° 0 min 0,000 mm 0,0 UV-I 0 W/m² 10,1 °C 13,1 °C 17,7 km/h (3 Bft)
15.10.2019 19:37 13,1 °C 82 % 1006,7 hPa 0,0 mm 7,8 km/h (2 Bft) W 279 ° 0 min 0,000 mm 0,0 UV-I 0 W/m² 10,1 °C 13,1 °C 16,1 km/h (3 Bft)
15.10.2019 19:38 13,1 °C 82 % 1006,7 hPa 0,0 mm 10,1 km/h (2 Bft) W-SW 253 ° 0 min 0,000 mm 0,0 UV-I 0 W/m² 10,1 °C 13,1 °C 14,5 km/h (3 Bft)
15.10.2019 19:39 13,1 °C 82 % 1006,7 hPa 0,0 mm 6,5 km/h (2 Bft) W-NW 283 ° 0 min 0,000 mm 0,0 UV-I 0 W/m² 10,1 °C 13,1 °C 11,3 km/h (2 Bft)
15.10.2019 19:40 13,1 °C 82 % 1006,7 hPa 0,0 mm 6,3 km/h (2 Bft) W-SW 240 ° 0 min 0,000 mm 0,0 UV-I 0 W/m² 10,1 °C 13,1 °C 11,3 km/h (2 Bft)
15.10.2019 19:41 13,1 °C 83 % 1006,7 hPa 0,0 mm 3,9 km/h (1 Bft) W-SW 254 ° 0 min 0,000 mm 0,0 UV-I 0 W/m² 10,3 °C 13,1 °C 6,4 km/h (2 Bft)
15.10.2019 19:42 13,1 °C 83 % 1006,7 hPa 0,0 mm 3,8 km/h (1 Bft) W-NW 286 ° 0 min 0,000 mm 0,0 UV-I 0 W/m² 10,3 °C 13,1 °C 4,8 km/h (1 Bft)
15.10.2019 19:43 13,1 °C 83 % 1006,7 hPa 0,0 mm 2,7 km/h (1 Bft) W 263 ° 0 min 0,000 mm 0,0 UV-I 0 W/m² 10,3 °C 13,1 °C 6,4 km/h (2 Bft)
15.10.2019 19:44 13,1 °C 83 % 1006,7 hPa 0,0 mm 6,5 km/h (2 Bft) SW 232 ° 0 min 0,000 mm 0,0 UV-I 0 W/m² 10,3 °C 13,1 °C 12,9 km/h (3 Bft)
15.10.2019 19:45 13,0 °C 83 % 1006,8 hPa 0,0 mm 6,6 km/h (2 Bft) W 277 ° 0 min 0,000 mm 0,0 UV-I 0 W/m² 10,2 °C 13,0 °C 9,7 km/h (2 Bft)
15.10.2019 19:46 13,0 °C 83 % 1006,9 hPa 0,0 mm 9,1 km/h (2 Bft) W 270 ° 0 min 0,000 mm 0,0 UV-I 0 W/m² 10,2 °C 13,0 °C 11,3 km/h (2 Bft)
15.10.2019 19:47 13,0 °C 83 % 1007,0 hPa 0,0 mm 7,2 km/h (2 Bft) W 273 ° 0 min 0,000 mm 0,0 UV-I 0 W/m² 10,2 °C 13,0 °C 11,3 km/h (2 Bft)
15.10.2019 19:48 12,9 °C 83 % 1007,0 hPa 0,0 mm 6,6 km/h (2 Bft) W 267 ° 0 min 0,000 mm 0,0 UV-I 0 W/m² 10,1 °C 12,9 °C 16,1 km/h (3 Bft)
15.10.2019 19:49 12,9 °C 84 % 1007,1 hPa 0,0 mm 9,4 km/h (2 Bft) W 265 ° 0 min 0,000 mm 0,0 UV-I 0 W/m² 10,3 °C 12,9 °C 17,7 km/h (3 Bft)
15.10.2019 19:50 12,9 °C 84 % 1007,0 hPa 0,0 mm 10,4 km/h (2 Bft) W-SW 244 ° 0 min 0,000 mm 0,0 UV-I 0 W/m² 10,3 °C 12,9 °C 16,1 km/h (3 Bft)
15.10.2019 19:51 12,9 °C 84 % 1007,0 hPa 0,2 mm 9,6 km/h (2 Bft) W-NW 284 ° 0 min 0,000 mm 0,0 UV-I 0 W/m² 10,3 °C 12,9 °C 16,1 km/h (3 Bft)
15.10.2019 19:52 12,9 °C 84 % 1007,0 hPa 0,0 mm 4,6 km/h (1 Bft) W-NW 290 ° 0 min 0,000 mm 0,0 UV-I 0 W/m² 10,3 °C 12,9 °C 8,0 km/h (2 Bft)
15.10.2019 19:53 12,9 °C 84 % 1007,0 hPa 0,0 mm 8,1 km/h (2 Bft) W 264 ° 0 min 0,000 mm 0,0 UV-I 0 W/m² 10,3 °C 12,9 °C 12,9 km/h (3 Bft)
15.10.2019 19:54 12,9 °C 84 % 1007,0 hPa 0,0 mm 6,5 km/h (2 Bft) W-SW 250 ° 0 min 0,000 mm 0,0 UV-I 0 W/m² 10,3 °C 12,9 °C 12,9 km/h (3 Bft)
15.10.2019 19:55 12,9 °C 84 % 1007,0 hPa 0,0 mm 8,6 km/h (2 Bft) SW 223 ° 0 min 0,000 mm 0,0 UV-I 0 W/m² 10,3 °C 12,9 °C 12,9 km/h (3 Bft)
15.10.2019 19:56 12,9 °C 84 % 1007,0 hPa 0,0 mm 4,8 km/h (1 Bft) W-SW 252 ° 0 min 0,000 mm 0,0 UV-I 0 W/m² 10,3 °C 12,9 °C 6,4 km/h (2 Bft)
15.10.2019 19:57 12,9 °C 84 % 1007,0 hPa 0,0 mm 7,8 km/h (2 Bft) W 276 ° 0 min 0,000 mm 0,0 UV-I 0 W/m² 10,3 °C 12,9 °C 11,3 km/h (2 Bft)
15.10.2019 19:58 12,9 °C 84 % 1006,9 hPa 0,0 mm 5,5 km/h (1 Bft) W 279 ° 0 min 0,000 mm 0,0 UV-I 0 W/m² 10,3 °C 12,9 °C 8,0 km/h (2 Bft)
15.10.2019 19:59 12,9 °C 84 % 1006,9 hPa 0,0 mm 5,0 km/h (1 Bft) SW 222 ° 0 min 0,000 mm 0,0 UV-I 0 W/m² 10,3 °C 12,9 °C 11,3 km/h (2 Bft)
15.10.2019 20:00 12,9 °C 84 % 1007,0 hPa 0,0 mm 3,4 km/h (1 Bft) SW 226 ° 0 min 0,000 mm 0,0 UV-I 0 W/m² 10,3 °C 12,9 °C 4,8 km/h (1 Bft)
15.10.2019 20:01 12,8 °C 84 % 1007,0 hPa 0,0 mm 6,0 km/h (2 Bft) W-SW 258 ° 0 min 0,025 mm 0,0 UV-I 0 W/m² 10,2 °C 12,8 °C 12,9 km/h (3 Bft)
15.10.2019 20:02 12,8 °C 84 % 1007,0 hPa 0,0 mm 9,1 km/h (2 Bft) W 271 ° 0 min 0,000 mm 0,0 UV-I 0 W/m² 10,2 °C 12,8 °C 14,5 km/h (3 Bft)
15.10.2019 20:03 12,8 °C 84 % 1007,1 hPa 0,0 mm 3,7 km/h (1 Bft) W-SW 252 ° 0 min 0,000 mm 0,0 UV-I 0 W/m² 10,2 °C 12,8 °C 6,4 km/h (2 Bft)
15.10.2019 20:04 12,8 °C 84 % 1007,1 hPa 0,0 mm 4,6 km/h (1 Bft) W-SW 254 ° 0 min 0,000 mm 0,0 UV-I 0 W/m² 10,2 °C 12,8 °C 6,4 km/h (2 Bft)
15.10.2019 20:05 12,8 °C 84 % 1007,2 hPa 0,0 mm 7,0 km/h (2 Bft) W 278 ° 0 min 0,000 mm 0,0 UV-I 0 W/m² 10,2 °C 12,8 °C 14,5 km/h (3 Bft)
15.10.2019 20:06 12,8 °C 85 % 1007,2 hPa 0,0 mm 7,5 km/h (2 Bft) W-NW 294 ° 0 min 0,000 mm 0,0 UV-I 0 W/m² 10,3 °C 12,8 °C 11,3 km/h (2 Bft)
15.10.2019 20:07 12,8 °C 85 % 1007,1 hPa 0,0 mm 10,7 km/h (2 Bft) SW 216 ° 0 min 0,000 mm 0,0 UV-I 0 W/m² 10,3 °C 12,8 °C 16,1 km/h (3 Bft)
15.10.2019 20:08 12,8 °C 85 % 1007,1 hPa 0,0 mm 9,1 km/h (2 Bft) W 278 ° 0 min 0,000 mm 0,0 UV-I 0 W/m² 10,3 °C 12,8 °C 17,7 km/h (3 Bft)
15.10.2019 20:09 12,8 °C 85 % 1007,1 hPa 0,0 mm 12,0 km/h (2 Bft) SW 219 ° 0 min 0,000 mm 0,0 UV-I 0 W/m² 10,3 °C 12,8 °C 16,1 km/h (3 Bft)
15.10.2019 20:10 12,8 °C 85 % 1007,1 hPa 0,0 mm 7,7 km/h (2 Bft) W-NW 300 ° 0 min 0,000 mm 0,0 UV-I 0 W/m² 10,3 °C 12,8 °C 17,7 km/h (3 Bft)
15.10.2019 20:11 12,8 °C 85 % 1007,1 hPa 0,0 mm 8,2 km/h (2 Bft) W-SW 254 ° 0 min 0,000 mm 0,0 UV-I 0 W/m² 10,3 °C 12,8 °C 11,3 km/h (2 Bft)
15.10.2019 20:12 12,8 °C 85 % 1007,1 hPa 0,0 mm 8,0 km/h (2 Bft) W 271 ° 0 min 0,000 mm 0,0 UV-I 0 W/m² 10,3 °C 12,8 °C 11,3 km/h (2 Bft)
15.10.2019 20:13 12,8 °C 85 % 1007,0 hPa 0,0 mm 11,5 km/h (2 Bft) S-SW 199 ° 0 min 0,000 mm 0,0 UV-I 0 W/m² 10,3 °C 12,8 °C 19,3 km/h (3 Bft)
15.10.2019 20:14 12,8 °C 85 % 1007,0 hPa 0,0 mm 8,0 km/h (2 Bft) W-NW 285 ° 0 min 0,000 mm 0,0 UV-I 0 W/m² 10,3 °C 12,8 °C 11,3 km/h (2 Bft)
15.10.2019 20:15 12,8 °C 85 % 1007,0 hPa 0,0 mm 5,6 km/h (1 Bft) W 275 ° 0 min 0,000 mm 0,0 UV-I 0 W/m² 10,3 °C 12,8 °C 12,9 km/h (3 Bft)
15.10.2019 20:16 12,8 °C 85 % 1007,0 hPa 0,0 mm 10,8 km/h (2 Bft) W-SW 257 ° 0 min 0,000 mm 0,0 UV-I 0 W/m² 10,3 °C 12,8 °C 14,5 km/h (3 Bft)
15.10.2019 20:17 12,8 °C 85 % 1007,0 hPa 0,0 mm 9,1 km/h (2 Bft) W 273 ° 0 min 0,000 mm 0,0 UV-I 0 W/m² 10,3 °C 12,8 °C 14,5 km/h (3 Bft)
15.10.2019 20:18 12,8 °C 85 % 1007,1 hPa 0,0 mm 7,8 km/h (2 Bft) W-SW 239 ° 0 min 0,000 mm 0,0 UV-I 0 W/m² 10,3 °C 12,8 °C 16,1 km/h (3 Bft)
15.10.2019 20:19 12,8 °C 85 % 1007,1 hPa 0,0 mm 7,6 km/h (2 Bft) W 264 ° 0 min 0,000 mm 0,0 UV-I 0 W/m² 10,3 °C 12,8 °C 11,3 km/h (2 Bft)
15.10.2019 20:20 12,8 °C 85 % 1007,1 hPa 0,0 mm 5,9 km/h (2 Bft) W 265 ° 0 min 0,000 mm 0,0 UV-I 0 W/m² 10,3 °C 12,8 °C 11,3 km/h (2 Bft)
15.10.2019 20:21 12,8 °C 85 % 1007,1 hPa 0,0 mm 4,7 km/h (1 Bft) W-SW 257 ° 0 min 0,000 mm 0,0 UV-I 0 W/m² 10,3 °C 12,8 °C 8,0 km/h (2 Bft)
15.10.2019 20:22 12,8 °C 85 % 1007,1 hPa 0,0 mm 4,8 km/h (1 Bft) W-SW 246 ° 0 min 0,000 mm 0,0 UV-I 0 W/m² 10,3 °C 12,8 °C 9,7 km/h (2 Bft)
15.10.2019 20:23 12,8 °C 85 % 1007,1 hPa 0,0 mm 3,8 km/h (1 Bft) W 262 ° 0 min 0,000 mm 0,0 UV-I 0 W/m² 10,3 °C 12,8 °C 6,4 km/h (2 Bft)
15.10.2019 20:24 12,7 °C 85 % 1007,2 hPa 0,0 mm 7,4 km/h (2 Bft) SW 224 ° 0 min 0,000 mm 0,0 UV-I 0 W/m² 10,2 °C 12,7 °C 9,7 km/h (2 Bft)
15.10.2019 20:25 12,8 °C 86 % 1007,2 hPa 0,0 mm 4,8 km/h (1 Bft) W 275 ° 0 min 0,000 mm 0,0 UV-I 0 W/m² 10,5 °C 12,8 °C 9,7 km/h (2 Bft)
15.10.2019 20:26 12,8 °C 86 % 1007,2 hPa 0,0 mm 5,4 km/h (1 Bft) W-SW 254 ° 0 min 0,000 mm 0,0 UV-I 0 W/m² 10,5 °C 12,8 °C 9,7 km/h (2 Bft)
15.10.2019 20:27 12,7 °C 86 % 1007,2 hPa 0,0 mm 6,0 km/h (2 Bft) W-SW 245 ° 0 min 0,000 mm 0,0 UV-I 0 W/m² 10,4 °C 12,7 °C 9,7 km/h (2 Bft)
15.10.2019 20:28 12,7 °C 86 % 1007,2 hPa 0,0 mm 2,3 km/h (1 Bft) W-SW 245 ° 0 min 0,000 mm 0,0 UV-I 0 W/m² 10,4 °C 12,7 °C 4,8 km/h (1 Bft)
15.10.2019 20:29 12,7 °C 86 % 1007,2 hPa 0,0 mm 3,0 km/h (1 Bft) W 279 ° 0 min 0,000 mm 0,0 UV-I 0 W/m² 10,4 °C 12,7 °C 6,4 km/h (2 Bft)
15.10.2019 20:30 12,6 °C 86 % 1007,2 hPa 0,0 mm 7,4 km/h (2 Bft) W 267 ° 0 min 0,000 mm 0,0 UV-I 0 W/m² 10,3 °C 12,6 °C 9,7 km/h (2 Bft)
15.10.2019 20:31 12,6 °C 87 % 1007,3 hPa 0,0 mm 6,3 km/h (2 Bft) W 262 ° 0 min 0,000 mm 0,0 UV-I 0 W/m² 10,5 °C 12,6 °C 9,7 km/h (2 Bft)
15.10.2019 20:32 12,6 °C 87 % 1007,4 hPa 0,0 mm 8,7 km/h (2 Bft) W 264 ° 0 min 0,000 mm 0,0 UV-I 0 W/m² 10,5 °C 12,6 °C 17,7 km/h (3 Bft)
15.10.2019 20:33 12,6 °C 87 % 1007,4 hPa 0,0 mm 9,9 km/h (2 Bft) W-SW 255 ° 0 min 0,000 mm 0,0 UV-I 0 W/m² 10,5 °C 12,6 °C 14,5 km/h (3 Bft)
15.10.2019 20:34 12,6 °C 87 % 1007,3 hPa 0,0 mm 7,0 km/h (2 Bft) W 275 ° 0 min 0,000 mm 0,0 UV-I 0 W/m² 10,5 °C 12,6 °C 14,5 km/h (3 Bft)
15.10.2019 20:35 12,5 °C 87 % 1007,3 hPa 0,0 mm 8,0 km/h (2 Bft) W 260 ° 0 min 0,000 mm 0,0 UV-I 0 W/m² 10,4 °C 12,5 °C 12,9 km/h (3 Bft)
15.10.2019 20:36 12,5 °C 87 % 1007,4 hPa 0,0 mm 3,3 km/h (1 Bft) S-SW 194 ° 0 min 0,000 mm 0,0 UV-I 0 W/m² 10,4 °C 12,5 °C 6,4 km/h (2 Bft)
15.10.2019 20:37 12,4 °C 87 % 1007,4 hPa 0,0 mm 5,9 km/h (2 Bft) W-SW 254 ° 0 min 0,000 mm 0,0 UV-I 0 W/m² 10,3 °C 12,4 °C 14,5 km/h (3 Bft)
15.10.2019 20:38 12,4 °C 87 % 1007,5 hPa 0,0 mm 6,5 km/h (2 Bft) W-SW 244 ° 0 min 0,000 mm 0,0 UV-I 0 W/m² 10,3 °C 12,4 °C 14,5 km/h (3 Bft)
15.10.2019 20:39 12,4 °C 87 % 1007,5 hPa 0,0 mm 8,4 km/h (2 Bft) W-SW 252 ° 0 min 0,000 mm 0,0 UV-I 0 W/m² 10,3 °C 12,4 °C 16,1 km/h (3 Bft)
15.10.2019 20:40 12,4 °C 88 % 1007,5 hPa 0,0 mm 12,8 km/h (3 Bft) W 263 ° 0 min 0,000 mm 0,0 UV-I 0 W/m² 10,5 °C 12,4 °C 16,1 km/h (3 Bft)
15.10.2019 20:41 12,4 °C 88 % 1007,5 hPa 0,0 mm 6,1 km/h (2 Bft) W-NW 285 ° 0 min 0,000 mm 0,0 UV-I 0 W/m² 10,5 °C 12,4 °C 9,7 km/h (2 Bft)
15.10.2019 20:42 12,4 °C 88 % 1007,5 hPa 0,0 mm 6,6 km/h (2 Bft) W-SW 250 ° 0 min 0,000 mm 0,0 UV-I 0 W/m² 10,5 °C 12,4 °C 11,3 km/h (2 Bft)
15.10.2019 20:43 12,3 °C 88 % 1007,5 hPa 0,0 mm 7,8 km/h (2 Bft) W-SW 250 ° 0 min 0,000 mm 0,0 UV-I 0 W/m² 10,4 °C 12,3 °C 11,3 km/h (2 Bft)
15.10.2019 20:44 12,3 °C 88 % 1007,5 hPa 0,0 mm 5,7 km/h (1 Bft) W 278 ° 0 min 0,000 mm 0,0 UV-I 0 W/m² 10,4 °C 12,3 °C 11,3 km/h (2 Bft)
15.10.2019 20:45 12,3 °C 88 % 1007,5 hPa 0,0 mm 5,7 km/h (1 Bft) W 281 ° 0 min 0,000 mm 0,0 UV-I 0 W/m² 10,4 °C 12,3 °C 12,9 km/h (3 Bft)
15.10.2019 20:46 12,3 °C 88 % 1007,5 hPa 0,0 mm 7,8 km/h (2 Bft) W-SW 252 ° 0 min 0,000 mm 0,0 UV-I 0 W/m² 10,4 °C 12,3 °C 12,9 km/h (3 Bft)
15.10.2019 20:47 12,3 °C 88 % 1007,5 hPa 0,0 mm 8,9 km/h (2 Bft) W 261 ° 0 min 0,000 mm 0,0 UV-I 0 W/m² 10,4 °C 12,3 °C 12,9 km/h (3 Bft)
15.10.2019 20:48 12,3 °C 88 % 1007,6 hPa 0,0 mm 6,2 km/h (2 Bft) W-SW 247 ° 0 min 0,000 mm 0,0 UV-I 0 W/m² 10,4 °C 12,3 °C 9,7 km/h (2 Bft)
15.10.2019 20:49 12,3 °C 88 % 1007,7 hPa 0,0 mm 12,5 km/h (3 Bft) W 280 ° 0 min 0,000 mm 0,0 UV-I 0 W/m² 10,4 °C 12,3 °C 16,1 km/h (3 Bft)
15.10.2019 20:50 12,3 °C 88 % 1007,7 hPa 0,0 mm 6,7 km/h (2 Bft) W-SW 257 ° 0 min 0,000 mm 0,0 UV-I 0 W/m² 10,4 °C 12,3 °C 12,9 km/h (3 Bft)
15.10.2019 20:51 12,3 °C 88 % 1007,7 hPa 0,0 mm 10,5 km/h (2 Bft) W 262 ° 0 min 0,000 mm 0,0 UV-I 0 W/m² 10,4 °C 12,3 °C 19,3 km/h (3 Bft)
15.10.2019 20:52 12,2 °C 88 % 1007,8 hPa 0,0 mm 11,9 km/h (2 Bft) SW 220 ° 0 min 0,000 mm 0,0 UV-I 0 W/m² 10,3 °C 12,2 °C 17,7 km/h (3 Bft)
15.10.2019 20:53 12,2 °C 88 % 1007,8 hPa 0,0 mm 12,7 km/h (3 Bft) W-SW 250 ° 0 min 0,000 mm 0,0 UV-I 0 W/m² 10,3 °C 12,2 °C 16,1 km/h (3 Bft)
15.10.2019 20:54 12,3 °C 88 % 1007,9 hPa 0,0 mm 9,9 km/h (2 Bft) W 272 ° 0 min 0,000 mm 0,0 UV-I 0 W/m² 10,4 °C 12,3 °C 14,5 km/h (3 Bft)
15.10.2019 20:55 12,3 °C 88 % 1007,8 hPa 0,0 mm 8,3 km/h (2 Bft) W 273 ° 0 min 0,000 mm 0,0 UV-I 0 W/m² 10,4 °C 12,3 °C 11,3 km/h (2 Bft)
15.10.2019 20:56 12,2 °C 88 % 1007,9 hPa 0,0 mm 3,5 km/h (1 Bft) W 262 ° 0 min 0,000 mm 0,0 UV-I 0 W/m² 10,3 °C 12,2 °C 8,0 km/h (2 Bft)
15.10.2019 20:57 12,2 °C 88 % 1007,8 hPa 0,0 mm 5,7 km/h (1 Bft) W-NW 297 ° 0 min 0,000 mm 0,0 UV-I 0 W/m² 10,3 °C 12,2 °C 9,7 km/h (2 Bft)
15.10.2019 20:58 12,2 °C 88 % 1007,8 hPa 0,0 mm 10,1 km/h (2 Bft) W 271 ° 0 min 0,000 mm 0,0 UV-I 0 W/m² 10,3 °C 12,2 °C 17,7 km/h (3 Bft)
15.10.2019 20:59 12,2 °C 88 % 1007,8 hPa 0,0 mm 6,7 km/h (2 Bft) W-NW 292 ° 0 min 0,000 mm 0,0 UV-I 0 W/m² 10,3 °C 12,2 °C 14,5 km/h (3 Bft)
15.10.2019 21:00 12,2 °C 88 % 1007,8 hPa 0,0 mm 7,5 km/h (2 Bft) W 265 ° 0 min 0,026 mm 0,0 UV-I 0 W/m² 10,3 °C 12,2 °C 12,9 km/h (3 Bft)
15.10.2019 21:01 12,2 °C 88 % 1007,8 hPa 0,0 mm 11,0 km/h (2 Bft) W-NW 296 ° 0 min 0,000 mm 0,0 UV-I 0 W/m² 10,3 °C 12,2 °C 16,1 km/h (3 Bft)
15.10.2019 21:02 12,2 °C 88 % 1007,8 hPa 0,0 mm 12,0 km/h (2 Bft) W-SW 254 ° 0 min 0,000 mm 0,0 UV-I 0 W/m² 10,3 °C 12,2 °C 17,7 km/h (3 Bft)
15.10.2019 21:03 12,1 °C 88 % 1007,7 hPa 0,0 mm 7,3 km/h (2 Bft) W-NW 296 ° 0 min 0,000 mm 0,0 UV-I 0 W/m² 10,2 °C 12,1 °C 11,3 km/h (2 Bft)
15.10.2019 21:04 12,1 °C 88 % 1007,7 hPa 0,0 mm 7,8 km/h (2 Bft) W-NW 293 ° 0 min 0,000 mm 0,0 UV-I 0 W/m² 10,2 °C 12,1 °C 16,1 km/h (3 Bft)
15.10.2019 21:05 12,1 °C 88 % 1007,7 hPa 0,0 mm 7,2 km/h (2 Bft) W-NW 286 ° 0 min 0,000 mm 0,0 UV-I 0 W/m² 10,2 °C 12,1 °C 14,5 km/h (3 Bft)
15.10.2019 21:06 12,1 °C 88 % 1007,7 hPa 0,0 mm 8,2 km/h (2 Bft) W 260 ° 0 min 0,000 mm 0,0 UV-I 0 W/m² 10,2 °C 12,1 °C 14,5 km/h (3 Bft)
15.10.2019 21:07 12,1 °C 88 % 1007,7 hPa 0,0 mm 8,3 km/h (2 Bft) W 278 ° 0 min 0,000 mm 0,0 UV-I 0 W/m² 10,2 °C 12,1 °C 12,9 km/h (3 Bft)
15.10.2019 21:08 12,0 °C 88 % 1007,8 hPa 0,0 mm 13,9 km/h (3 Bft) W 271 ° 0 min 0,000 mm 0,0 UV-I 0 W/m² 10,1 °C 12,0 °C 17,7 km/h (3 Bft)
15.10.2019 21:09 11,9 °C 88 % 1007,9 hPa 0,0 mm 10,6 km/h (2 Bft) W 281 ° 0 min 0,000 mm 0,0 UV-I 0 W/m² 10,0 °C 11,9 °C 16,1 km/h (3 Bft)
15.10.2019 21:10 11,9 °C 89 % 1008,0 hPa 0,0 mm 10,5 km/h (2 Bft) W 263 ° 0 min 0,000 mm 0,0 UV-I 0 W/m² 10,1 °C 11,9 °C 14,5 km/h (3 Bft)
15.10.2019 21:11 11,9 °C 89 % 1008,0 hPa 0,0 mm 6,6 km/h (2 Bft) NW 307 ° 0 min 0,000 mm 0,0 UV-I 0 W/m² 10,1 °C 11,9 °C 9,7 km/h (2 Bft)
15.10.2019 21:12 11,9 °C 89 % 1008,0 hPa 0,0 mm 8,7 km/h (2 Bft) S 188 ° 0 min 0,000 mm 0,0 UV-I 0 W/m² 10,1 °C 11,9 °C 12,9 km/h (3 Bft)
15.10.2019 21:13 11,8 °C 89 % 1007,9 hPa 0,0 mm 12,3 km/h (3 Bft) W-NW 283 ° 0 min 0,000 mm 0,0 UV-I 0 W/m² 10,0 °C 11,8 °C 24,1 km/h (4 Bft)
15.10.2019 21:14 11,8 °C 89 % 1007,9 hPa 0,0 mm 16,7 km/h (3 Bft) W-NW 296 ° 0 min 0,000 mm 0,0 UV-I 0 W/m² 10,0 °C 11,8 °C 24,1 km/h (4 Bft)
15.10.2019 21:15 11,8 °C 89 % 1008,0 hPa 0,0 mm 14,6 km/h (3 Bft) W 271 ° 0 min 0,000 mm 0,0 UV-I 0 W/m² 10,0 °C 11,8 °C 22,5 km/h (4 Bft)
15.10.2019 21:16 11,8 °C 89 % 1008,0 hPa 0,0 mm 14,2 km/h (3 Bft) W-SW 257 ° 0 min 0,000 mm 0,0 UV-I 0 W/m² 10,0 °C 11,8 °C 19,3 km/h (3 Bft)
15.10.2019 21:17 11,7 °C 89 % 1008,1 hPa 0,0 mm 11,1 km/h (2 Bft) W-SW 254 ° 0 min 0,000 mm 0,0 UV-I 0 W/m² 9,9 °C 11,7 °C 14,5 km/h (3 Bft)
15.10.2019 21:18 11,7 °C 89 % 1008,2 hPa 0,0 mm 15,8 km/h (3 Bft) N-NW 337 ° 0 min 0,000 mm 0,0 UV-I 0 W/m² 9,9 °C 11,7 °C 25,7 km/h (4 Bft)
15.10.2019 21:19 11,7 °C 89 % 1008,1 hPa 0,0 mm 14,5 km/h (3 Bft) W-NW 301 ° 0 min 0,000 mm 0,0 UV-I 0 W/m² 9,9 °C 11,7 °C 20,9 km/h (4 Bft)
15.10.2019 21:20 11,7 °C 89 % 1008,2 hPa 0,0 mm 14,0 km/h (3 Bft) W-NW 289 ° 0 min 0,000 mm 0,0 UV-I 0 W/m² 9,9 °C 11,7 °C 20,9 km/h (4 Bft)
15.10.2019 21:21 11,7 °C 89 % 1008,3 hPa 0,0 mm 6,4 km/h (2 Bft) NW 313 ° 0 min 0,000 mm 0,0 UV-I 0 W/m² 9,9 °C 11,7 °C 11,3 km/h (2 Bft)
15.10.2019 21:22 11,6 °C 89 % 1008,2 hPa 0,0 mm 6,4 km/h (2 Bft) W-NW 289 ° 0 min 0,000 mm 0,0 UV-I 0 W/m² 9,8 °C 11,6 °C 11,3 km/h (2 Bft)
15.10.2019 21:23 11,6 °C 89 % 1008,2 hPa 0,0 mm 8,4 km/h (2 Bft) W 273 ° 0 min 0,000 mm 0,0 UV-I 0 W/m² 9,8 °C 11,6 °C 14,5 km/h (3 Bft)
15.10.2019 21:24 11,6 °C 90 % 1008,3 hPa 0,0 mm 11,7 km/h (2 Bft) W-NW 288 ° 0 min 0,000 mm 0,0 UV-I 0 W/m² 10,0 °C 11,6 °C 20,9 km/h (4 Bft)
15.10.2019 21:25 11,6 °C 90 % 1008,2 hPa 0,0 mm 13,4 km/h (3 Bft) W 268 ° 0 min 0,000 mm 0,0 UV-I 0 W/m² 10,0 °C 11,6 °C 25,7 km/h (4 Bft)
15.10.2019 21:26 11,6 °C 90 % 1008,2 hPa 0,0 mm 12,7 km/h (3 Bft) W 267 ° 0 min 0,000 mm 0,0 UV-I 0 W/m² 10,0 °C 11,6 °C 20,9 km/h (4 Bft)
15.10.2019 21:27 11,5 °C 90 % 1008,1 hPa 0,0 mm 12,5 km/h (3 Bft) W 280 ° 0 min 0,000 mm 0,0 UV-I 0 W/m² 9,9 °C 11,5 °C 19,3 km/h (3 Bft)
15.10.2019 21:28 11,5 °C 90 % 1008,1 hPa 0,0 mm 17,0 km/h (3 Bft) W 265 ° 0 min 0,000 mm 0,0 UV-I 0 W/m² 9,9 °C 11,5 °C 20,9 km/h (4 Bft)
15.10.2019 21:29 11,5 °C 90 % 1008,1 hPa 0,0 mm 15,3 km/h (3 Bft) W-NW 301 ° 0 min 0,000 mm 0,0 UV-I 0 W/m² 9,9 °C 11,5 °C 25,7 km/h (4 Bft)
15.10.2019 21:30 11,5 °C 90 % 1008,2 hPa 0,0 mm 16,5 km/h (3 Bft) W 263 ° 0 min 0,000 mm 0,0 UV-I 0 W/m² 9,9 °C 11,5 °C 22,5 km/h (4 Bft)
15.10.2019 21:31 11,5 °C 90 % 1008,2 hPa 0,0 mm 11,7 km/h (2 Bft) NW 305 ° 0 min 0,000 mm 0,0 UV-I 0 W/m² 9,9 °C 11,5 °C 17,7 km/h (3 Bft)
15.10.2019 21:32 11,5 °C 90 % 1008,4 hPa 0,0 mm 12,5 km/h (3 Bft) W 273 ° 0 min 0,000 mm 0,0 UV-I 0 W/m² 9,9 °C 11,5 °C 22,5 km/h (4 Bft)
15.10.2019 21:33 11,5 °C 90 % 1008,4 hPa 0,0 mm 13,3 km/h (3 Bft) W 278 ° 0 min 0,000 mm 0,0 UV-I 0 W/m² 9,9 °C 11,5 °C 19,3 km/h (3 Bft)
15.10.2019 21:34 11,4 °C 90 % 1008,5 hPa 0,0 mm 11,7 km/h (2 Bft) W 260 ° 0 min 0,000 mm 0,0 UV-I 0 W/m² 9,8 °C 11,4 °C 16,1 km/h (3 Bft)
15.10.2019 21:35 11,4 °C 90 % 1008,5 hPa 0,0 mm 12,9 km/h (3 Bft) W 259 ° 0 min 0,000 mm 0,0 UV-I 0 W/m² 9,8 °C 11,4 °C 24,1 km/h (4 Bft)
15.10.2019 21:36 11,4 °C 90 % 1008,6 hPa 0,0 mm 13,4 km/h (3 Bft) W-SW 254 ° 0 min 0,000 mm 0,0 UV-I 0 W/m² 9,8 °C 11,4 °C 22,5 km/h (4 Bft)
15.10.2019 21:37 11,4 °C 90 % 1008,6 hPa 0,0 mm 17,3 km/h (3 Bft) W-SW 258 ° 0 min 0,000 mm 0,0 UV-I 0 W/m² 9,8 °C 11,4 °C 30,6 km/h (5 Bft)
15.10.2019 21:38 11,4 °C 90 % 1008,6 hPa 0,0 mm 18,8 km/h (3 Bft) W 262 ° 0 min 0,000 mm 0,0 UV-I 0 W/m² 9,8 °C 11,4 °C 30,6 km/h (5 Bft)
15.10.2019 21:39 11,4 °C 90 % 1008,7 hPa 0,0 mm 19,5 km/h (3 Bft) W-NW 292 ° 0 min 0,000 mm 0,0 UV-I 0 W/m² 9,8 °C 11,4 °C 27,4 km/h (4 Bft)
15.10.2019 21:40 11,4 °C 90 % 1008,7 hPa 0,0 mm 22,1 km/h (4 Bft) W 267 ° 0 min 0,000 mm 0,0 UV-I 0 W/m² 9,8 °C 11,4 °C 30,6 km/h (5 Bft)
15.10.2019 21:41 11,4 °C 90 % 1008,8 hPa 0,0 mm 14,7 km/h (3 Bft) W 277 ° 0 min 0,000 mm 0,0 UV-I 0 W/m² 9,8 °C 11,4 °C 20,9 km/h (4 Bft)
15.10.2019 21:42 11,4 °C 90 % 1008,8 hPa 0,0 mm 15,4 km/h (3 Bft) W-NW 290 ° 0 min 0,000 mm 0,0 UV-I 0 W/m² 9,8 °C 11,4 °C 22,5 km/h (4 Bft)
15.10.2019 21:43 11,4 °C 90 % 1008,9 hPa 0,0 mm 11,8 km/h (2 Bft) W-SW 238 ° 0 min 0,000 mm 0,0 UV-I 0 W/m² 9,8 °C 11,4 °C 24,1 km/h (4 Bft)
15.10.2019 21:44 11,4 °C 90 % 1008,8 hPa 0,0 mm 19,0 km/h (3 Bft) W 271 ° 0 min 0,000 mm 0,0 UV-I 0 W/m² 9,8 °C 11,4 °C 25,7 km/h (4 Bft)
15.10.2019 21:45 11,3 °C 90 % 1008,9 hPa 0,0 mm 16,6 km/h (3 Bft) W 266 ° 0 min 0,000 mm 0,0 UV-I 0 W/m² 9,7 °C 11,3 °C 20,9 km/h (4 Bft)
15.10.2019 21:46 11,3 °C 90 % 1008,9 hPa 0,0 mm 13,4 km/h (3 Bft) W 269 ° 0 min 0,000 mm 0,0 UV-I 0 W/m² 9,7 °C 11,3 °C 19,3 km/h (3 Bft)
15.10.2019 21:47 11,3 °C 90 % 1008,9 hPa 0,0 mm 14,6 km/h (3 Bft) W-NW 286 ° 0 min 0,000 mm 0,0 UV-I 0 W/m² 9,7 °C 11,3 °C 22,5 km/h (4 Bft)
15.10.2019 21:48 11,3 °C 90 % 1008,9 hPa 0,0 mm 16,0 km/h (3 Bft) W-SW 256 ° 0 min 0,000 mm 0,0 UV-I 0 W/m² 9,7 °C 11,3 °C 22,5 km/h (4 Bft)
15.10.2019 21:49 11,3 °C 90 % 1008,9 hPa 0,0 mm 11,5 km/h (2 Bft) W-NW 295 ° 0 min 0,000 mm 0,0 UV-I 0 W/m² 9,7 °C 11,3 °C 20,9 km/h (4 Bft)
15.10.2019 21:50 11,3 °C 90 % 1009,0 hPa 0,0 mm 16,2 km/h (3 Bft) W 271 ° 0 min 0,000 mm 0,0 UV-I 0 W/m² 9,7 °C 11,3 °C 22,5 km/h (4 Bft)
15.10.2019 21:51 11,3 °C 90 % 1009,0 hPa 0,0 mm 10,2 km/h (2 Bft) W 269 ° 0 min 0,000 mm 0,0 UV-I 0 W/m² 9,7 °C 11,3 °C 17,7 km/h (3 Bft)
15.10.2019 21:52 11,3 °C 90 % 1009,1 hPa 0,0 mm 15,8 km/h (3 Bft) W-SW 258 ° 0 min 0,000 mm 0,0 UV-I 0 W/m² 9,7 °C 11,3 °C 20,9 km/h (4 Bft)
15.10.2019 21:53 11,3 °C 90 % 1009,0 hPa 0,0 mm 16,8 km/h (3 Bft) W-NW 294 ° 0 min 0,000 mm 0,0 UV-I 0 W/m² 9,7 °C 11,3 °C 22,5 km/h (4 Bft)
15.10.2019 21:54 11,3 °C 90 % 1009,0 hPa 0,0 mm 15,8 km/h (3 Bft) W 261 ° 0 min 0,000 mm 0,0 UV-I 0 W/m² 9,7 °C 11,3 °C 22,5 km/h (4 Bft)
15.10.2019 21:55 11,3 °C 90 % 1009,0 hPa 0,0 mm 15,6 km/h (3 Bft) W-SW 255 ° 0 min 0,000 mm 0,0 UV-I 0 W/m² 9,7 °C 11,3 °C 24,1 km/h (4 Bft)
15.10.2019 21:56 11,3 °C 90 % 1009,0 hPa 0,0 mm 20,6 km/h (4 Bft) W-NW 283 ° 0 min 0,000 mm 0,0 UV-I 0 W/m² 9,7 °C 11,3 °C 38,6 km/h (5 Bft)
15.10.2019 21:57 11,3 °C 90 % 1009,0 hPa 0,0 mm 15,0 km/h (3 Bft) W-NW 301 ° 0 min 0,000 mm 0,0 UV-I 0 W/m² 9,7 °C 11,3 °C 20,9 km/h (4 Bft)
15.10.2019 21:58 11,3 °C 90 % 1009,0 hPa 0,0 mm 14,7 km/h (3 Bft) W-SW 257 ° 0 min 0,000 mm 0,0 UV-I 0 W/m² 9,7 °C 11,3 °C 25,7 km/h (4 Bft)
15.10.2019 21:59 11,2 °C 90 % 1009,0 hPa 0,0 mm 14,6 km/h (3 Bft) W 279 ° 0 min 0,000 mm 0,0 UV-I 0 W/m² 9,6 °C 11,2 °C 25,7 km/h (4 Bft)
15.10.2019 22:00 11,2 °C 90 % 1009,1 hPa 0,0 mm 19,0 km/h (3 Bft) W 277 ° 0 min 0,000 mm 0,0 UV-I 0 W/m² 9,6 °C 11,2 °C 25,7 km/h (4 Bft)
15.10.2019 22:01 11,2 °C 90 % 1009,1 hPa 0,0 mm 17,8 km/h (3 Bft) W 264 ° 0 min 0,025 mm 0,0 UV-I 0 W/m² 9,6 °C 11,2 °C 27,4 km/h (4 Bft)
15.10.2019 22:02 11,2 °C 90 % 1009,1 hPa 0,0 mm 20,7 km/h (4 Bft) W-NW 293 ° 0 min 0,000 mm 0,0 UV-I 0 W/m² 9,6 °C 11,2 °C 30,6 km/h (5 Bft)
15.10.2019 22:03 11,2 °C 90 % 1009,1 hPa 0,0 mm 18,3 km/h (3 Bft) W 261 ° 0 min 0,000 mm 0,0 UV-I 0 W/m² 9,6 °C 11,2 °C 25,7 km/h (4 Bft)
15.10.2019 22:04 11,2 °C 90 % 1009,2 hPa 0,0 mm 15,3 km/h (3 Bft) W-SW 252 ° 0 min 0,000 mm 0,0 UV-I 0 W/m² 9,6 °C 11,2 °C 22,5 km/h (4 Bft)
15.10.2019 22:05 11,2 °C 90 % 1009,1 hPa 0,0 mm 14,7 km/h (3 Bft) W-SW 257 ° 0 min 0,000 mm 0,0 UV-I 0 W/m² 9,6 °C 11,2 °C 19,3 km/h (3 Bft)
15.10.2019 22:06 11,2 °C 90 % 1009,2 hPa 0,0 mm 17,6 km/h (3 Bft) NW 318 ° 0 min 0,000 mm 0,0 UV-I 0 W/m² 9,6 °C 11,2 °C 25,7 km/h (4 Bft)
15.10.2019 22:07 11,2 °C 90 % 1009,2 hPa 0,0 mm 17,2 km/h (3 Bft) W-NW 284 ° 0 min 0,000 mm 0,0 UV-I 0 W/m² 9,6 °C 11,2 °C 27,4 km/h (4 Bft)
15.10.2019 22:08 11,2 °C 90 % 1009,2 hPa 0,0 mm 22,5 km/h (4 Bft) W 275 ° 0 min 0,000 mm 0,0 UV-I 0 W/m² 9,6 °C 11,2 °C 32,2 km/h (5 Bft)
15.10.2019 22:09 11,2 °C 89 % 1009,2 hPa 0,0 mm 13,7 km/h (3 Bft) W 267 ° 0 min 0,000 mm 0,0 UV-I 0 W/m² 9,5 °C 11,2 °C 19,3 km/h (3 Bft)
15.10.2019 22:10 11,2 °C 89 % 1009,2 hPa 0,0 mm 17,0 km/h (3 Bft) W-SW 256 ° 0 min 0,000 mm 0,0 UV-I 0 W/m² 9,5 °C 11,2 °C 19,3 km/h (3 Bft)
15.10.2019 22:11 11,2 °C 89 % 1009,2 hPa 0,0 mm 14,6 km/h (3 Bft) W 279 ° 0 min 0,000 mm 0,0 UV-I 0 W/m² 9,5 °C 11,2 °C 22,5 km/h (4 Bft)
15.10.2019 22:12 11,2 °C 89 % 1009,2 hPa 0,0 mm 14,9 km/h (3 Bft) W-NW 287 ° 0 min 0,000 mm 0,0 UV-I 0 W/m² 9,5 °C 11,2 °C 17,7 km/h (3 Bft)
15.10.2019 22:13 11,2 °C 89 % 1009,3 hPa 0,0 mm 15,2 km/h (3 Bft) W-SW 254 ° 0 min 0,000 mm 0,0 UV-I 0 W/m² 9,5 °C 11,2 °C 22,5 km/h (4 Bft)
15.10.2019 22:14 11,2 °C 89 % 1009,3 hPa 0,0 mm 17,5 km/h (3 Bft) W 278 ° 0 min 0,000 mm 0,0 UV-I 0 W/m² 9,5 °C 11,2 °C 24,1 km/h (4 Bft)
15.10.2019 22:15 11,2 °C 89 % 1009,3 hPa 0,0 mm 19,8 km/h (3 Bft) W-NW 283 ° 0 min 0,000 mm 0,0 UV-I 0 W/m² 9,5 °C 11,2 °C 27,4 km/h (4 Bft)
15.10.2019 22:16 11,2 °C 89 % 1009,4 hPa 0,0 mm 15,2 km/h (3 Bft) W-NW 292 ° 0 min 0,000 mm 0,0 UV-I 0 W/m² 9,5 °C 11,2 °C 24,1 km/h (4 Bft)
15.10.2019 22:17 11,2 °C 89 % 1009,5 hPa 0,0 mm 14,8 km/h (3 Bft) W-NW 292 ° 0 min 0,000 mm 0,0 UV-I 0 W/m² 9,5 °C 11,2 °C 20,9 km/h (4 Bft)
15.10.2019 22:18 11,1 °C 89 % 1009,5 hPa 0,0 mm 18,2 km/h (3 Bft) NW 307 ° 0 min 0,000 mm 0,0 UV-I 0 W/m² 9,4 °C 11,1 °C 25,7 km/h (4 Bft)
15.10.2019 22:19 11,1 °C 89 % 1009,6 hPa 0,0 mm 22,5 km/h (4 Bft) W-NW 282 ° 0 min 0,000 mm 0,0 UV-I 0 W/m² 9,4 °C 11,1 °C 30,6 km/h (5 Bft)
15.10.2019 22:20 11,1 °C 88 % 1009,6 hPa 0,0 mm 21,3 km/h (4 Bft) W 266 ° 0 min 0,000 mm 0,0 UV-I 0 W/m² 9,2 °C 11,1 °C 51,5 km/h (7 Bft)
15.10.2019 22:21 11,1 °C 88 % 1009,8 hPa 0,0 mm 22,7 km/h (4 Bft) W-NW 284 ° 0 min 0,000 mm 0,0 UV-I 0 W/m² 9,2 °C 11,1 °C 37,0 km/h (5 Bft)
15.10.2019 22:22 11,0 °C 87 % 1009,7 hPa 0,0 mm 16,3 km/h (3 Bft) W-SW 256 ° 0 min 0,000 mm 0,0 UV-I 0 W/m² 8,9 °C 11,0 °C 22,5 km/h (4 Bft)
15.10.2019 22:23 10,9 °C 87 % 1009,8 hPa 0,0 mm 20,7 km/h (4 Bft) W 263 ° 0 min 0,000 mm 0,0 UV-I 0 W/m² 8,8 °C 10,9 °C 30,6 km/h (5 Bft)
15.10.2019 22:24 10,9 °C 87 % 1009,9 hPa 0,0 mm 20,9 km/h (4 Bft) W-SW 251 ° 0 min 0,000 mm 0,0 UV-I 0 W/m² 8,8 °C 10,9 °C 29,0 km/h (5 Bft)
15.10.2019 22:25 10,8 °C 87 % 1010,0 hPa 0,0 mm 21,7 km/h (4 Bft) W-SW 248 ° 0 min 0,000 mm 0,0 UV-I 0 W/m² 8,7 °C 10,8 °C 29,0 km/h (5 Bft)
15.10.2019 22:26 10,7 °C 86 % 1009,9 hPa 0,0 mm 25,1 km/h (4 Bft) SW 234 ° 0 min 0,000 mm 0,0 UV-I 0 W/m² 8,5 °C 10,7 °C 40,2 km/h (6 Bft)
15.10.2019 22:27 10,7 °C 86 % 1009,8 hPa 0,0 mm 30,6 km/h (5 Bft) W 273 ° 0 min 0,000 mm 0,0 UV-I 0 W/m² 8,5 °C 10,7 °C 49,9 km/h (6 Bft)
15.10.2019 22:28 10,6 °C 86 % 1009,9 hPa 0,0 mm 24,7 km/h (4 Bft) W-SW 258 ° 0 min 0,000 mm 0,0 UV-I 0 W/m² 8,4 °C 10,6 °C 43,5 km/h (6 Bft)
15.10.2019 22:29 10,5 °C 86 % 1009,9 hPa 0,0 mm 19,5 km/h (3 Bft) W 262 ° 0 min 0,000 mm 0,0 UV-I 0 W/m² 8,3 °C 10,5 °C 27,4 km/h (4 Bft)
15.10.2019 22:30 10,4 °C 86 % 1009,8 hPa 0,0 mm 25,2 km/h (4 Bft) W-NW 300 ° 0 min 0,000 mm 0,0 UV-I 0 W/m² 8,2 °C 10,4 °C 29,0 km/h (5 Bft)
15.10.2019 22:31 10,3 °C 86 % 1009,9 hPa 0,0 mm 22,3 km/h (4 Bft) W 261 ° 0 min 0,000 mm 0,0 UV-I 0 W/m² 8,1 °C 10,3 °C 33,8 km/h (5 Bft)
15.10.2019 22:32 10,2 °C 86 % 1010,0 hPa 0,0 mm 19,6 km/h (3 Bft) W-NW 299 ° 0 min 0,000 mm 0,0 UV-I 0 W/m² 8,0 °C 10,2 °C 29,0 km/h (5 Bft)
15.10.2019 22:33 10,1 °C 86 % 1009,9 hPa 0,0 mm 22,3 km/h (4 Bft) W 261 ° 0 min 0,000 mm 0,0 UV-I 0 W/m² 7,9 °C 10,1 °C 29,0 km/h (5 Bft)
15.10.2019 22:34 9,9 °C 86 % 1010,0 hPa 0,0 mm 17,6 km/h (3 Bft) NW 309 ° 0 min 0,000 mm 0,0 UV-I 0 W/m² 7,7 °C 7,5 °C 24,1 km/h (4 Bft)
15.10.2019 22:35 9,9 °C 86 % 1010,0 hPa 0,0 mm 15,6 km/h (3 Bft) W 263 ° 0 min 0,000 mm 0,0 UV-I 0 W/m² 7,7 °C 7,7 °C 20,9 km/h (4 Bft)
15.10.2019 22:36 9,8 °C 86 % 1010,0 hPa 0,0 mm 20,9 km/h (4 Bft) W-NW 293 ° 0 min 0,000 mm 0,0 UV-I 0 W/m² 7,6 °C 7,0 °C 33,8 km/h (5 Bft)
15.10.2019 22:37 9,7 °C 87 % 1010,1 hPa 0,0 mm 13,1 km/h (3 Bft) W 264 ° 0 min 0,000 mm 0,0 UV-I 0 W/m² 7,6 °C 7,8 °C 22,5 km/h (4 Bft)
15.10.2019 22:38 9,7 °C 87 % 1010,1 hPa 0,0 mm 12,6 km/h (3 Bft) W-NW 290 ° 0 min 0,000 mm 0,0 UV-I 0 W/m² 7,6 °C 7,9 °C 19,3 km/h (3 Bft)
15.10.2019 22:39 9,6 °C 88 % 1010,1 hPa 0,0 mm 13,6 km/h (3 Bft) W-SW 252 ° 0 min 0,000 mm 0,0 UV-I 0 W/m² 7,7 °C 7,6 °C 20,9 km/h (4 Bft)
15.10.2019 22:40 9,5 °C 88 % 1010,0 hPa 0,0 mm 14,8 km/h (3 Bft) SW 232 ° 0 min 0,000 mm 0,0 UV-I 0 W/m² 7,6 °C 7,3 °C 30,6 km/h (5 Bft)
15.10.2019 22:41 9,4 °C 88 % 1009,9 hPa 0,0 mm 17,6 km/h (3 Bft) SW 233 ° 0 min 0,000 mm 0,0 UV-I 0 W/m² 7,5 °C 6,9 °C 27,4 km/h (4 Bft)
15.10.2019 22:42 9,4 °C 88 % 1010,0 hPa 0,0 mm 20,5 km/h (4 Bft) W 272 ° 0 min 0,000 mm 0,0 UV-I 0 W/m² 7,5 °C 6,6 °C 40,2 km/h (6 Bft)
15.10.2019 22:43 9,3 °C 88 % 1009,9 hPa 0,0 mm 17,2 km/h (3 Bft) SW 236 ° 0 min 0,000 mm 0,0 UV-I 0 W/m² 7,4 °C 6,8 °C 25,7 km/h (4 Bft)
15.10.2019 22:44 9,3 °C 88 % 1010,0 hPa 0,0 mm 16,9 km/h (3 Bft) W-SW 241 ° 0 min 0,000 mm 0,0 UV-I 0 W/m² 7,4 °C 6,8 °C 33,8 km/h (5 Bft)
15.10.2019 22:45 9,2 °C 88 % 1009,9 hPa 0,0 mm 14,6 km/h (3 Bft) W 268 ° 0 min 0,000 mm 0,0 UV-I 0 W/m² 7,3 °C 7,0 °C 24,1 km/h (4 Bft)
15.10.2019 22:46 9,2 °C 88 % 1010,0 hPa 0,0 mm 18,1 km/h (3 Bft) W 262 ° 0 min 0,000 mm 0,0 UV-I 0 W/m² 7,3 °C 6,6 °C 29,0 km/h (5 Bft)
15.10.2019 22:47 9,1 °C 88 % 1010,1 hPa 0,0 mm 15,1 km/h (3 Bft) W 267 ° 0 min 0,000 mm 0,0 UV-I 0 W/m² 7,2 °C 6,8 °C 29,0 km/h (5 Bft)
15.10.2019 22:48 9,1 °C 88 % 1010,0 hPa 0,0 mm 17,6 km/h (3 Bft) W-NW 288 ° 0 min 0,000 mm 0,0 UV-I 0 W/m² 7,2 °C 6,5 °C 30,6 km/h (5 Bft)
15.10.2019 22:49 9,1 °C 88 % 1010,0 hPa 0,0 mm 18,2 km/h (3 Bft) W-SW 249 ° 0 min 0,000 mm 0,0 UV-I 0 W/m² 7,2 °C 6,4 °C 30,6 km/h (5 Bft)
15.10.2019 22:50 9,0 °C 89 % 1009,9 hPa 0,0 mm 20,3 km/h (4 Bft) W-SW 258 ° 0 min 0,000 mm 0,0 UV-I 0 W/m² 7,3 °C 6,1 °C 40,2 km/h (6 Bft)
15.10.2019 22:51 9,0 °C 89 % 1009,9 hPa 0,0 mm 12,9 km/h (3 Bft) W 276 ° 0 min 0,000 mm 0,0 UV-I 0 W/m² 7,3 °C 7,0 °C 20,9 km/h (4 Bft)
15.10.2019 22:52 8,9 °C 89 % 1009,9 hPa 0,0 mm 12,0 km/h (2 Bft) W 275 ° 0 min 0,000 mm 0,0 UV-I 0 W/m² 7,2 °C 7,0 °C 19,3 km/h (3 Bft)
15.10.2019 22:53 8,9 °C 89 % 1010,0 hPa 0,0 mm 20,0 km/h (4 Bft) SW 233 ° 0 min 0,000 mm 0,0 UV-I 0 W/m² 7,2 °C 6,0 °C 32,2 km/h (5 Bft)
15.10.2019 22:54 8,9 °C 89 % 1010,0 hPa 0,0 mm 14,8 km/h (3 Bft) W-NW 300 ° 0 min 0,000 mm 0,0 UV-I 0 W/m² 7,2 °C 6,6 °C 20,9 km/h (4 Bft)
15.10.2019 22:55 8,9 °C 89 % 1009,9 hPa 0,0 mm 15,7 km/h (3 Bft) NW 315 ° 0 min 0,000 mm 0,0 UV-I 0 W/m² 7,2 °C 6,5 °C 27,4 km/h (4 Bft)
15.10.2019 22:56 8,9 °C 89 % 1010,0 hPa 0,0 mm 16,2 km/h (3 Bft) W-NW 293 ° 0 min 0,000 mm 0,0 UV-I 0 W/m² 7,2 °C 6,4 °C 22,5 km/h (4 Bft)
15.10.2019 22:57 8,8 °C 89 % 1010,0 hPa 0,0 mm 17,4 km/h (3 Bft) W-SW 242 ° 0 min 0,000 mm 0,0 UV-I 0 W/m² 7,1 °C 6,1 °C 22,5 km/h (4 Bft)
15.10.2019 22:58 8,9 °C 89 % 1010,0 hPa 0,0 mm 13,9 km/h (3 Bft) W-SW 253 ° 0 min 0,000 mm 0,0 UV-I 0 W/m² 7,2 °C 6,7 °C 19,3 km/h (3 Bft)
15.10.2019 22:59 8,8 °C 89 % 1010,1 hPa 0,0 mm 17,8 km/h (3 Bft) W-SW 254 ° 0 min 0,000 mm 0,0 UV-I 0 W/m² 7,1 °C 6,1 °C 25,7 km/h (4 Bft)
15.10.2019 23:00 8,8 °C 89 % 1010,2 hPa 0,0 mm 11,6 km/h (2 Bft) W-SW 251 ° 0 min 0,000 mm 0,0 UV-I 0 W/m² 7,1 °C 6,9 °C 17,7 km/h (3 Bft)
15.10.2019 23:01 8,8 °C 89 % 1010,1 hPa 0,0 mm 10,1 km/h (2 Bft) SW 223 ° 0 min 0,025 mm 0,0 UV-I 0 W/m² 7,1 °C 7,2 °C 16,1 km/h (3 Bft)
15.10.2019 23:02 8,8 °C 89 % 1010,2 hPa 0,0 mm 5,8 km/h (2 Bft) W-NW 292 ° 0 min 0,000 mm 0,0 UV-I 0 W/m² 7,1 °C 8,1 °C 11,3 km/h (2 Bft)
15.10.2019 23:03 8,8 °C 89 % 1010,1 hPa 0,0 mm 15,3 km/h (3 Bft) W-SW 250 ° 0 min 0,000 mm 0,0 UV-I 0 W/m² 7,1 °C 6,4 °C 20,9 km/h (4 Bft)
15.10.2019 23:04 8,8 °C 89 % 1010,2 hPa 0,0 mm 21,5 km/h (4 Bft) NW 307 ° 0 min 0,000 mm 0,0 UV-I 0 W/m² 7,1 °C 5,7 °C 37,0 km/h (5 Bft)
15.10.2019 23:05 8,8 °C 89 % 1010,1 hPa 0,0 mm 14,2 km/h (3 Bft) W-NW 288 ° 0 min 0,000 mm 0,0 UV-I 0 W/m² 7,1 °C 6,5 °C 24,1 km/h (4 Bft)
15.10.2019 23:06 8,8 °C 89 % 1010,1 hPa 0,0 mm 15,6 km/h (3 Bft) W 272 ° 0 min 0,000 mm 0,0 UV-I 0 W/m² 7,1 °C 6,4 °C 19,3 km/h (3 Bft)
15.10.2019 23:07 8,8 °C 89 % 1010,1 hPa 0,0 mm 17,1 km/h (3 Bft) W 275 ° 0 min 0,000 mm 0,0 UV-I 0 W/m² 7,1 °C 6,2 °C 33,8 km/h (5 Bft)
15.10.2019 23:08 8,8 °C 89 % 1010,0 hPa 0,0 mm 14,7 km/h (3 Bft) W-SW 258 ° 0 min 0,000 mm 0,0 UV-I 0 W/m² 7,1 °C 6,5 °C 20,9 km/h (4 Bft)
15.10.2019 23:09 8,8 °C 89 % 1010,0 hPa 0,0 mm 14,8 km/h (3 Bft) SW 228 ° 0 min 0,000 mm 0,0 UV-I 0 W/m² 7,1 °C 6,5 °C 29,0 km/h (5 Bft)
15.10.2019 23:10 8,8 °C 89 % 1010,0 hPa 0,0 mm 15,7 km/h (3 Bft) W 264 ° 0 min 0,000 mm 0,0 UV-I 0 W/m² 7,1 °C 6,3 °C 25,7 km/h (4 Bft)
15.10.2019 23:11 8,8 °C 89 % 1010,1 hPa 0,0 mm 17,2 km/h (3 Bft) W-NW 301 ° 0 min 0,000 mm 0,0 UV-I 0 W/m² 7,1 °C 6,2 °C 33,8 km/h (5 Bft)
15.10.2019 23:12 8,8 °C 89 % 1010,1 hPa 0,0 mm 13,9 km/h (3 Bft) W 259 ° 0 min 0,000 mm 0,0 UV-I 0 W/m² 7,1 °C 6,6 °C 24,1 km/h (4 Bft)
15.10.2019 23:13 8,8 °C 89 % 1010,1 hPa 0,0 mm 17,8 km/h (3 Bft) W-NW 299 ° 0 min 0,000 mm 0,0 UV-I 0 W/m² 7,1 °C 6,1 °C 30,6 km/h (5 Bft)
15.10.2019 23:14 8,9 °C 89 % 1010,1 hPa 0,0 mm 14,1 km/h (3 Bft) W-SW 253 ° 0 min 0,000 mm 0,0 UV-I 0 W/m² 7,2 °C 6,7 °C 24,1 km/h (4 Bft)
15.10.2019 23:15 8,9 °C 88 % 1010,1 hPa 0,0 mm 17,2 km/h (3 Bft) W-NW 282 ° 0 min 0,000 mm 0,0 UV-I 0 W/m² 7,0 °C 6,3 °C 25,7 km/h (4 Bft)
15.10.2019 23:16 8,9 °C 88 % 1010,1 hPa 0,0 mm 12,0 km/h (2 Bft) W-NW 300 ° 0 min 0,000 mm 0,0 UV-I 0 W/m² 7,0 °C 7,0 °C 17,7 km/h (3 Bft)
15.10.2019 23:17 8,9 °C 88 % 1010,1 hPa 0,0 mm 12,2 km/h (2 Bft) W-NW 296 ° 0 min 0,000 mm 0,0 UV-I 0 W/m² 7,0 °C 7,0 °C 22,5 km/h (4 Bft)
15.10.2019 23:18 8,9 °C 88 % 1010,2 hPa 0,0 mm 17,9 km/h (3 Bft) W 273 ° 0 min 0,000 mm 0,0 UV-I 0 W/m² 7,0 °C 6,2 °C 30,6 km/h (5 Bft)
15.10.2019 23:19 8,9 °C 88 % 1010,2 hPa 0,0 mm 13,5 km/h (3 Bft) W-NW 299 ° 0 min 0,000 mm 0,0 UV-I 0 W/m² 7,0 °C 6,8 °C 22,5 km/h (4 Bft)
15.10.2019 23:20 8,9 °C 88 % 1010,1 hPa 0,0 mm 12,5 km/h (3 Bft) W-SW 255 ° 0 min 0,000 mm 0,0 UV-I 0 W/m² 7,0 °C 6,9 °C 19,3 km/h (3 Bft)
15.10.2019 23:21 8,9 °C 88 % 1010,2 hPa 0,0 mm 12,4 km/h (3 Bft) W-NW 290 ° 0 min 0,000 mm 0,0 UV-I 0 W/m² 7,0 °C 6,9 °C 19,3 km/h (3 Bft)
15.10.2019 23:22 8,9 °C 88 % 1010,1 hPa 0,0 mm 11,5 km/h (2 Bft) N-NW 336 ° 0 min 0,000 mm 0,0 UV-I 0 W/m² 7,0 °C 7,1 °C 22,5 km/h (4 Bft)
15.10.2019 23:23 8,9 °C 87 % 1010,2 hPa 0,0 mm 19,6 km/h (3 Bft) W 273 ° 0 min 0,000 mm 0,0 UV-I 0 W/m² 6,9 °C 6,0 °C 37,0 km/h (5 Bft)
15.10.2019 23:24 8,9 °C 87 % 1010,3 hPa 0,0 mm 19,6 km/h (3 Bft) W 263 ° 0 min 0,000 mm 0,0 UV-I 0 W/m² 6,9 °C 6,0 °C 35,4 km/h (5 Bft)
15.10.2019 23:25 8,9 °C 87 % 1010,2 hPa 0,0 mm 19,1 km/h (3 Bft) W 269 ° 0 min 0,000 mm 0,0 UV-I 0 W/m² 6,9 °C 6,1 °C 24,1 km/h (4 Bft)
15.10.2019 23:26 8,9 °C 87 % 1010,3 hPa 0,0 mm 18,7 km/h (3 Bft) W-SW 257 ° 0 min 0,000 mm 0,0 UV-I 0 W/m² 6,9 °C 6,1 °C 30,6 km/h (5 Bft)
15.10.2019 23:27 9,0 °C 86 % 1010,3 hPa 0,0 mm 18,1 km/h (3 Bft) W 268 ° 0 min 0,000 mm 0,0 UV-I 0 W/m² 6,8 °C 6,3 °C 33,8 km/h (5 Bft)
15.10.2019 23:28 9,0 °C 86 % 1010,3 hPa 0,0 mm 19,3 km/h (3 Bft) W 260 ° 0 min 0,000 mm 0,0 UV-I 0 W/m² 6,8 °C 6,2 °C 27,4 km/h (4 Bft)
15.10.2019 23:29 9,1 °C 86 % 1010,3 hPa 0,0 mm 17,7 km/h (3 Bft) W 259 ° 0 min 0,000 mm 0,0 UV-I 0 W/m² 6,9 °C 6,5 °C 25,7 km/h (4 Bft)
15.10.2019 23:30 9,1 °C 85 % 1010,2 hPa 0,0 mm 16,4 km/h (3 Bft) NW 304 ° 0 min 0,000 mm 0,0 UV-I 0 W/m² 6,7 °C 6,6 °C 27,4 km/h (4 Bft)
15.10.2019 23:31 9,1 °C 85 % 1010,3 hPa 0,0 mm 19,7 km/h (3 Bft) W-NW 299 ° 0 min 0,000 mm 0,0 UV-I 0 W/m² 6,7 °C 6,3 °C 30,6 km/h (5 Bft)
15.10.2019 23:32 9,1 °C 85 % 1010,3 hPa 0,0 mm 21,9 km/h (4 Bft) S-SW 208 ° 0 min 0,000 mm 0,0 UV-I 0 W/m² 6,7 °C 6,1 °C 29,0 km/h (5 Bft)
15.10.2019 23:33 9,1 °C 85 % 1010,3 hPa 0,0 mm 17,0 km/h (3 Bft) W-SW 244 ° 0 min 0,000 mm 0,0 UV-I 0 W/m² 6,7 °C 6,6 °C 22,5 km/h (4 Bft)
15.10.2019 23:34 9,1 °C 85 % 1010,2 hPa 0,0 mm 19,2 km/h (3 Bft) W-NW 287 ° 0 min 0,000 mm 0,0 UV-I 0 W/m² 6,7 °C 6,3 °C 27,4 km/h (4 Bft)
15.10.2019 23:35 9,1 °C 84 % 1010,4 hPa 0,0 mm 17,5 km/h (3 Bft) W-SW 248 ° 0 min 0,000 mm 0,0 UV-I 0 W/m² 6,5 °C 6,5 °C 27,4 km/h (4 Bft)
15.10.2019 23:36 9,2 °C 84 % 1010,4 hPa 0,0 mm 22,8 km/h (4 Bft) W 259 ° 0 min 0,000 mm 0,0 UV-I 0 W/m² 6,6 °C 6,1 °C 40,2 km/h (6 Bft)
15.10.2019 23:37 9,2 °C 84 % 1010,3 hPa 0,0 mm 17,3 km/h (3 Bft) W-SW 256 ° 0 min 0,000 mm 0,0 UV-I 0 W/m² 6,6 °C 6,7 °C 29,0 km/h (5 Bft)
15.10.2019 23:38 9,2 °C 84 % 1010,2 hPa 0,0 mm 16,7 km/h (3 Bft) W 266 ° 0 min 0,000 mm 0,0 UV-I 0 W/m² 6,6 °C 6,7 °C 30,6 km/h (5 Bft)
15.10.2019 23:39 9,2 °C 84 % 1010,3 hPa 0,0 mm 24,3 km/h (4 Bft) W-NW 282 ° 0 min 0,000 mm 0,0 UV-I 0 W/m² 6,6 °C 6,0 °C 30,6 km/h (5 Bft)
15.10.2019 23:40 9,2 °C 84 % 1010,4 hPa 0,0 mm 16,6 km/h (3 Bft) W 265 ° 0 min 0,000 mm 0,0 UV-I 0 W/m² 6,6 °C 6,7 °C 24,1 km/h (4 Bft)
15.10.2019 23:41 9,3 °C 84 % 1010,4 hPa 0,0 mm 17,6 km/h (3 Bft) W 260 ° 0 min 0,000 mm 0,0 UV-I 0 W/m² 6,7 °C 6,7 °C 29,0 km/h (5 Bft)
15.10.2019 23:42 9,3 °C 83 % 1010,4 hPa 0,0 mm 17,5 km/h (3 Bft) W-SW 252 ° 0 min 0,000 mm 0,0 UV-I 0 W/m² 6,6 °C 6,8 °C 30,6 km/h (5 Bft)
15.10.2019 23:43 9,3 °C 83 % 1010,5 hPa 0,0 mm 19,8 km/h (3 Bft) W 275 ° 0 min 0,000 mm 0,0 UV-I 0 W/m² 6,6 °C 6,5 °C 29,0 km/h (5 Bft)
15.10.2019 23:44 9,3 °C 83 % 1010,5 hPa 0,0 mm 17,5 km/h (3 Bft) NW 304 ° 0 min 0,000 mm 0,0 UV-I 0 W/m² 6,6 °C 6,8 °C 27,4 km/h (4 Bft)
15.10.2019 23:45 9,3 °C 83 % 1010,4 hPa 0,0 mm 11,0 km/h (2 Bft) W 277 ° 0 min 0,000 mm 0,0 UV-I 0 W/m² 6,6 °C 7,6 °C 22,5 km/h (4 Bft)
15.10.2019 23:46 9,3 °C 83 % 1010,5 hPa 0,0 mm 23,5 km/h (4 Bft) W 280 ° 0 min 0,000 mm 0,0 UV-I 0 W/m² 6,6 °C 6,2 °C 37,0 km/h (5 Bft)
15.10.2019 23:47 9,3 °C 83 % 1010,5 hPa 0,0 mm 18,9 km/h (3 Bft) W-NW 292 ° 0 min 0,000 mm 0,0 UV-I 0 W/m² 6,6 °C 6,6 °C 27,4 km/h (4 Bft)
15.10.2019 23:48 9,3 °C 83 % 1010,5 hPa 0,0 mm 13,0 km/h (3 Bft) W 279 ° 0 min 0,000 mm 0,0 UV-I 0 W/m² 6,6 °C 7,3 °C 17,7 km/h (3 Bft)
15.10.2019 23:49 9,3 °C 83 % 1010,6 hPa 0,0 mm 13,1 km/h (3 Bft) S-SW 209 ° 0 min 0,000 mm 0,0 UV-I 0 W/m² 6,6 °C 7,3 °C 20,9 km/h (4 Bft)
15.10.2019 23:50 9,2 °C 83 % 1010,7 hPa 0,0 mm 6,4 km/h (2 Bft) W 265 ° 0 min 0,000 mm 0,0 UV-I 0 W/m² 6,5 °C 8,4 °C 12,9 km/h (3 Bft)
15.10.2019 23:51 9,2 °C 83 % 1010,7 hPa 0,0 mm 14,8 km/h (3 Bft) W 262 ° 0 min 0,000 mm 0,0 UV-I 0 W/m² 6,5 °C 7,0 °C 25,7 km/h (4 Bft)
15.10.2019 23:52 9,2 °C 83 % 1010,7 hPa 0,0 mm 13,4 km/h (3 Bft) SW 229 ° 0 min 0,000 mm 0,0 UV-I 0 W/m² 6,5 °C 7,1 °C 19,3 km/h (3 Bft)
15.10.2019 23:53 9,2 °C 84 % 1010,7 hPa 0,0 mm 12,3 km/h (3 Bft) W-SW 242 ° 0 min 0,000 mm 0,0 UV-I 0 W/m² 6,6 °C 7,3 °C 20,9 km/h (4 Bft)
15.10.2019 23:54 9,2 °C 84 % 1010,7 hPa 0,0 mm 14,1 km/h (3 Bft) W-SW 252 ° 0 min 0,000 mm 0,0 UV-I 0 W/m² 6,6 °C 7,0 °C 24,1 km/h (4 Bft)
15.10.2019 23:55 9,2 °C 84 % 1010,7 hPa 0,0 mm 14,2 km/h (3 Bft) W-NW 294 ° 0 min 0,000 mm 0,0 UV-I 0 W/m² 6,6 °C 7,0 °C 20,9 km/h (4 Bft)
15.10.2019 23:56 9,2 °C 84 % 1010,7 hPa 0,0 mm 10,3 km/h (2 Bft) W-SW 257 ° 0 min 0,000 mm 0,0 UV-I 0 W/m² 6,6 °C 7,6 °C 17,7 km/h (3 Bft)
15.10.2019 23:57 9,1 °C 84 % 1010,7 hPa 0,0 mm 11,6 km/h (2 Bft) W-NW 288 ° 0 min 0,000 mm 0,0 UV-I 0 W/m² 6,5 °C 7,3 °C 16,1 km/h (3 Bft)
15.10.2019 23:58 9,1 °C 84 % 1010,8 hPa 0,0 mm 7,0 km/h (2 Bft) S-SW 194 ° 0 min 0,000 mm 0,0 UV-I 0 W/m² 6,5 °C 8,2 °C 12,9 km/h (3 Bft)
15.10.2019 23:59 9,1 °C 84 % 1010,8 hPa 0,0 mm 11,5 km/h (2 Bft) W-SW 255 ° 0 min 0,000 mm 0,0 UV-I 0 W/m² 6,5 °C 7,3 °C 17,7 km/h (3 Bft)
_ Min-Zeit 07:14 13:27 16:23 - 16:29 - - - - - - 06:29 07:14 16:29
Minimum _ 5,2 °C 45 % 1002,9 hPa - 0,0 km/h (0 Bft) - - - - - - 4,0 °C 5,2 °C 0,0 km/h (0 Bft)
_ Max-Zeit 14:34 07:58 23:59 19:51 22:27 - - 13:35 13:01 13:19 12:40 14:00 14:34 22:20
Maximum _ 22,3 °C 93 % 1010,8 hPa 0,2 mm 30,6 km/h
W (5 Bft)
- - 1 min 0,356 mm 3,6 UV-I 626 W/m² 13,5 °C 22,3 °C 51,5 km/h
W (7 Bft)
Durchschnitt _ 12,5 °C 78 % 1007,3 hPa #0,6 mm 4,3 km/h (1 Bft) W - #21 min. #1,676 mm 2,3 UV-I 100 W/m² 8,4 °C 12,4 °C 7,1 km/h (2 Bft)